     2.10           OBSERVATION DATA    G (GPS)             RINEX VERSION / TYPE
teqc 2002Mar14 SOPAC 20050725 22:56:59UTC                   PGM / RUN BY / DATE
Linux 2.0.36|Pentium II|gcc -static|Linux|486/DX+           COMMENT
BIT 2 OF LLI FLAGS DATA COLLECTED UNDER A/S CONDITION       COMMENT
ROUND MTN                                                   MARKER NAME
RNDM                                                        MARKER NUMBER
Tony Carruthers                                             OBSERVER / AGENCY
0220188099 TRIMBLE 4700 1.30                                REC # / TYPE / VERS
0220187156 TRM33429.00+GP NONE                              ANT # / TYPE
 -2454286.0000 -4346454.0000  3960058.0000                  APPROX POSITION XYZ
        2.0000        0.0000        0.0000                  ANTENNA: DELTA H/E/N
     1     1                                                WAVELENGTH FACT L1/2
     6    L1    L2    C1    P2    P1    D1                  # / TYPES OF OBSERV
    15.0000                                                 INTERVAL
Northern California Height Modernization 2004               COMMENT
                                                            COMMENT
SOPAC - Scripps Orbit and Permanent Array Center            COMMENT
IGPP - Institute of Geophysics and Planetary Physics        COMMENT
SIO - Scripps Institution of Oceanography                   COMMENT
UCSD - University of California, San Diego                  COMMENT
                                                            COMMENT
email: archive@gpsmail.ucsd.edu                             COMMENT
ftp://garner.ucsd.edu                                       COMMENT
http://sopac.ucsd.edu                                       COMMENT
                                                            COMMENT
                                                            COMMENT
Approximate Lat, Lon : 38.614, -119.452                     COMMENT
                                                            COMMENT
SNR is mapped to RINEX snr flag value [1-9]                 COMMENT
L1: 3 -> 1; 8 -> 5; 40 -> 9                                 COMMENT
L2: 1 -> 1; 5 -> 5; 60 -> 9                                 COMMENT
  2004     9    17    21     0   15.0000000     GPS         TIME OF FIRST OBS
                                                            END OF HEADER
 04  9 17 21  0 15.0000000  0  6G 3G 8G13G19G23G27
     12818.44259       940.34757  22788877.0234   22788874.3204
     -1183.0784
    -13395.79859     -9735.01857  22240174.1334   22240170.6644
      1232.7504
     17363.23859      2612.55058  20301826.5944   20301821.6294
     -1600.6094
    -11075.87359     -9572.28557  22991836.5234   22991832.4534
      1016.7974
     42289.94459     12421.30357  22181111.7734   22181105.7194
     -3820.5314
     -1015.82959     -4688.24058  21241356.2424   21241352.0004
        90.4224
 04  9 17 21  0 30.0000000  0  6G 3G 8G13G19G23G27
     30599.64549     14795.82347  22792260.1414   22792257.8204
     -1188.6414
    -31905.26149    -24157.99747  22236651.7974   22236648.5084
      1234.3134
     41396.74649     21339.93748  20306400.1094   20306395.0664
     -1604.7814
    -26317.56249    -21448.88547  22988936.6414   22988931.6884
      1014.5314
     99602.01949     57080.00647  22192017.8054   22192012.0554
     -3821.9694
     -2390.33449     -5759.29448  21241095.0164   21241090.8134
        91.9384
 04  9 17 21  0 45.0000000  0  6G 3G 8G13G19G23G27
     48485.20149     28732.60147  22795663.8834   22795661.4534
     -1196.3754
    -50416.34649    -38582.20747  22233129.4224   22233125.6804
      1233.6724
     65513.07549     40131.86748  20310988.9384   20310984.0784
     -1611.0164
    -41504.79649    -33283.04647  22986046.2814   22986041.9884
      1010.1414
    156954.09449    101769.88047  22202931.5944   22202925.8554
     -3825.3444
     -3767.89249     -6832.73248  21240832.5234   21240828.2274
        91.4694
 04  9 17 21  1  0.0000000  0  6G 3G 8G13G19G23G27
     66507.49749     42775.94447  22799093.8594   22799091.0044
     -1206.4064
    -68896.35449    -52982.19547  22229612.5634   22229608.8484
      1230.7034
     89744.84449     59013.74848  20315600.3524   20315595.7274
     -1619.6254
    -56604.66749    -45049.12647  22983172.6954   22983168.3484
      1003.4224
    214378.37249    146516.02047  22213859.1334   22213853.5634
     -3831.0314
     -5115.95949     -7883.16748  21240575.9924   21240571.5864
        88.5784
 04  9 17 21  1 15.0000000  0  6G 3G 8G13G19G23G27
     84686.85549     56941.70147  22802552.9064   22802550.5784
     -1217.7974
    -87325.02649    -67342.18747  22226105.8524   22226102.5864
      1226.1724
    114112.43049     78001.47948  20320237.2894   20320232.2034
     -1629.6724
    -71596.56449    -56731.06347  22980319.5784   22980315.4104
       995.1884
    271895.09449    191334.21247  22224803.9534   22224798.3984
     -3838.1414
     -6414.14749     -8894.73748  21240328.9384   21240324.9804
        84.2974
 04  9 17 21  1 30.0000000  0  6G 3G 8G13G19G23G27
    103043.55249     71245.61547  22806045.8134   22806043.4534
     -1229.8594
   -105682.16649    -81646.43847  22222612.4694   22222609.1764
      1221.1564
    138635.96249     97110.71648  20324904.1954   20324899.1174
     -1640.3444
    -86459.97249    -68312.89247  22977491.3284   22977486.3054
       986.3754
    329524.33349    236240.05647  22235770.6254   22235764.8554
     -3845.9064
     -7642.38849     -9851.81148  21240095.2664   21240091.0044
        79.3134
 04  9 17 21  1 45.0000000  0  6G 3G 8G13G19G23G27
    121588.18949     85695.98847  22809575.2274   22809572.2464
     -1242.8914
   -123957.27649    -95886.76647  22219134.6024   22219131.3794
      1215.3444
    163326.03849    116349.72148  20329602.5164   20329597.5204
     -1651.9374
   -101183.97249    -79786.08347  22974689.2194   22974685.2544
       976.5634
    387276.32649    281241.57047  22246760.2114   22246754.8954
     -3854.5624
     -8790.03249    -10746.06048  21239876.6334   21239872.1174
        73.5164
 04  9 17 21  2  0.0000000  0  6G 3G 8G13G19G23G27
    140330.22349    100300.16547  22813141.5634   22813138.8324
     -1255.8754
   -142140.80349   -110055.72247  22215674.9224   22215671.4184
      1209.3754
    188192.15749    135725.91148  20334334.2584   20334329.3164
     -1663.4374
   -115758.87249    -91143.09447  22971915.7584   22971911.2154
       966.7814
    445160.48749    326346.07547  22257775.1884   22257769.9144
     -3863.1874
     -9847.58749    -11570.13548  21239675.6954   21239671.0164
        67.6564
 04  9 17 21  2 15.0000000  0  6G 3G 8G13G19G23G27
    159278.56649    115065.11447  22816747.1644   22816744.7304
     -1270.3124
   -160223.79049   -124146.34547  22212233.7504   22212229.8874
      1201.9384
    213243.30749    155246.27548  20339101.4844   20339096.5704
     -1676.4694
   -130175.39649   -102376.69647  22969171.9144   22969167.5084
       955.6254
    503185.53249    371560.34147  22268817.2814   22268811.9574
     -3873.3444
    -10806.20249    -12317.09648  21239493.2034   21239489.0824
        60.4534
 04  9 17 21  2 30.0000000  0  6G 3G 8G13G19G23G27
    178435.02649    129992.23847  22820392.7424   22820389.6954
     -1283.8594
   -178204.52249   -138157.27047  22208811.9384   22208808.3874
      1195.4534
    238481.19749    174912.17148  20343904.2814   20343898.8594
     -1688.5314
   -144431.38449   -113485.21347  22966459.4844   22966455.1564
       945.1884
    561352.98849    416885.59547  22279886.1174   22279880.2384
     -3882.3914
    -11664.11049    -12985.59448  21239329.9454   21239325.5314
        54.0944
 04  9 17 21  2 45.0000000  0  6G 3G 8G13G19G23G27
    197798.55749    145080.71447  22824077.0634   22824074.6914
     -1297.9534
   -196083.94649   -152089.27247  22205409.5634   22205405.6994
      1188.3444
    263904.94849    194722.87748  20348742.1334   20348736.8984
     -1701.2814
   -158527.79549   -124469.36547  22963776.8524   22963772.4024
       934.2034
    619661.58349    462320.83047  22290981.6644   22290976.3054
     -3892.1724
    -12422.30449    -13576.38048  21239185.9614   21239181.5044
        46.9694
 04  9 17 21  3  0.0000000  0  6G 3G 8G13G19G23G27
    217372.68649    160333.28847  22827802.2114   22827799.3134
     -1311.8754
   -213858.43649   -165939.49647  22202027.6094   22202023.8204
      1181.5634
    289518.04549    214681.12448  20353615.8914   20353610.6604
     -1713.8284
   -172460.60849   -135326.06947  22961125.7894   22961121.5554
       923.4844
    678114.68149    507868.65947  22302105.1564   22302099.9264
     -3901.6414
    -13077.19449    -14086.68448  21239060.7194   21239057.1254
        40.2664
 04  9 17 21  3 15.0000000  0  6G 3G 8G13G19G23G27
    237152.32049    175745.99947  22831566.0784   22831563.6524
     -1325.2814
   -231533.14149   -179711.98747  22198664.3524   22198660.5084
      1175.0944
    315315.49149    234783.02248  20358525.3524   20358520.0864
     -1725.8754
   -186234.56049   -146058.97847  22958504.5554   22958499.6484
       913.0944
    736707.06149    553525.01647  22313255.0394   22313249.5394
     -3910.6414
    -13633.95949    -14520.52648  21238955.0474   21238950.7894
        34.0164
 04  9 17 21  3 30.0000000  0  6G 3G 8G13G19G23G27
    257135.04949    191316.97247  22835368.7894   22835366.0784
     -1339.0004
   -249110.38649   -193408.50547  22195319.0704   22195315.3444
      1168.5004
    341294.87949    255026.69548  20363468.8754   20363463.8134
     -1738.0784
   -199851.93449   -156669.87847  22955913.2664   22955908.6684
       902.5314
    795436.12949    599287.89047  22324430.5634   22324425.5084
     -3919.8754
    -14095.00749    -14879.76348  21238867.3914   21238863.3914
        27.4384
 04  9 17 21  3 45.0000000  0  6G 3G 8G13G19G23G27
    277322.47849    207047.44847  22839210.3054   22839207.2304
     -1352.5624
   -266588.65649   -207027.90947  22191993.2114   22191989.4734
      1162.0944
    367457.75949    275413.35748  20368447.4774   20368442.2344
     -1750.2034
   -213310.73549   -167157.19747  22953352.3364   22953347.5944
       892.0314
    854303.38349    645158.44147  22335633.3054   22335627.7734
     -3928.9224
    -14458.69349    -15163.14848  21238798.0234   21238793.8674
        21.1564
 04  9 17 21  4  0.0000000  0  6G 3G 8G13G19G23G27
    297710.11449    222933.92247  22843089.5394   22843087.0044
     -1365.6254
   -283972.36049   -220573.63047  22188685.0784   22188681.3714
      1155.9064
    393799.60749    295939.47448  20373460.3834   20373455.6134
     -1761.9374
   -226615.05249   -177524.16547  22950820.2974   22950815.9574
       881.9384
    913304.01349    691132.91547  22346860.2974   22346854.6914
     -3937.6254
    -14729.48149    -15374.15348  21238746.4064   21238741.8204
        15.1254
 04  9 17 21  4 15.0000000  0  6G 3G 8G13G19G23G27
    318291.89649    238971.70047  22847006.3054   22847003.5784
     -1378.7664
   -301267.36349   -234050.22747  22185393.9304   22185390.1724
      1149.8914
    420314.57649    316600.46748  20378505.8204   20378501.0864
     -1773.6094
   -239770.70249   -187775.26647  22948316.7194   22948312.2854
       872.0164
    972431.83549    737206.51647  22358112.1804   22358106.9884
     -3946.2344
    -14913.49149    -15517.52048  21238711.5234   21238707.1724
         9.2504
 04  9 17 21  4 30.0000000  0  6G 3G 8G13G19G23G27
    339067.86349    255160.77047  22850960.0704   22850956.8634
     -1391.1094
   -318473.68149   -247457.73147  22182119.8364   22182116.2974
      1144.4844
    447002.83049    337396.50948  20383584.4774   20383579.0784
     -1784.6564
   -252777.21549   -197910.15847  22945842.0084   22945836.7854
       862.4694
   1031686.78549    783379.15747  22369388.1334   22369382.7974
     -3954.2344
    -15010.50649    -15593.10848  21238693.1564   21238688.5634
         3.9534
 04  9 17 21  4 45.0000000  0  6G 3G 8G13G19G23G27
    360034.74749    271498.62247  22854949.7114   22854946.8244
     -1403.9534
   -335594.67349   -260798.74047  22178861.6804   22178857.8914
      1138.7194
    473861.07149    358325.01048  20388695.5394   20388690.2704
     -1796.1094
   -265637.58049   -207931.20447  22943394.7584   22943389.7074
       852.6254
   1091065.42249    829648.18747  22380687.7274   22380682.4144
     -3962.5004
    -15023.75349    -15603.42748  21238690.6414   21238686.2464
        -1.7344
 04  9 17 21  5  0.0000000  0  6G 3G 8G13G19G23G27
    381187.88949    287981.61047  22858975.1724   22858972.0084
     -1416.4694
   -352635.16149   -274077.01447  22175618.9694   22175614.7424
      1133.2974
    500884.52049    379382.24848  20393837.7274   20393832.7074
     -1807.0784
   -278356.17549   -217841.75747  22940974.2584   22940969.0864
       843.1724
   1150562.77649    876009.72447  22392009.2034   22392003.7274
     -3970.4534
    -14958.09949    -15552.26348  21238703.1094   21238698.6684
        -7.0474
 04  9 17 21  5 15.0000000  0  6G 3G 8G13G19G23G27
    402532.54149    304613.82747  22863037.0634   22863034.0394
     -1429.4844
   -369589.62749   -287288.25747  22172392.2894   22172388.9534
      1127.3594
    528078.49949    400572.34348  20399012.6884   20399007.4344
     -1818.7344
   -290927.47849   -227637.52647  22938581.5234   22938577.2034
       833.0634
   1210183.96549    922467.76347  22403354.6484   22403349.4734
     -3978.9844
    -14808.12449    -15435.38448  21238731.6174   21238727.3874
       -12.9374
 04  9 17 21  5 30.0000000  0  6G 3G 8G13G19G23G27
    424058.64449    321387.41747  22867132.9064   22867130.3874
     -1441.1094
   -386468.18949   -300440.37247  22169180.7114   22169176.9024
      1122.7344
    555433.07949    421887.60348  20404218.1334   20404212.8754
     -1828.9534
   -303361.14949   -237326.06947  22936215.1094   22936211.2234
       824.3284
   1269918.80049    969014.34447  22414722.0234   22414717.0164
     -3986.0624
    -14583.86149    -15260.63348  21238774.3054   21238769.5274
       -17.3914
 04  9 17 21  5 45.0000000  0  6G 3G 8G13G19G23G27
    445762.17349    338299.28647  22871263.3674   22871260.3134
     -1452.6874
   -403274.51449   -313536.17447  22165982.3754   22165978.0664
      1118.1414
    582944.35349    443324.94548  20409453.3364   20409448.2504
     -1839.1724
   -315660.90249   -246910.25447  22933875.2504   22933870.2384
       815.6254
   1329763.17349   1015646.29247  22426110.1884   22426104.9144
     -3993.1254
    -14289.32349    -15031.11148  21238830.1644   21238826.0634
       -21.8124
 04  9 17 21  6  0.0000000  0  6G 3G 8G13G19G23G27
    467638.43649    355345.74247  22875425.9774   22875423.0514
     -1464.1254
   -420013.71149   -326579.67647  22162796.9224   22162792.9964
      1113.7344
    610607.50549    464880.66248  20414717.5234   20414712.0234
     -1849.2034
   -327831.20649   -256393.57447  22931559.0314   22931554.4924
       807.1564
   1389712.01349   1062359.63747  22437518.2194   22437512.8634
     -4000.0314
    -13929.20849    -14750.48848  21238898.6024   21238894.0984
       -26.1094
 04  9 17 21  6 15.0000000  0  6G 3G 8G13G19G23G27
    489692.67249    372530.87147  22879622.6414   22879620.0514
     -1476.0314
   -436680.10649   -339566.44847  22159625.3834   22159621.3594
      1108.8284
    638427.80349    486558.80848  20420011.4144   20420006.2344
     -1859.7814
   -339866.47449   -265771.67347  22929269.4064   22929264.5234
       798.0004
   1449770.45649   1109158.38747  22448947.0784   22448941.7624
     -4007.3914
    -13498.40149    -14414.78348  21238980.7664   21238976.3204
       -30.8754
 04  9 17 21  6 30.0000000  0  6G 3G 8G13G19G23G27
    511920.09949    389850.97647  22883852.3674   22883849.8554
     -1487.3914
   -453278.58749   -352500.30447  22156466.8984   22156463.1024
      1104.4844
    666400.48549    508355.70048  20425334.4694   20425329.2504
     -1869.7194
   -351771.03849   -275047.92947  22927003.7034   22926999.0824
       789.4224
   1509933.54949   1156038.68147  22460395.7034   22460390.5044
     -4014.1564
    -13001.43249    -14027.52748  21239075.2584   21239071.3914
       -35.1724
 04  9 17 21  6 45.0000000  0  6G 3G 8G13G19G23G27
    534318.58049    407304.35047  22888114.9144   22888112.5664
     -1498.9374
   -469811.32349   -365382.91647  22153321.0784   22153317.0474
      1100.0164
    694523.34849    530269.61248  20430686.0944   20430680.7704
     -1879.8444
   -363546.90849   -284223.88047  22924763.0474   22924757.8204
       780.8134
   1570199.11049   1202998.82747  22471863.9384   22471858.7854
     -4021.0314
    -12440.62349    -13590.51948  21239181.6884   21239177.6174
       -39.4694
 04  9 17 21  7  0.0000000  0  7G 3G 8G13G19G23G27G28
    556887.27749    424890.36347  22892409.6724   22892406.8554
     -1510.1564
   -486279.00349   -378214.86047  22150186.8444   22150182.8714
      1095.7664
    722795.71149    552300.02548  20436066.1954   20436061.0434
     -1889.7344
   -375194.44049   -293299.86147  22922545.7814   22922541.7114
       772.2504
   1630566.00349   1250037.91847  22483351.6254   22483345.8984
     -4027.7194
    -11816.66249    -13104.31548  21239300.6334   21239296.3054
       -43.5944
   -108770.16759    -75730.94056  24341274.4454   24341272.6954
      2263.5634
 04  9 17 21  7 15.0000000  0  7G 3G 8G13G19G23G27G28
    579621.12549    442605.06347  22896735.5634   22896733.0234
     -1521.0314
   -502686.93549   -391000.23647  22147064.3364   22147060.6914
      1091.8754
    751212.46949    574442.95148  20441473.4924   20441468.7304
     -1899.2034
   -386718.54649   -302279.65747  22920353.0554   22920348.4574
       764.2504
   1691028.91449   1297151.84247  22494856.7504   22494851.3164
     -4034.0164
    -11134.57349    -12572.80248  21239430.5164   21239426.4104
       -47.3284
   -142694.49849   -102165.33346  24334818.1024   24334817.3984
      2259.6724
 04  9 17 21  7 30.0000000  0  7G 3G 8G13G19G23G27G28
    602518.76449    460447.39547  22901093.0164   22901089.9414
     -1531.9844
   -519035.98549   -403739.73147  22143953.2664   22143949.8984
      1088.0004
    779772.37649    596697.42448  20446908.1644   20446903.3094
     -1908.7034
   -398120.13949   -311163.98647  22918183.9454   22918178.8164
       756.0314
   1751586.42649   1344339.47047  22506381.0234   22506375.4384
     -4040.2974
    -10395.68649    -11997.04348  21239571.0704   21239566.9104
       -51.1414
   -176560.11149   -128554.02546  24328373.7424   24328372.9224
      2255.7814
 04  9 17 21  7 45.0000000  0  7G 3G 8G13G19G23G27G28
    625582.05049    478418.81147  22905481.6644   22905478.7384
     -1543.1414
   -535324.39949   -416431.97547  22140854.4614   22140850.2304
      1083.7664
    808477.45849    619065.01848  20452370.8834   20452365.8914
     -1918.6564
   -409397.00549   -319951.11947  22916038.0164   22916032.7154
       747.5784
   1812240.25749   1391602.16047  22517922.6884   22517917.3164
     -4046.8594
     -9598.04149    -11375.48848  21239722.9774   21239718.8874
       -55.2974
   -210364.94949   -154895.34746  24321941.0704   24321940.1804
      2251.5164
 04  9 17 21  8  0.0000000  0  7G 3G 8G13G19G23G27G28
    648809.75049    496518.32647  22909901.7114   22909898.9024
     -1553.9534
   -551553.70049   -429078.16147  22137765.8134   22137761.5394
      1080.0004
    837326.33449    641544.65648  20457860.4844   20457855.5944
     -1928.0624
   -420550.14949   -328641.85747  22913915.6254   22913910.4454
       739.4694
   1872989.02949   1438938.83747  22529483.3594   22529477.9774
     -4052.9844
     -8742.92549    -10709.15148  21239885.7504   21239881.2114
       -58.9374
   -244110.06649   -181190.10546  24315519.8054   24315518.2584
      2247.7034
 04  9 17 21  8 15.0000000  0  7G 3G 8G13G19G23G27G28
    672201.85349    514745.96147  22914353.1804   22914350.4534
     -1564.9534
   -567723.36649   -441677.87447  22134688.6484   22134684.9384
      1075.9224
    866319.20549    664136.49748  20463377.6884   20463372.7424
     -1937.6414
   -431579.11249   -337235.82247  22911816.7114   22911811.3524
       731.1254
   1933832.57949   1486349.35147  22541060.8054   22541055.7114
     -4059.3914
     -7830.16549     -9997.89848  21240059.6024   21240055.4304
       -62.7504
   -277795.02549   -207438.03546  24309109.6724   24309108.2774
      2243.6564
 04  9 17 21  8 30.0000000  0  7G 3G 8G13G19G23G27G28
    695752.12249    533096.82347  22918834.4064   22918831.7424
     -1575.3124
   -583839.65549   -454236.00047  22131621.9774   22131617.8204
      1072.5314
    895449.71049    686835.59748  20468921.0234   20468915.7814
     -1946.6874
   -442489.91649   -345737.72247  22909740.1254   22909735.6294
       723.3594
   1994764.51149   1533828.74847  22552655.8444   22552650.6134
     -4065.2034
     -6866.04549     -9246.62648  21240242.6884   21240238.1254
       -66.0944
   -311425.95349   -233643.83346  24302709.5474   24302708.3364
      2240.1724
 04  9 17 21  8 45.0000000  0  7G 3G 8G13G19G23G27G28
    719463.98649    551573.62447  22923347.1414   22923343.9574
     -1585.9534
   -599899.13849   -466749.85547  22128565.9454   22128562.0984
      1068.9224
    924721.38349    709644.69948  20474491.2504   20474485.9534
     -1956.0004
   -453278.67549   -354144.52247  22907687.5554   22907682.4144
       715.2974
   2055787.97249   1581379.45847  22564268.4844   22564262.8834
     -4071.0164
     -5847.05749     -8452.60748  21240436.6724   21240432.3954
       -69.5944
   -344999.23349   -259804.70446  24296320.3984   24296319.1214
      2236.4844
 04  9 17 21  9  0.0000000  0  7G 3G 8G13G19G23G27G28
    743332.56749    570172.54947  22927888.7034   22927885.4534
     -1596.0944
   -615906.73849   -479223.28547  22125519.2664   22125515.5434
      1065.8914
    954129.30949    732559.95848  20480087.5164   20480082.2504
     -1964.6724
   -463950.19549   -362459.94647  22905656.4694   22905651.5204
       707.9694
   2116897.89049   1628997.53947  22575897.8754   22575891.6094
     -4076.4694
     -4778.18849     -7619.70848  21240640.0234   21240635.4964
       -72.5624
   -378519.66849   -285924.39346  24289942.0634   24289940.4964
      2233.2974
 04  9 17 21  9 15.0000000  0  7G 3G 8G13G19G23G27G28
    767355.49149    588891.70847  22932460.2194   22932457.4344
     -1606.7664
   -631864.73749   -491658.06647  22122483.1334   22122479.1484
      1062.1564
    983671.19349    755579.59848  20485708.9844   20485704.0664
     -1973.9224
   -474506.32649   -370685.48747  22903647.7584   22903642.9064
       699.8914
   2178091.84349   1676681.10747  22587542.2424   22587536.9804
     -4082.5164
     -3661.52749     -6749.57248  21240852.7424   21240848.2934
       -76.1414
   -411989.33149   -312004.53846  24283572.3054   24283571.0084
      2229.5314
 04  9 17 21  9 30.0000000  0  7G 3G 8G13G19G23G27G28
    791535.72549    607733.47147  22937061.3444   22937058.7304
     -1617.1094
   -647770.13649   -504051.86647  22119456.1644   22119452.2774
      1058.7194
   1013350.14249    778706.05548  20491356.9454   20491352.1844
     -1983.0314
   -484943.70849   -378818.49147  22901660.9304   22901656.3554
       692.0004
   2239372.61049   1724432.31147  22599203.5234   22599198.0084
     -4088.1414
     -2494.19849     -5839.95948  21241074.7194   21241070.4454
       -79.4224
   -445404.98249   -338042.59946  24277213.6954   24277211.5984
      2226.0314
 04  9 17 21  9 45.0000000  0  7G 3G 8G13G19G23G27G28
    815869.76549    626695.07447  22941691.8914   22941688.8364
     -1627.5474
   -663626.25449   -516407.26247  22116438.6174   22116435.1884
      1055.3284
   1043162.60649    801936.54248  20497029.7664   20497024.8014
     -1992.0314
   -495265.71649   -386861.59347  22899696.8674   22899692.6954
       684.1564
   2300736.48949   1772248.28847  22610880.7974   22610875.2464
     -4093.7344
     -1279.59649     -4893.50848  21241305.7194   21241300.9574
       -82.6414
   -478770.03349   -364041.21446  24270864.2344   24270862.8524
      2222.5944
 04  9 17 21 10  0.0000000  0  7G 3G 8G13G19G23G27G28
    840357.64449    645776.55047  22946351.7894   22946348.8874
     -1637.8914
   -679433.08649   -528724.23547  22113430.7424   22113426.8524
      1051.8284
   1073108.67249    825271.15048  20502728.3134   20502723.2544
     -2001.1094
   -505471.81149   -394814.36547  22897754.8284   22897750.3134
       676.3284
   2362183.49149   1820129.03047  22622573.5314   22622568.3794
     -4099.5164
       -17.63049     -3910.14948  21241545.8444   21241541.4734
       -85.9374
   -512084.03449   -390000.05746  24264525.0554   24264522.9614
      2219.0164
 04  9 17 21 10 15.0000000  0  7G 3G 8G13G19G23G27G28
    865002.00249    664979.94347  22951041.8524   22951038.5554
     -1648.0474
   -695188.09449   -541000.83547  22110432.6804   22110428.8244
      1048.7664
   1103191.05049    848711.95748  20508452.7814   20508447.6604
     -2009.8914
   -515559.21649   -402674.65547  22895835.1174   22895830.8134
       668.7034
   2423715.90449   1868076.33947  22634282.8054   22634277.7344
     -4104.7504
      1294.34549     -2887.81848  21241795.1564   21241791.6094
       -88.9844
   -545344.27249   -415917.01046  24258195.4774   24258193.9654
      2215.7664
 04  9 17 21 10 30.0000000  0  7G 3G 8G13G19G23G27G28
    889798.56049    684301.95347  22955759.6414   22955757.1724
     -1658.2814
   -710895.16849   -553240.09947  22107443.6414   22107439.9304
      1045.4534
   1133405.46049    872255.65048  20514202.3674   20514197.3094
     -2018.7194
   -525531.71449   -410445.40647  22893937.6484   22893932.9964
       660.8444
   2485329.33249   1916086.75647  22646008.0004   22646002.3524
     -4110.3284
      2652.05849     -1829.85548  21242054.0704   21242049.5204
       -92.1724
   -578554.81449   -441795.24546  24251876.0944   24251874.2504
      2212.2194
 04  9 17 21 10 45.0000000  0  7G 3G 8G13G19G23G27G28
    914749.14049    703743.97547  22960508.0784   22960505.1414
     -1668.3124
   -726552.42549   -565440.53547  22104464.0474   22104460.3594
      1042.3134
   1163753.86349    895903.75548  20519977.6334   20519972.9614
     -2027.4844
   -535387.19849   -418124.97347  22892062.4064   22892057.2664
       653.2974
   2547025.59649   1964161.74147  22657748.0944   22657743.2504
     -4115.6254
      4057.39749      -734.76648  21242321.4144   21242317.2034
       -95.1094
   -611713.63249   -467633.15246  24245566.0164   24245564.1094
      2209.0314
 04  9 17 21 11  0.0000000  0  8G 3G 8G13G19G23G27G28G10
    939853.76349    723306.02447  22965285.6024   22965282.0634
     -1678.6724
   -742159.91149   -577602.19347  22101494.4384   22101490.1334
      1038.9534
   1194236.22449    919656.24748  20525778.3594   20525773.2504
     -2036.5314
   -545125.21949   -425713.01747  22890209.5164   22890204.3554
       645.4064
   2608804.52449   2012301.11147  22669504.3524   22669499.1644
     -4121.2194
      5510.60749       397.61248  21242597.8524   21242593.6214
       -98.3284
   -644820.31949   -493430.49246  24239266.0164   24239264.0704
      2205.5004
    -38751.65559    -30262.05156  24298784.5944   24298780.9454
       821.7034
 04  9 17 21 11 15.0010000  0  8G 3G 8G13G19G23G27G28G10
    965110.81749    742986.86547  22970091.5754   22970088.8844
     -1688.7344
   -757721.81549   -589728.32547  22098532.9744   22098529.2904
      1035.7974
   1224851.35149    943512.18748  20531604.1144   20531598.8024
     -2045.1874
   -554749.41549   -433212.36447  22888377.6694   22888372.8884
       637.8134
   2670666.81549   2060505.46947  22681276.4664   22681271.2084
     -4126.5164
      7008.55149      1564.85148  21242883.0524   21242879.0914
      -101.3284
   -677880.15849   -519191.27746  24232974.1614   24232972.9464
      2202.1724
    -51011.69849    -39815.35046  24296451.7634   24296448.1574
       812.9694
 04  9 17 21 11 30.0010000  0  8G 3G 8G13G19G23G27G28G10
    990518.51549    762785.06047  22974926.4974   22974923.5634
     -1699.2034
   -773234.30449   -601815.96547  22095581.2714   22095576.6384
      1032.2504
   1255596.75249    967469.64548  20537455.0524   20537449.4744
     -2054.4224
   -564256.71849   -440620.62147  22886568.3804   22886563.6264
       629.6094
   2732605.65549   2108769.46847  22693063.0834   22693057.5284
     -4132.2504
      8552.60949      2768.02248  21243176.5914   21243172.2394
      -104.7034
   -710887.05849   -544910.83847  24226693.3724   24226691.7314
      2198.4844
    -63139.63449    -49265.67046  24294143.5444   24294139.8104
       803.8444
 04  9 17 21 11 45.0010000  0  8G 3G 8G13G19G23G27G28G10
   1016075.18949    782699.36847  22979790.0524   22979786.9544
     -1708.6094
   -788701.78349   -613868.51747  22092637.4354   22092633.8684
      1029.7974
   1286471.09549    991527.57348  20543330.2634   20543324.7394
     -2062.5004
   -573650.61149   -447940.50447  22884780.7314   22884776.1424
       622.5784
   2794621.58849   2157093.53247  22704864.3174   22704858.9154
     -4136.8444
     10139.43849      4004.52248  21243478.8644   21243474.5054
      -107.0944
   -743846.42449   -570593.35246  24220422.0754   24220420.2594
      2195.8134
    -75139.47249    -58616.17546  24291860.0134   24291856.6814
       795.8284
 04  9 17 21 12  0.0010000  0  8G 3G 8G13G19G23G27G28G10
   1041779.16549    802728.43247  22984681.0524   22984678.1924
     -1718.9374
   -804126.01949   -625887.39148  22089702.4274   22089698.3414
      1026.3914
   1317472.94349   1015684.85648  20549229.3494   20549224.1694
     -2071.5004
   -582932.59049   -455173.18647  22883014.4114   22883009.3844
       614.6724
   2856712.86849   2205476.29847  22716679.5134   22716674.2004
     -4142.3754
     11767.70649      5273.30748  21243788.7314   21243784.5054
      -110.4224
   -776759.54849   -596239.82146  24214158.7084   24214156.5174
      2192.1564
    -87012.57149    -67867.91646  24289600.8414   24289597.4894
       786.8914
 04  9 17 21 12 15.0010000  0  8G 3G 8G13G19G23G27G28G10
   1067635.58749    822876.31047  22989601.5214   22989598.4584
     -1728.7344
   -819501.57649   -637868.32247  22086776.6064   22086772.9424
      1023.5004
   1348607.34849   1039945.43248  20555153.8804   20555148.6064
     -2079.9694
   -592097.07749   -462314.32247  22881270.4664   22881265.5564
       607.0944
   2918884.41849   2253921.63147  22728510.4664   22728505.5834
     -4147.3754
     13442.43149      6578.29648  21244107.1534   21244103.4074
      -113.0624
   -809621.10549   -621846.11547  24207904.8884   24207903.1464
      2189.1094
    -98753.49849    -77016.68546  24287365.5604   24287362.5954
       778.4064
 04  9 17 21 12 30.0010000  0  8G 3G 8G13G19G23G27G28G10
   1093640.37949    843139.79547  22994549.5444   22994547.1034
     -1738.3914
   -834832.54849   -649814.50647  22083859.2634   22083855.8964
      1020.7664
   1379870.27249   1064306.14648  20561103.1064   20561098.2314
     -2088.3124
   -601147.78849   -469366.79247  22879547.9814   22879543.5604
       599.7194
   2981131.89049   2302426.12147  22740356.4894   22740350.9504
     -4152.2194
     15159.66049      7916.40648  21244433.9274   21244429.7394
      -115.7504
   -842435.03749   -647415.36447  24201660.3964   24201658.7514
      2186.1564
   -110366.06149    -86065.45346  24285155.6694   24285152.8994
       769.9844
 04  9 17 21 12 45.0010000  0  8G 3G 8G13G19G23G27G28G10
   1119792.29049    863517.91847  22999526.4584   22999523.2434
     -1748.1414
   -850120.01249   -661726.80848  22080949.8174   22080946.0954
      1018.0004
   1411260.67749   1088766.19948  20567076.3334   20567071.3884
     -2096.6564
   -610085.69749   -476331.36447  22877847.6614   22877842.5214
       592.3914
   3043453.98949   2350988.75447  22752215.4584   22752209.8884
     -4157.0474
     16918.21149      9286.71148  21244768.8024   21244764.5674
      -118.3284
   -875202.26449   -672948.12147  24195424.7164   24195423.6304
      2183.2344
   -121851.39249    -95015.02746  24282969.7244   24282967.8064
       761.7504
 04  9 17 21 13  0.0010000  0  8G 3G 8G13G19G23G27G28G10
   1146090.99949    884010.42247  23004531.0444   23004528.1654
     -1757.9374
   -865364.26049   -673605.40847  22078049.0994   22078044.7514
      1015.0164
   1442778.27049   1113325.37048  20573074.2944   20573069.0634
     -2105.2504
   -618910.71749   -483207.97647  22876168.2394   22876163.3334
       584.7034
   3105850.44149   2399609.32147  22764089.1304   22764084.0524
     -4162.0624
     18718.07349     10689.20348  21245111.2314   21245107.1814
      -121.1874
   -907922.78049   -698444.54046  24189198.2244   24189196.2904
      2179.9534
   -133209.33649   -103865.41346  24280809.0834   24280806.1144
       753.0634
 04  9 17 21 13 15.0010000  0  8G 3G 8G13G19G23G27G28G10
   1172536.04749    904616.97147  23009563.4894   23009560.5324
     -1768.2034
   -880565.83049   -685450.76947  22075156.1384   22075152.3764
      1011.8134
   1474422.45749   1137983.17048  20579095.6304   20579090.8884
     -2114.1254
   -627623.20949   -489996.89547  22874510.1924   22874505.1734
       576.8444
   3168320.39749   2448287.17747  22775976.9584   22775971.7394
     -4167.3124
     20558.51549     12123.33148  21245461.5994   21245457.6924
      -124.3284
   -940597.00349   -723904.86847  24182980.3804   24182979.0714
      2176.5474
   -144440.24849   -112616.74646  24278672.4354   24278668.9934
       744.0164
 04  9 17 21 13 30.0010000  0  8G 3G 8G13G19G23G27G28G10
   1199128.64949    925338.48147  23014623.3414   23014620.9854
     -1777.6254
   -895723.20949   -697261.68747  22072271.8414   22072268.2864
      1009.1254
   1506194.63849   1162740.71848  20585142.0444   20585136.7474
     -2122.2664
   -636221.40949   -496696.75847  22872874.0364   22872868.8724
       569.5164
   3230865.07449   2497023.25047  22787878.8964   22787873.5674
     -4172.0474
     22441.08549     13590.27648  21245819.2634   21245815.2864
      -126.7344
   -973223.30949   -749327.85246  24176771.6774   24176770.3334
      2173.6094
   -155542.60849   -121267.92246  24276558.5524   24276556.3564
       736.0474
 04  9 17 21 13 45.0010000  0  8G 3G 8G13G19G23G27G28G10
   1225869.91849    946175.84347  23019712.3804   23019709.2594
     -1787.6874
   -910835.35449   -709037.37047  22069396.2394   22069392.3884
      1006.0004
   1538095.76449   1187598.74148  20591212.6924   20591207.5634
     -2131.0314
   -644704.00449   -503306.53747  22871259.9664   22871254.8174
       561.7504
   3293485.24649   2545818.15047  22799794.8884   22799789.9544
     -4177.1414
     24366.72649     15090.78648  21246185.8644   21246182.0604
      -129.7974
  -1005800.57349   -774712.62446  24170572.5214   24170570.3104
      2170.2034
   -166515.05449   -129817.89046  24274471.8564   24274467.9744
       727.2344
 04  9 17 21 14  0.0010000  0  8G 3G 8G13G19G23G27G28G10
   1252763.79849    967132.12147  23024829.7634   23024826.6424
     -1797.9224
   -925897.91849   -720774.41647  22066530.3174   22066525.9624
      1002.5314
   1570130.03649   1212560.51548  20597308.4194   20597303.0714
     -2139.9374
   -653066.50649   -509822.73147  22869668.2714   22869663.3684
       553.5634
   3356184.90049   2594674.98147  22811726.3414   22811721.5874
     -4182.6254
     26339.65049     16628.13448  21246561.5444   21246557.2284
      -133.0164
  -1038324.48049   -800055.85746  24164383.8024   24164381.5014
      2166.5474
   -177353.35149   -138263.28847  24272409.0754   24272406.0364
       718.1094
 04  9 17 21 14 15.0010000  0  8G 3G 8G13G19G23G27G28G10
   1279804.94949    988203.14847  23029975.6534   23029973.1064
     -1807.2034
   -940916.18249   -732476.93447  22063672.0914   22063667.7904
      1000.1564
   1602292.20849   1237621.93648  20603428.6694   20603423.7204
     -2147.9844
   -661313.88249   -516249.21747  22868098.4034   22868094.0564
       546.4384
   3418958.62049   2643589.53947  22823672.3494   22823666.9584
     -4186.9534
     28354.74349     18198.35148  21246945.1614   21246940.8064
      -135.3284
  -1070800.10149   -825361.40947  24158203.6774   24158201.7554
      2163.9224
   -188062.41849   -146608.01946  24270371.3724   24270367.8174
       710.0784
 04  9 17 21 14 30.0010000  0  8G 3G 8G13G19G23G27G28G10
   1306989.07549   1009385.60147  23035148.4274   23035145.9504
     -1817.1874
   -955894.77649   -744148.54147  22060821.5284   22060817.5754
       997.1414
   1634577.76749   1262779.51048  20609572.5834   20609567.2984
     -2156.5474
   -669450.32849   -522589.25547  22866550.7554   22866545.4704
       538.6094
   3481801.71649   2692558.13447  22835630.3494   22835625.2744
     -4191.9694
     30407.49149     19797.90748  21247335.5284   21247331.0834
      -138.2344
  -1103231.54349   -850632.57246  24152031.7634   24152029.7554
      2160.4384
   -198646.58849   -154855.40747  24268356.9194   24268353.4974
       701.3284
 04  9 17 21 14 45.0010000  0  8G 3G 8G13G19G23G27G28G10
   1334318.69049   1030681.40347  23040349.3494   23040346.5524
     -1827.0314
   -970830.76549   -755786.95347  22057979.4114   22057975.3534
       994.0944
   1666989.43349   1288035.36548  20615740.4114   20615735.1184
     -2165.1094
   -677472.81149   -528840.50847  22865024.0754   22865018.9504
       530.8134
   3544716.68549   2741582.74247  22847602.7474   22847597.9704
     -4196.8914
     32500.65049     21428.94748  21247733.5674   21247729.2284
      -141.0784
  -1135616.06649   -875867.19547  24145869.8724   24145867.4814
      2157.2814
   -209102.90849   -163003.14346  24266367.6064   24266363.9384
       692.6414
 04  9 17 21 15  0.0010000  0  8G 3G 8G13G19G23G27G28G10
   1361795.39249   1052091.83447  23045578.1144   23045575.3254
     -1836.7814
   -985722.71049   -767391.04348  22055145.5444   22055141.3644
       991.2974
   1699528.95649   1313390.83348  20621932.0444   20621927.0524
     -2173.6564
   -685379.43349   -535001.46547  22863519.1854   22863514.3064
       523.2194
   3607704.96849   2790664.49147  22859589.2864   22859584.0324
     -4201.7664
     34635.77949     23092.69448  21248139.9274   21248135.7744
      -143.8284
  -1167951.85149   -901063.79647  24139716.1924   24139713.8994
      2154.0004
   -219429.73449   -171050.04646  24264401.5134   24264398.8294
       684.0944
 04  9 17 21 15 15.0010000  0  8G 3G 8G13G19G23G27G28G10
   1389420.28049   1073617.74547  23050835.3104   23050832.1144
     -1846.3124
  -1000569.20349   -778959.71147  22052320.2864   22052316.6494
       988.5634
   1732197.31049   1338846.68848  20628148.8884   20628143.8804
     -2181.9224
   -693168.81549   -541071.06347  22862036.9194   22862031.7314
       515.6884
   3670767.54949   2839804.12247  22871590.1384   22871585.0214
     -4206.3124
     36814.21849     24790.19848  21248554.6144   21248550.5484
      -146.4224
  -1200237.52049   -926221.37447  24133572.5214   24133569.9854
      2150.9384
   -229625.52849   -178994.81347  24262461.3724   24262458.8104
       675.5634
 04  9 17 21 15 30.0010000  0  8G 3G 8G13G19G23G27G28G10
   1417190.24649   1095256.69247  23056119.6694   23056117.0564
     -1856.1564
  -1015373.08149   -790495.19248  22049503.1464   22049498.9544
       985.4844
   1764991.61849   1364400.70848  20634389.7714   20634384.1494
     -2190.5164
   -700843.58649   -547051.35847  22860576.5284   22860571.2284
       507.8444
   3733901.26849   2888999.19547  22883603.5134   22883598.8964
     -4211.2814
     39033.04749     26519.15448  21248976.7784   21248972.3884
      -149.3284
  -1232475.82149   -951342.01746  24127437.0134   24127435.0174
      2147.5944
   -239693.09349   -186839.65646  24260545.2784   24260542.9234
       666.8754
 04  9 17 21 15 45.0010000  0  8G 3G 8G13G19G23G27G28G10
   1445108.10749   1117010.86747  23061431.8644   23061429.0134
     -1866.0624
  -1030131.59149   -801995.30248  22046694.9974   22046690.9154
       982.4534
   1797914.60849   1390054.98248  20640654.5524   20640649.4154
     -2199.1094
   -708400.73049   -552939.98947  22859138.2944   22859133.0714
       499.9534
   3797108.73849   2938251.70947  22895631.2554   22895626.5284
     -4216.2194
     41294.94249     28281.67648  21249407.4274   21249403.2124
      -152.1874
  -1264663.82849   -976423.51946  24121312.3644   24121309.9504
      2144.3594
   -249629.44249   -194582.28546  24258655.2944   24258651.5874
       658.0944
 04  9 17 21 16  0.0010000  0  8G 3G 8G13G19G23G27G28G10
   1473169.98749   1138877.28747  23066772.5364   23066769.0634
     -1875.1254
  -1044848.40249   -813462.92247  22043894.0604   22043890.3644
       980.2194
   1830962.45749   1415806.53848  20646943.2084   20646938.3374
     -2206.8124
   -715843.74449   -558739.69047  22857722.0604   22857716.7084
       492.8284
   3860385.93049   2987558.58347  22907672.6304   22907668.0244
     -4220.2664
     43596.26849     30074.93148  21249845.1064   21249840.8604
      -154.2814
  -1296805.19549  -1001468.60547  24115196.1224   24115193.6064
      2141.7504
   -259438.21349   -202225.44947  24256788.4424   24256785.4894
       650.2034
 04  9 17 21 16 15.0010000  0  8G 3G 8G13G19G23G27G28G10
   1501375.11349   1160855.30847  23072139.3884   23072136.5994
     -1884.7814
  -1059524.40649   -824898.74148  22041101.2864   22041097.7784
       977.3754
   1864134.48449   1441654.88148  20653255.6384   20653250.7904
     -2215.2664
   -723173.07349   -564450.80147  22856327.5754   22856321.7984
       485.1414
   3923732.03649   3036919.14747  22919727.2004   22919722.4384
     -4225.1094
     45936.30949     31898.34548  21250290.3174   21250285.8964
      -156.9694
  -1328900.41549  -1026477.79447  24109088.2474   24109085.5564
      2138.4844
   -269119.81049   -209769.51446  24254945.9584   24254943.2864
       641.6094
 04  9 17 21 16 30.0010000  0  8G 3G 8G13G19G23G27G28G10
   1529725.33549   1182946.41147  23077533.7634   23077531.5484
     -1894.8914
  -1074157.57749   -836301.20348  22038316.8494   22038313.1304
       973.9844
   1897432.57149   1467601.44148  20659591.8964   20659586.8804
     -2224.1254
   -730386.42949   -570071.54847  22854954.7004   22854949.4664
       476.9694
   3987148.66149   3086334.64947  22931794.8334   22931790.0284
     -4230.2664
     48317.08849     33753.50948  21250743.4114   21250739.1464
      -160.1874
  -1360947.32349  -1051449.30347  24102989.2714   24102987.3844
      2134.8444
   -278672.17149   -217212.91746  24253128.6534   24253125.4464
       632.4064
 04  9 17 21 16 45.0010000  0  8G 3G 8G13G19G23G27G28G10
   1558218.22649   1205148.67147  23082955.5754   23082952.9934
     -1904.2194
  -1088749.91249   -847671.83448  22035539.7474   22035536.2314
       971.5164
   1930854.36049   1493644.39048  20665951.9584   20665946.8764
     -2232.2504
   -737485.92649   -575603.58047  22853603.3104   22853598.3994
       469.4844
   4050633.26649   3135803.12747  22943875.8104   22943870.8764
     -4234.6094
     50736.25749     35638.58348  21251203.8804   21251199.3134
      -162.5474
  -1392948.07349  -1076384.87947  24096900.1854   24096897.7634
      2131.8914
   -288097.41949   -224557.27346  24251335.0524   24251331.7554
       624.1724
 04  9 17 21 17  0.0010000  0  8G 3G 8G13G19G23G27G28G10
   1586856.53749   1227464.24847  23088406.0364   23088402.5754
     -1914.2664
  -1103298.63449   -859008.47848  22032771.4744   22032767.8334
       968.2344
   1964402.80949   1519786.04648  20672336.0604   20672330.7354
     -2240.9224
   -744468.40549   -581044.41747  22852274.6534   22852269.5284
       461.4844
   4114188.59349   3185326.70547  22955970.9504   22955965.0324
     -4239.5474
     53196.77649     37555.87748  21251672.4354   21251667.8804
      -165.5784
  -1424899.62749  -1101282.10846  24090819.6534   24090817.4814
      2128.2814
   -297392.46449   -231800.13546  24249566.4814   24249563.1224
       615.1884
 04  9 17 21 17 15.0010000  0  8G 3G 8G13G19G23G27G28G10
   1615637.43949   1249890.92147  23093883.4034   23093879.8804
     -1923.4534
  -1117806.60449   -870313.36948  22030010.6304   22030006.6144
       965.7974
   1998075.10749   1546024.19548  20678743.4974   20678738.7004
     -2248.9534
   -751336.35549   -586396.01647  22850967.5524   22850962.4154
       454.0164
   4177811.73149   3234903.14647  22968076.9354   22968072.8414
     -4243.8594
     55695.81949     39503.19248  21252147.6854   21252143.5404
      -167.9064
  -1456804.55449  -1126142.97147  24084748.6384   24084746.6104
      2125.3444
   -306559.97349   -238943.64046  24247821.5054   24247818.5054
       606.8284
 04  9 17 21 17 30.0010000  0  8G 3G 8G13G19G23G27G28G10
   1644563.17149   1272430.48347  23099386.8494   23099384.1734
     -1932.8914
  -1132271.32549   -881584.56048  22027258.1144   22027254.1774
       963.1884
   2031873.41949   1572360.54948  20685175.1614   20685170.0674
     -2257.0624
   -758087.19249   -591656.34547  22849682.9744   22849678.2284
       446.4844
   4241504.71749   3284534.00647  22980197.6464   22980192.8564
     -4248.2664
     58235.70949     41482.33848  21252631.1854   21252626.6774
      -170.4064
  -1488660.56049  -1150965.74847  24078686.0914   24078683.7284
      2122.5004
   -315597.43849   -245985.86246  24246102.0674   24246098.5404
       598.4224
 04  9 17 21 17 45.0010000  0  8G 3G 8G13G19G23G27G28G10
   1673633.56049   1295082.73847  23104918.7634   23104916.2044
     -1942.7664
  -1146692.97549   -892822.19148  22024513.8254   22024509.6494
       959.9694
   2065797.68049   1598795.02848  20691630.8564   20691626.3964
     -2265.8284
   -764720.82449   -596825.36347  22848420.7394   22848415.8214
       438.3754
   4305267.10849   3334218.93047  22992331.4664   22992326.6104
     -4253.2034
     60816.44749     43493.30948  21253122.0604   21253117.4034
      -173.3594
  -1520467.39149  -1175750.21247  24072632.9504   24072631.2554
      2118.7504
   -324504.81449   -252926.61046  24244406.2474   24244403.8174
       589.4384
 04  9 17 21 18  0.0010000  0  8G 3G 8G13G19G23G27G28G10
   1702847.21449   1317846.62147  23110477.4114   23110475.3254
     -1951.9844
  -1161072.88549   -904027.30148  22021777.4114   22021772.8724
       957.6564
   2099846.37649   1625326.47448  20698109.8884   20698104.9074
     -2273.6564
   -771238.40849   -601903.96147  22847180.3024   22847175.4424
       430.9844
   4369097.33149   3383956.72447  23004477.3804   23004472.8964
     -4257.2034
     63436.61349     45534.99848  21253620.6304   21253616.1464
      -175.5944
  -1552226.44449  -1200497.44546  24066590.0834   24066587.3884
      2116.0164
   -333283.30949   -259767.03147  24242736.4894   24242733.1964
       581.3754
 04  9 17 21 18 15.0010000  0  8G 3G 8G13G19G23G27G28G10
   1732198.82349   1340718.02347  23116063.5994   23116060.4934
     -1961.3914
  -1175416.26949   -915203.94448  22019047.6534   22019043.7004
       954.9694
   2134014.30949   1651950.83648  20704611.8804   20704607.0634
     -2281.9534
   -777644.76049   -606895.86647  22845961.2004   22845956.4154
       423.2664
   4432990.12349   3433743.28447  23016635.9504   23016631.2164
     -4261.6724
     66091.05149     47603.40648  21254125.5834   21254121.3334
      -178.2194
  -1583942.66149  -1225211.27147  24060554.5994   24060552.1034
      2112.9694
   -341937.86549   -266510.79646  24241089.2314   24241086.1924
       572.8284
 04  9 17 21 18 30.0010000  0  8G 3G 8G13G19G23G27G28G10
   1761694.34449   1363701.56747  23121675.4194   23121673.3024
     -1970.9694
  -1189717.10549   -926347.43748  22016326.3724   22016322.6064
       952.1094
   2168307.61349   1678672.89048  20711137.8644   20711132.7164
     -2290.2194
   -783933.58249   -611796.19247  22844764.4664   22844759.2514
       415.4694
   4496951.26249   3483583.08147  23028807.5914   23028802.7944
     -4266.2504
     68785.94849     49703.33548  21254638.4744   21254633.8534
      -180.8444
  -1615609.66849  -1249886.78647  24054528.7164   24054526.2354
      2109.5944
   -350462.12349   -273153.12446  24239468.3644   24239464.1574
       564.1254
 04  9 17 21 18 45.0010000  0  8G 3G 8G13G19G23G27G28G10
   1791335.37349   1386798.48547  23127316.2314   23127313.7474
     -1981.1874
  -1203973.41749   -937456.24048  22013613.5674   22013609.1964
       948.6884
   2202727.97049   1705493.95248  20717688.0444   20717682.9544
     -2299.2344
   -790102.83049   -616603.35647  22843590.4424   22843585.2164
       407.0164
   4560982.34149   3533477.39647  23040992.6534   23040987.4814
     -4271.3444
     71523.04849     51836.13948  21255159.4504   21255154.8294
      -184.1254
  -1647225.70249  -1274522.58847  24048511.8884   24048509.2944
      2105.7974
   -358854.27849   -279692.43446  24237871.1854   24237867.2394
       554.7974
 04  9 17 21 19  0.0010000  0  8G 3G 8G13G19G23G27G28G10
   1821122.45649   1410009.19447  23132985.0284   23132982.3684
     -1990.5314
  -1218184.61449   -948529.88248  22010909.4504   22010905.3564
       946.0314
   2237275.94649   1732414.44848  20724262.0364   20724257.2354
     -2307.3284
   -796151.68549   -621316.69747  22842439.4894   22842434.1774
       399.3444
   4625083.78349   3583426.52747  23053190.5214   23053185.4624
     -4275.6724
     74303.00349     54002.35448  21255688.6224   21255684.1534
      -186.6564
  -1678789.87949  -1299117.95847  24042505.8724   24042503.2984
      2102.6564
   -367113.65149   -286128.24146  24236298.9034   24236295.7744
       546.2974
 04  9 17 21 19 15.0010000  0  8G 3G 8G13G19G23G27G28G10
   1851053.65149   1433332.22147  23138681.0994   23138677.8334
     -2000.2504
  -1232352.61349   -959569.86048  22008213.3724   22008208.6884
       943.1884
   2271949.64549   1759432.92248  20730860.3414   20730855.1304
     -2315.7664
   -802081.71449   -625937.45247  22841311.0604   22841305.5564
       391.3914
   4689253.36649   3633428.75247  23065401.8414   23065396.6654
     -4280.2194
     77123.86049     56200.42348  21256225.2864   21256220.9894
      -189.3444
  -1710304.07249  -1323674.35447  24036508.4664   24036506.0604
      2099.2664
   -375241.86649   -292461.95046  24234752.3884   24234748.5404
       537.5634
 04  9 17 21 19 30.0010000  0  8G 3G 8G13G19G23G27G28G10
   1881124.30049   1456763.89947  23144403.1144   23144399.5954
     -2009.5164
  -1246481.61349   -970579.45548  22005524.6144   22005520.3994
       940.5004
   2306744.45049   1786545.74848  20737481.7244   20737476.7004
     -2323.9224
   -807897.19949   -630468.94847  22840204.4424   22840199.2164
       383.6884
   4753486.43049   3683480.43947  23077625.2004   23077620.3104
     -4284.5004
     79981.21849     58426.93948  21256769.2004   21256764.6694
      -191.9064
  -1741772.53149  -1348195.17447  24030520.0214   24030518.2314
      2096.1094
   -383243.11949   -298696.69046  24233229.8564   24233225.8884
       528.9224
 04  9 17 21 19 45.0010000  0  8G 3G 8G13G19G23G27G28G10
   1911339.32849   1480308.08647  23150151.9194   23150149.6344
     -2019.3594
  -1260566.92749   -981555.00148  22002844.2394   22002839.6304
       937.4224
   2341665.38449   1813756.86248  20744126.9274   20744121.6884
     -2332.3754
   -813592.86449   -634907.08347  22839120.5214   22839114.7824
       375.5164
   4817787.70849   3733585.29447  23089860.7394   23089856.0954
     -4289.1094
     82880.08649     60685.80648  21257320.5524   21257315.7744
      -194.8444
  -1773190.13149  -1372676.31847  24024541.3104   24024539.0914
      2092.6414
   -391112.36849   -304828.58546  24231732.0524   24231729.1734
       520.0164
 04  9 17 21 20  0.0010000  0  8G 3G 8G13G19G23G27G28G10
   1941698.45549   1503964.55247  23155929.9354   23155926.3024
     -2028.7974
  -1274608.51449   -992496.48648  22000172.1694   22000167.8964
       934.6414
   2376712.19249   1841066.06148  20750795.8104   20750790.6534
     -2340.6874
   -819168.71649   -639251.85747  22838059.8104   22838054.0834
       367.7344
   4882156.86249   3783743.01547  23102109.4274   23102105.5634
     -4293.6254
     85820.32649     62976.91648  21257880.3334   21257875.5174
      -197.4534
  -1804556.90449  -1397117.87047  24018572.5754   24018570.0284
      2089.4064
   -398849.71249   -310857.66247  24230259.2164   24230256.2714
       511.3914
 04  9 17 21 20 15.0010000  0  8G 3G 8G13G19G23G27G28G10
   1972199.25949   1527731.42947  23161734.4894   23161730.7284
     -2037.7974
  -1288608.79449  -1003405.79248  21997507.7864   21997503.7204
       932.2974
   2411882.59349   1868471.57048  20757488.7714   20757483.4234
     -2348.4844
   -824626.86049   -643504.90847  22837020.7634   22837015.4194
       360.2814
   4946591.43949   3833951.73247  23114371.8024   23114367.0364
     -4297.4694
     88799.66849     65298.48348  21258447.2714   21258442.6464
      -199.6414
  -1835874.88849  -1421521.41447  24012612.8174   24012610.7434
      2086.5634
   -406457.23049   -316785.55546  24228812.0754   24228808.2394
       503.2344
 04  9 17 21 20 30.0010000  0  8G 3G 8G13G19G23G27G28G10
   2002840.20149   1551607.50447  23167564.7784   23167561.8844
     -2047.3444
  -1302569.19349  -1014283.99748  21994851.3104   21994846.9894
       929.3914
   2447174.96749   1895972.12048  20764204.5674   20764199.8174
     -2356.8444
   -829968.33149   -647667.03747  22836004.2784   22835998.8884
       352.2194
   5011089.66449   3884210.03647  23126645.1464   23126640.1384
     -4301.9374
     91816.70549     67649.43448  21259021.2554   21259016.6614
      -202.3444
  -1867145.43049  -1445887.96047  24006661.9424   24006659.6184
      2083.1414
   -413936.22249   -322613.37347  24227388.2634   24227385.7354
       494.3594
 04  9 17 21 20 45.0010000  0  8G 3G 8G13G19G23G27G28G10
   2033625.49949   1575596.05347  23173422.9814   23173419.8884
     -2057.0784
  -1316485.25949  -1025127.67848  21992203.1774   21992199.0134
       926.3284
   2482593.51349   1923570.98548  20770944.4114   20770939.4314
     -2365.4374
   -835188.81349   -651734.88847  22835010.7714   22835005.0364
       344.0314
   5075655.57549   3934521.10247  23138931.6924   23138927.0174
     -4306.6094
     94875.66049     70033.03748  21259603.3254   21259599.1814
      -205.2814
  -1898364.16349  -1470214.19247  24000721.5134   24000719.0244
      2079.6094
   -421282.30849   -328337.55746  24225990.2394   24225987.6064
       485.2664
 04  9 17 21 21  0.0010000  0  8G 3G 8G13G19G23G27G28G10
   2064554.89849   1599696.88347  23179308.6924   23179305.4584
     -2066.7344
  -1330356.92549  -1035936.74448  21989563.4504   21989559.4154
       923.3284
   2518138.35249   1951268.26548  20777708.3964   20777703.2714
     -2373.8594
   -840287.96449   -655708.21547  22834040.1384   22834034.8254
       335.8594
   5140288.89249   3984884.68247  23151231.1854   23151226.4074
     -4311.1094
     97976.57049     72449.33948  21260193.1924   21260188.8534
      -208.0784
  -1929530.79949  -1494499.81847  23994790.7394   23994788.2434
      2075.9694
   -428495.23749   -333958.00746  24224618.4274   24224614.9854
       476.5474
 04  9 17 21 21 15.0010000  0  8G 3G 8G13G19G23G27G28G10
   2095625.95049   1623908.09747  23185220.7314   23185218.0794
     -2076.5314
  -1344186.79249  -1046713.25348  21986931.6384   21986927.7314
       920.1414
   2553807.03649   1979062.03548  20784496.0284   20784490.9354
     -2382.4694
   -845267.93749   -659588.66547  22833092.5754   22833087.3104
       327.5634
   5204987.04949   4035298.77247  23163543.1774   23163538.1734
     -4315.7814
    101117.15549     74896.55648  21260791.0134   21260786.7594
      -211.1874
  -1960647.75249  -1518746.67747  23988869.2714   23988866.7714
      2072.3754
   -435577.33949   -339476.54746  24223270.1464   24223266.9464
       467.3134
 04  9 17 21 21 30.0010000  0  8G 3G 8G13G19G23G27G28G10
   2126834.98249   1648226.82547  23191159.8494   23191157.0524
     -2085.0474
  -1357978.26349  -1057459.83748  21984307.1384   21984303.0324
       918.4224
   2589595.70349   2006949.30748  20791306.4584   20791301.5054
     -2389.6564
   -850132.14149   -663378.91347  22832167.0524   22832161.9424
       320.6254
   5269746.32449   4085760.48847  23175865.4034   23175861.2674
     -4319.1094
    104293.66549     77371.75948  21261395.5674   21261390.6534
      -212.7034
  -1991718.34049  -1542957.46547  23982956.4034   23982953.8844
      2070.0474
   -442531.96749   -344895.71946  24221946.3964   24221943.7904
       459.5784
 04  9 17 21 21 45.0010000  0  8G 3G 8G13G19G23G27G28G10
   2158181.23549   1672652.48247  23197125.0364   23197122.5674
     -2094.4534
  -1371731.97349  -1068177.00148  21981689.9504   21981686.1574
       915.5634
   2625503.75849   2034929.60648  20798139.4664   20798134.7004
     -2397.9374
   -854880.90549   -667079.20547  22831263.0054   22831258.3294
       312.5944
   5334565.76449   4136269.09347  23188200.9194   23188196.0214
     -4323.4064
    107505.70549     79874.65548  21262006.6854   21262002.0134
      -215.4534
  -2022743.03249  -1567132.46647  23977052.9114   23977050.0284
      2066.6564
   -449359.51849   -350215.86747  24220647.2944   24220644.4504
       450.7974
 04  9 17 21 22  0.0010000  0  8G 3G 8G13G19G23G27G28G10
   2189669.06349   1697188.43747  23203116.9034   23203114.1144
     -2103.7974
  -1385443.48549  -1078861.28048  21979080.8024   21979076.5994
       912.7814
   2661535.60649   2063006.36248  20804996.2004   20804991.2044
     -2406.1254
   -859509.41249   -670685.79247  22830382.2944   22830377.0324
       304.6254
   5399449.62749   4186827.89847  23200547.8564   23200543.2864
     -4327.6414
    110757.68749     82408.67048  21262625.6144   21262621.1654
      -218.0164
  -2053717.26049  -1591268.15447  23971158.4034   23971155.2984
      2063.4064
   -456055.46949   -355433.47547  24219373.3174   24219370.4744
       442.1254
 04  9 17 21 22 15.0010000  0  8G 3G 8G13G19G23G27G28G10
   2221302.64549   1721837.99647  23209136.5214   23209133.6924
     -2113.7814
  -1399108.17649  -1089509.07148  21976480.3964   21976476.7514
       909.3594
   2697695.56349   2091182.95448  20811877.1144   20811872.3334
     -2414.9844
   -864013.22249   -674195.21847  22829525.3804   22829519.9424
       296.0784
   5464402.00849   4237440.10447  23212907.7944   23212903.5794
     -4332.4694
    114053.96349     84977.20248  21263253.0214   21263248.2354
      -221.2664
  -2084636.50149  -1615360.99947  23965274.8494   23965272.1464
      2059.4694
   -462615.29649   -360545.03247  24218125.1854   24218122.0674
       432.7504
 04  9 17 21 22 30.0010000  0  8G 3G 8G13G19G23G27G28G10
   2253077.83049   1746597.88947  23215183.5834   23215180.0914
     -2123.1094
  -1412730.33249  -1100123.72048  21973888.1224   21973884.0364
       906.6254
   2733979.47449   2119456.12648  20818781.8254   20818776.7044
     -2423.1564
   -868396.12849   -677610.41347  22828691.3564   22828685.8294
       288.0474
   5529418.59549   4288102.32047  23225280.3494   23225275.6144
     -4336.6564
    117390.47549     87577.09248  21263887.5214   21263883.0364
      -223.9064
  -2115504.61849  -1639414.00547  23959400.2314   23959397.8024
      2056.0784
   -469042.94949   -365553.59547  24216902.2714   24216898.8134
       423.9534
 04  9 17 21 22 45.0010000  0  8G 3G 8G13G19G23G27G28G10
   2284993.14949   1771466.96347  23221256.6774   23221253.6144
     -2132.1724
  -1426311.15949  -1110706.16748  21971303.9504   21971299.3724
       904.2034
   2770386.01149   2147824.85848  20825709.6924   20825704.3294
     -2431.0004
   -872659.18049   -680932.24347  22827879.9114   22827874.5994
       280.4224
   5594497.84049   4338813.38147  23237664.1774   23237660.0134
     -4340.5474
    120766.00849     90207.38548  21264529.9664   21264525.3254
      -226.1094
  -2146322.91249  -1663428.18047  23953535.7864   23953533.4234
      2053.1724
   -475339.65349   -370460.09947  24215703.3414   24215700.6654
       415.5944
 04  9 17 21 23  0.0010000  0  8G 3G 8G13G19G23G27G28G10
   2317045.23949   1796442.63547  23227356.3334   23227352.8804
     -2141.7664
  -1439853.81649  -1121258.86548  21968726.8414   21968722.4544
       901.1564
   2806911.86449   2176286.56048  20832660.0134   20832655.4114
     -2439.4224
   -876805.49949   -684163.10447  22827091.0364   22827085.6694
       272.1254
   5659636.53149   4389570.74747  23250060.3564   23250055.1614
     -4344.8914
    124177.36649     92865.58648  21265179.2714   21265175.0014
      -228.9694
  -2177094.31049  -1687405.82347  23947680.4114   23947677.2944
      2049.4384
   -481508.28549   -375266.85147  24214529.9354   24214526.8104
       406.5944
 04  9 17 21 23 15.0010000  0  8G 3G 8G13G19G23G27G28G10
   2349239.53149   1821529.08647  23233482.4274   23233479.2674
     -2150.7974
  -1453352.73649  -1131777.49848  21966158.1534   21966153.8804
       898.6254
   2843562.58349   2204845.55048  20839634.8174   20839629.9744
     -2447.3914
   -880829.17049   -687298.39647  22826325.1614   22826320.1854
       264.3594
   5724839.82749   4440378.46147  23262467.4114   23262462.9584
     -4348.8444
    127630.08849     95556.03548  21265836.1614   21265832.1424
      -231.3444
  -2207813.11649  -1711342.48847  23941834.6144   23941831.8724
      2046.3284
   -487543.32249   -379969.43547  24213381.8884   24213378.6344
       398.0474
 04  9 17 21 23 30.0010000  0  8G 3G 8G13G19G23G27G28G10
   2381572.66349   1846723.74847  23239634.8104   23239632.2164
     -2160.1254
  -1466811.07549  -1142264.49448  21963596.8884   21963592.9854
       895.9384
   2880334.85549   2233499.27348  20846632.1924   20846627.0214
     -2455.5004
   -884733.17749   -690340.43947  22825582.3414   22825577.0244
       256.2814
   5790104.19349   4491233.75047  23274886.9744   23274882.4354
     -4353.0164
    131120.95249     98276.19648  21266500.6224   21266496.2714
      -233.9224
  -2238482.40949  -1735240.57447  23935998.3024   23935995.3994
      2042.9694
   -493447.77849   -384570.29647  24212258.4664   24212254.5404
       389.3134
 04  9 17 21 23 45.0010000  0  8G 3G 8G13G19G23G27G28G10
   2414048.23449   1872029.36747  23245815.1854   23245812.5444
     -2169.4694
  -1480225.27749  -1152717.10348  21961044.2004   21961040.9314
       893.1414
   2917232.18649   2262250.42748  20853653.6694   20853649.0284
     -2463.7504
   -888513.71149   -693286.27347  22824862.7164   22824857.4194
       248.2664
   5855433.10549   4542139.34447  23287319.6304   23287314.1184
     -4357.0624
    134653.83049    101029.09148  21267172.8254   21267168.3214
      -236.5944
  -2269098.57849  -1759097.23547  23930172.1854   23930169.8494
      2039.5784
   -499217.95849   -389066.51547  24211159.6144   24211156.6574
       380.5784
 04  9 17 21 24  0.0010000  0  8G 3G 8G13G19G23G27G28G10
   2446657.62549   1897439.28847  23252019.9274   23252017.0754
     -2178.6254
  -1493603.40249  -1163141.59948  21958498.2634   21958493.9314
       890.4384
   2954246.10849   2291092.45248  20860696.9114   20860692.0714
     -2471.7034
   -892179.03049   -696142.33747  22824165.4744   22824159.9274
       240.2814
   5920817.87049   4593088.47147  23299761.4814   23299756.7124
     -4361.0944
    138219.97149    103807.90148  21267851.2634   21267847.1814
      -239.1094
  -2299669.80949  -1782918.93147  23924354.8334   23924352.2244
      2036.2974
   -504862.05149   -393464.53547  24210085.8174   24210082.8334
       371.9224
 04  9 17 21 24 15.0010000  0  8G 3G 8G13G19G23G27G28G10
   2479412.39649   1922962.49647  23258252.5054   23258250.5714
     -2188.6254
  -1506933.87449  -1173528.98448  21955961.6774   21955957.9814
       887.0004
   2991388.28949   2320034.41348  20867765.0364   20867759.9624
     -2480.5164
   -895717.11649   -698899.26247  22823492.2714   22823486.7314
       231.4844
   5986269.95049   4644090.02947  23312215.7864   23312211.6654
     -4365.8914
    141831.40849    106622.01348  21268538.9274   21268534.7284
      -242.3914
  -2330184.10949  -1806696.26147  23918547.8024   23918545.0484
      2032.2814
   -510368.17049   -397755.01247  24209039.2314   24209034.9704
       362.3284
 04  9 17 21 24 30.0010000  0  8G 3G 8G13G19G23G27G28G10
   2512308.31749   1948595.66747  23264513.6614   23264510.1534
     -2197.7034
  -1520220.94649  -1183882.51448  21953433.3804   21953429.7004
       884.4694
   3028654.48949   2349073.00048  20874856.3964   20874851.9314
     -2488.4064
   -899131.84249   -701560.04847  22822842.2394   22822836.9154
       223.6094
   6051785.02349   4695140.67247  23324683.8174   23324678.9114
     -4369.6564
    145483.74649    109467.99048  21269234.0284   21269229.8064
      -244.7344
  -2360645.65949  -1830432.44547  23912751.0994   23912748.5714
      2029.1564
   -515740.45049   -401941.17047  24208015.9274   24208012.4934
       353.7814
 04  9 17 21 24 45.0010000  0  8G 3G 8G13G19G23G27G28G10
   2545345.78849   1974339.14147  23270799.1854   23270797.0054
     -2207.4534
  -1533464.08449  -1194201.84448  21950913.5364   21950909.3684
       881.1884
   3066045.22749   2378208.62948  20881971.6854   20881966.9664
     -2497.1094
   -902422.54149   -704124.19247  22822216.2784   22822210.1694
       215.0164
   6117363.35449   4746240.62447  23337162.7314   23337157.8924
     -4374.1724
    149177.85549    112346.52748  21269936.6384   21269931.8174
      -247.8594
  -2391053.62649  -1854126.91747  23906964.8024   23906961.7594
      2025.1564
   -520978.14349   -406022.49447  24207019.0604   24207015.8804
       344.4064
 04  9 17 21 25  0.0010000  0  8G 3G 8G13G19G23G27G28G10
   2578524.21049   2000192.47447  23277113.0914   23277110.9854
     -2216.5004
  -1546663.58949  -1204487.14548  21948401.4504   21948397.4974
       878.5784
   3103559.86149   2407440.81048  20889110.6384   20889105.8604
     -2505.0164
   -905589.43649   -706591.86647  22821613.4814   22821608.0054
       207.1094
   6183004.35949   4797389.41747  23349654.6614   23349648.8104
     -4377.9844
    152913.12049    115257.12948  21270647.4274   21270643.3684
      -250.2814
  -2421408.39549  -1877779.91147  23901188.6614   23901186.0244
      2021.9384
   -526081.61949   -409999.25847  24206048.1464   24206044.7434
       335.9064
 04  9 17 21 25 15.0010000  0  8G 3G 8G13G19G23G27G28G10
   2611842.92949   2026155.10947  23283454.2314   23283451.0994
     -2226.1564
  -1559820.05749  -1214738.92748  21945897.8024   21945893.6964
       875.4224
   3141197.98449   2436769.20748  20896272.7784   20896268.1964
     -2513.5784
   -908632.78549   -708963.27947  22821034.3174   22821028.3924
       198.5164
   6248707.17249   4848586.34347  23362156.2244   23362151.5874
     -4382.5004
    156689.17949    118199.52548  21271366.0754   21271361.6774
      -253.2814
  -2451710.31849  -1901391.73147  23895422.1304   23895419.3064
      2018.0314
   -531051.23049   -413871.65347  24205102.6464   24205098.8924
       326.6564
 04  9 17 21 25 30.0010000  0  8G 3G 8G13G19G23G27G28G10
   2645301.66849   2052226.85847  23289820.2784   23289817.8994
     -2234.7974
  -1572933.62949  -1224957.28548  21943402.1304   21943398.5284
       873.1564
   3178959.19649   2466193.52248  20903458.3494   20903453.3104
     -2521.1414
   -911552.47849   -711238.33047  22820478.5914   22820473.3844
       190.8754
   6314471.43349   4899831.17447  23374670.9354   23374666.4744
     -4386.0314
    160505.78949    121173.50348  21272092.4034   21272087.7164
      -255.3754
  -2481959.37049  -1924962.34547  23889665.9664   23889663.3104
      2015.2034
   -535886.95749   -417639.76747  24204182.2944   24204178.3724
       318.3134
 04  9 17 21 25 45.0010000  0  8G 3G 8G13G19G23G27G28G10
   2678895.77949   2078404.10447  23296214.5914   23296211.0754
     -2243.9694
  -1586008.68249  -1235145.60848  21940914.3414   21940910.6424
       870.4534
   3216839.01649   2495710.25848  20910666.6144   20910661.8254
     -2529.2034
   -914352.75049   -713420.33047  22819945.6774   22819940.1814
       182.8284
   6380292.52449   4951120.28947  23387196.5994   23387192.0604
     -4389.8754
    164358.55949    124175.67248  21272825.3884   21272820.8024
      -257.9534
  -2512159.89549  -1948495.15647  23883918.8494   23883915.7634
      2011.8914
   -540593.14749   -421306.93347  24203286.5134   24203283.5484
       309.5474
 04  9 17 21 26  0.0010000  0  8G 3G 8G13G19G23G27G28G10
   2712632.35649   2104692.32047  23302632.9034   23302630.8104
     -2253.7194
  -1599037.75749  -1245298.12748  21938434.7714   21938430.9234
       867.1884
   3254844.51049   2525324.92348  20917899.2244   20917894.0284
     -2537.7504
   -917026.36149   -715503.64147  22819436.5604   22819431.3454
       174.1254
   6446177.28449   5002459.00247  23399734.5914   23399729.9074
     -4394.2814
    168254.69249    127211.62348  21273566.6774   21273562.4154
      -261.0004
  -2542304.58149  -1971984.46647  23878182.1534   23878179.7044
      2008.0004
   -545162.60449   -424867.53947  24202416.9034   24202413.6964
       300.1564
 04  9 17 21 26 15.0010000  0  8G 3G 8G13G19G23G27G28G10
   2746510.79549   2131091.13047  23309081.3724   23309077.3454
     -2263.2194
  -1612021.44849  -1255415.27148  21935963.8724   21935959.9814
       864.0314
   3292975.15349   2555037.10148  20925154.9974   20925150.0834
     -2546.2504
   -919573.39549   -717488.31347  22818952.4274   22818946.6494
       165.5314
   6512125.14949   5053846.90947  23412284.2784   23412279.3804
     -4398.6254
    172193.86349    130281.11948  21274316.6464   21274312.1344
      -264.1414
  -2572393.66249  -1995430.45447  23872456.8724   23872454.1884
      2004.0164
   -549595.39249   -428321.64547  24201573.9584   24201570.3334
       290.9694
 04  9 17 21 26 30.0010000  0  8G 3G 8G13G19G23G27G28G10
   2780531.17549   2157600.50047  23315554.3414   23315551.5284
     -2272.3594
  -1624959.53249  -1265496.88148  21933501.9354   21933498.2474
       861.4064
   3331231.18449   2584846.99648  20932434.9974   20932430.0174
     -2554.2344
   -921993.47249   -719374.05147  22818491.9274   22818486.2944
       157.4224
   6578136.02849   5105283.89847  23424845.2004   23424840.7124
     -4402.4534
    176176.28749    133384.31048  21275074.3724   21275070.1384
      -266.5624
  -2602426.85849  -2018832.85647  23866741.5674   23866738.9744
      2000.7344
   -553891.38449   -431669.17347  24200756.2864   24200752.6424
       282.1724
 04  9 17 21 26 45.0010000  0  8G 3G 8G13G19G23G27G28G10
   2814688.08949   2184216.30347  23322054.6614   23322051.3534
     -2281.9694
  -1637857.02949  -1275546.87048  21931047.5914   21931043.6344
       858.2344
   3369607.51449   2614750.62748  20939737.7864   20939732.8604
     -2562.6254
   -924291.57749   -721164.75647  22818053.9814   22818049.0324
       148.9064
   6644204.46049   5156765.73247  23437418.3414   23437413.5244
     -4406.6724
    180196.75749    136517.14548  21275839.1854   21275834.8454
      -269.5624
  -2632409.06649  -2042195.54947  23861035.9194   23861032.8724
      1996.8594
   -558055.59149   -434913.97947  24199963.3414   24199960.6924
       272.9064
 04  9 17 21 27  0.0010000  0  8G 3G 8G13G19G23G27G28G10
   2848985.28749   2210941.40547  23328580.4664   23328577.8924
     -2291.4374
  -1650710.09949  -1285562.22448  21928601.7864   21928597.6884
       855.1724
   3408107.63349   2644750.71148  20947063.9814   20947058.9114
     -2571.1254
   -926463.58449   -722857.20647  22817641.0524   22817635.6424
       140.3134
   6710334.00049   5208295.19247  23450002.0834   23449997.2554
     -4411.0314
    184259.17149    139682.67448  21276612.6224   21276608.0444
      -272.4374
  -2662336.37649  -2065515.47447  23855340.6924   23855338.2594
      1993.0004
   -562084.05349   -438053.03147  24199196.8884   24199193.8104
       263.7974
 04  9 17 21 27 15.0010000  0  8G 3G 8G13G19G23G27G28G10
   2883423.96549   2237776.72047  23335133.9504   23335131.1654
     -2300.6094
  -1663517.80249  -1295542.25148  21926164.6144   21926160.8064
       852.2664
   3446732.60149   2674848.08148  20954414.0214   20954409.1224
     -2579.2194
   -928508.16849   -724450.35547  22817252.0604   22817246.3104
       132.0634
   6776525.86549   5259873.20447  23462596.7244   23462592.6924
     -4414.8594
    188364.71649    142881.81548  21277393.5754   21277389.0174
      -275.1874
  -2692207.44949  -2088791.55647  23849656.7554   23849654.2634
      1989.5474
   -565975.43549   -441085.28847  24198457.1144   24198453.1184
       254.8594
 04  9 17 21 27 30.0010000  0  8G 3G 8G13G19G23G27G28G10
   2917997.99149   2264717.51447  23341712.9974   23341710.4664
     -2309.6724
  -1676285.69649  -1305491.24448  21923735.1694   21923731.0014
       849.6094
   3485476.76249   2705038.33848  20961786.8334   20961781.9854
     -2587.2034
   -930430.77949   -725948.47547  22816886.0914   22816880.3644
       123.8284
   6842773.91449   5311495.01647  23475204.2314   23475199.7044
     -4418.6724
    192507.73749    146110.14448  21278181.8174   21278177.8214
      -277.7344
  -2722027.97049  -2112028.24947  23843982.0834   23843979.2784
      1986.0314
   -569735.38749   -444015.14447  24197740.8024   24197738.2164
       246.0164
 04  9 17 21 27 45.0010000  0  8G 3G 8G13G19G23G27G28G10
   2952710.45349   2291766.19347  23348318.9354   23348315.7634
     -2318.9534
  -1689010.56649  -1315406.69948  21921313.8804   21921309.6884
       846.8444
   3524343.07949   2735323.76548  20969182.8494   20969178.2514
     -2595.2034
   -932228.08349   -727348.93147  22816544.2314   22816538.3644
       115.6254
   6909081.03749   5363162.83447  23487821.9664   23487817.9034
     -4422.5314
    196691.41749    149370.16248  21278978.2554   21278973.8534
      -280.3284
  -2751794.63349  -2135222.98547  23838317.5284   23838314.5174
      1982.5474
   -573360.58949   -446839.93347  24197051.4274   24197047.4744
       237.1094
 04  9 17 21 28  0.0010000  0  8G 3G 8G13G19G23G27G28G10
   2987559.64349   2318921.43247  23354949.9424   23354948.2784
     -2327.1874
  -1701693.61249  -1325289.59048  21918900.0364   21918895.7554
       844.7194
   3563330.08649   2765703.26248  20976602.0604   20976597.2354
     -2602.5784
   -933901.28149   -728652.68947  22816225.3024   22816220.2164
       107.9844
   6975445.56349   5414875.40347  23500450.6384   23500446.3294
     -4425.6094
    200914.31049    152660.73548  21279781.4194   21279776.8964
      -282.2504
  -2781508.59649  -2158376.64947  23832663.4894   23832660.1144
      1979.6724
   -576852.33049   -449560.75847  24196386.8964   24196383.1814
       228.8754
 04  9 17 21 28 15.0010000  0  8G 3G 8G13G19G23G27G28G10
   3022545.41049   2346183.06147  23361608.1854   23361605.7044
     -2337.0624
  -1714334.94049  -1335139.96648  21916494.6144   21916490.4274
       841.3284
   3602437.65949   2796176.68248  20984043.9584   20984038.9114
     -2611.2344
   -935450.29349   -729859.69647  22815930.4974   22815925.2554
        99.0474
   7041867.17549   5466632.43047  23513090.3334   23513086.0284
     -4430.0624
    205176.51749    155981.92848  21280592.7164   21280587.9744
      -285.5474
  -2811169.96849  -2181489.32647  23827018.4034   23827015.4544
      1975.5474
   -580210.67149   -452177.63147  24195747.3964   24195744.2204
       219.4224
 04  9 17 21 28 30.0010000  0  8G 3G 8G13G19G23G27G28G10
   3057670.19449   2373553.05247  23368292.1774   23368289.2314
     -2346.0944
  -1726932.02049  -1344955.85848  21914097.5914   21914093.7204
       838.5314
   3641668.05949   2826745.82748  20991509.1304   20991504.1184
     -2619.2344
   -936872.34849   -730967.75047  22815660.0054   22815654.4894
        90.7814
   7108348.25049   5518435.82247  23525741.1384   23525737.5244
     -4433.8284
    209480.45149    159335.65448  21281411.6304   21281407.4854
      -288.1414
  -2840776.00349  -2204558.88147  23821384.9424   23821381.9114
      1972.0784
   -583432.86549   -454688.43847  24195133.9504   24195130.9384
       210.5164
 04  9 17 21 28 45.0010000  0  8G 3G 8G13G19G23G27G28G10
   3092930.71349   2401028.78347  23375001.8494   23374999.0444
     -2355.0944
  -1739487.88649  -1354739.63548  21911707.7944   21911703.8804
       835.7974
   3681018.25849   2857408.30248  20998996.9974   20998992.3684
     -2627.2504
   -938170.36749   -731979.17547  22815412.7864   22815407.8134
        82.5004
   7174885.44249   5570282.93647  23538403.3644   23538398.9974
     -4437.5944
    213823.15149    162719.58148  21282238.2784   21282233.8104
      -290.7814
  -2870329.60849  -2227587.56547  23815760.8254   23815757.8844
      1968.5944
   -586521.98649   -457095.53447  24194546.8104   24194543.4664
       201.6414
 04  9 17 21 29  0.0010000  0  8G 3G 8G13G19G23G27G28G10
   3128331.60049   2428613.90447  23381739.2084   23381735.6344
     -2364.6254
  -1751997.82849  -1364487.63648  21909327.5524   21909323.3414
       832.5474
   3720492.96649   2888167.81048  21006508.9504   21006504.1384
     -2635.7504
   -939339.42049   -732890.08747  22815190.6924   22815184.8174
        73.7034
   7241483.27449   5622177.26847  23551076.0754   23551071.9934
     -4441.8284
    218209.39749    166137.43348  21283072.7634   21283068.3534
      -293.7974
  -2899825.82149  -2250571.57247  23810147.8334   23810144.8214
      1964.5784
   -589473.00249   -459394.98747  24193985.0364   24193981.2824
       192.1564
 04  9 17 21 29 15.0010000  0  8G 3G 8G13G19G23G27G28G10
   3163870.99049   2456306.91147  23388501.0364   23388498.7284
     -2373.7504
  -1764463.38249  -1374201.04248  21906955.3414   21906950.8414
       829.7664
   3760090.50949   2919023.01948  21014044.0834   21014039.5134
     -2643.7504
   -940380.80649   -733701.53047  22814992.2244   22814986.6694
        65.2504
   7308139.80249   5674117.37747  23563761.6694   23563756.2594
     -4445.5004
    222637.65249    169588.03648  21283915.4114   21283911.0954
      -296.5314
  -2929266.20549  -2273512.05547  23804545.3104   23804542.4624
      1960.9694
   -592287.51449   -461588.16047  24193448.8964   24193445.1884
       183.2504
 04  9 17 21 29 30.0010000  0  8G 3G 8G13G19G23G27G28G10
   3199543.67349   2484103.82347  23395290.2084   23395286.8804
     -2382.5474
  -1776889.61349  -1383883.80548  21904590.7864   21904586.8134
       827.1414
   3799805.74149   2949969.95448  21021601.6144   21021596.5484
     -2651.6094
   -941299.39449   -734417.28547  22814817.7244   22814812.1574
        57.0784
   7374849.84549   5726099.17447  23576456.2864   23576450.8294
     -4449.0944
    227102.92449    173067.46848  21284765.2864   21284760.6064
      -298.8914
  -2958655.54349  -2296412.74847  23798952.6464   23798949.9464
      1957.5474
   -594970.45549   -463678.73047  24192938.9974   24192935.1654
       174.4694
 04  9 17 21 29 45.0010000  0  8G 3G 8G13G19G23G27G28G10
   3235349.83749   2512004.75747  23402102.9274   23402099.7984
     -2391.6724
  -1789276.25449  -1393535.72348  21902233.8564   21902229.8644
       824.3284
   3839638.62449   2981008.56348  21029181.6534   21029176.6034
     -2659.5624
   -942094.86149   -735037.09947  22814666.3724   22814660.7004
        48.7814
   7441613.32749   5778122.61747  23589160.0134   23589155.5914
     -4452.8124
    231605.22849    176575.76548  21285621.6924   21285617.4234
      -301.5004
  -2987993.66649  -2319273.53347  23793369.6924   23793367.3134
      1953.9844
   -597521.59949   -465666.62747  24192453.8414   24192449.9624
       165.6414
 04  9 17 21 30  0.0010000  0  8G 3G 8G13G19G23G27G28G10
   3271297.89549   2540016.22747  23408944.5214   23408941.4974
     -2401.1414
  -1801614.46149  -1403149.90948  21899885.9584   21899881.4664
       821.1254
   3879597.77449   3012145.54948  21036785.4114   21036780.8454
     -2668.0164
   -942758.26449   -735554.00647  22814539.4664   22814534.1614
        39.9384
   7508438.58649   5830194.16947  23601876.4744   23601872.1614
     -4456.9224
    236153.47249    180119.85148  21286487.5054   21286482.9974
      -304.6564
  -3017271.80249  -2342087.61347  23787798.6064   23787796.0604
      1950.0474
   -599932.01349   -467544.90447  24191994.9504   24191991.1654
       156.1884
 04  9 17 21 30 15.0010000  0  8G 3G 8G13G19G23G27G28G10
   3307378.28049   2568130.82747  23415809.8334   23415806.9624
     -2409.8594
  -1813913.88649  -1412733.86948  21897545.2944   21897541.0054
       818.5944
   3919673.74749   3043373.58148  21044411.8724   21044407.2434
     -2675.6564
   -943298.90049   -735975.26647  22814437.3964   22814431.5174
        31.8594
   7575316.06049   5882306.42347  23614603.2394   23614598.7554
     -4460.3124
    240738.16649    183692.34348  21287359.9974   21287355.5954
      -306.9374
  -3046499.11349  -2364862.03947  23782236.4274   23782234.1344
      1946.6884
   -602211.12449   -469320.80147  24191560.5284   24191557.5174
       147.3914
 04  9 17 21 30 30.0010000  0  8G 3G 8G13G19G23G27G28G10
   3343593.29649   2596350.30947  23422701.1694   23422698.6464
     -2418.7504
  -1826171.89049  -1422285.54548  21895212.4974   21895209.1344
       815.8754
   3959868.93849   3074694.49948  21052060.7714   21052056.0244
     -2683.5314
   -943714.04349   -736298.70447  22814358.2784   22814352.3684
        23.5634
   7642247.94549   5934461.08547  23627339.5524   23627335.3564
     -4463.8284
    245361.94549    187295.29748  21288239.7084   21288235.7674
      -309.5004
  -3075673.05549  -2387594.88647  23776684.8564   23776681.6344
      1943.1884
   -604356.15949   -470992.29847  24191153.2004   24191149.7204
       138.5634
 04  9 17 21 30 45.0010000  0  8G 3G 8G13G19G23G27G28G10
   3379943.48049   2624675.13147  23429618.3494   23429616.3764
     -2427.7194
  -1838387.63349  -1431804.29848  21892888.0604   21892884.1694
       813.1564
   4000183.89149   3106108.74048  21059732.2314   21059727.6924
     -2691.5164
   -944002.70749   -736523.62147  22814302.9424   22814297.0994
        15.2034
   7709234.80049   5986658.56147  23640086.6064   23640082.0794
     -4467.4534
    250025.47949    190929.22148  21289127.3174   21289122.5604
      -312.1254
  -3104792.74349  -2410285.50447  23771143.5994   23771140.5524
      1939.6724
   -606366.42049   -472558.66347  24190769.4814   24190766.8884
       129.6724
 04  9 17 21 31  0.0010000  0  8G 3G 8G13G19G23G27G28G10
   3416429.07149   2653105.47047  23436560.9744   23436558.7784
     -2437.0474
  -1850560.54849  -1441289.67948  21890571.5604   21890567.5284
       809.9384
   4040618.95449   3137616.57448  21067427.1224   21067422.1774
     -2699.8284
   -944164.26849   -736649.48747  22814272.3964   22814266.7554
         6.3594
   7776276.77449   6038899.01947  23652844.6304   23652840.4464
     -4471.4844
    254729.26249    194594.51048  21290022.5214   21290017.7314
      -315.1094
  -3133857.50649  -2432933.28647  23765612.5444   23765609.4424
      1935.5784
   -608241.24849   -474019.62747  24190413.6924   24190410.3534
       120.2974
 04  9 17 21 31 15.0010000  0  8G 3G 8G13G19G23G27G28G10
   3453051.48349   2681642.40247  23443530.6224   23443527.4154
     -2446.0164
  -1862689.34449  -1450740.68248  21888263.7554   21888259.9464
       807.1094
   4081175.64649   3169219.18948  21075144.7634   21075139.6734
     -2707.8444
   -944197.06749   -736675.01147  22814265.9354   22814260.3374
        -2.1414
   7843375.14049   6091183.39247  23665612.5914   23665608.8064
     -4475.0944
    259474.90249    198292.41448  21290925.2554   21290920.8684
      -317.8754
  -3162865.76449  -2455537.03847  23760092.3494   23760089.5794
      1932.0474
   -609979.21449   -475373.83347  24190082.5364   24190079.4744
       111.3134
 04  9 17 21 31 30.0010000  0  8G 3G 8G13G19G23G27G28G10
   3489807.06149   2710283.12247  23450525.2004   23450521.9114
     -2454.9374
  -1874777.33649  -1460159.89148  21885963.5674   21885959.7744
       804.3594
   4121850.31849   3200913.72948  21082884.6534   21082879.7674
     -2715.7974
   -944104.47449   -736602.83847  22814283.5754   22814278.1464
       -10.5784
   7910526.10249   6143508.74747  23678391.8174   23678387.1924
     -4478.6724
    264258.93649    202020.23448  21291835.8644   21291831.2904
      -320.3444
  -3191820.83949  -2478099.35747  23754582.6614   23754579.6924
      1928.4224
   -611583.65749   -476624.06647  24189777.5054   24189773.9934
       102.3284
 04  9 17 21 31 45.0010000  0  8G 3G 8G13G19G23G27G28G10
   3526699.03749   2739030.11747  23457545.1854   23457542.0564
     -2463.5944
  -1886821.02549  -1469544.57348  21883671.6384   21883667.4074
       801.8284
   4162646.29849   3232702.80748  21090647.7474   21090643.3724
     -2723.3754
   -943882.86449   -736430.13447  22814325.6854   22814319.9814
       -18.7194
   7977732.89749   6195877.59447  23691180.9194   23691175.6344
     -4481.9844
    269084.74349    205780.60948  21292754.3724   21292749.5134
      -322.7194
  -3220719.18149  -2500617.49547  23749083.4814   23749080.5284
      1925.0474
   -613051.02749   -477767.47947  24189498.9034   24189495.3454
        93.6884
 04  9 17 21 32  0.0010000  0  8G 3G 8G13G19G23G27G28G10
   3563720.37549   2767877.92847  23464590.5444   23464587.2714
     -2472.4694
  -1898827.20049  -1478900.02448  21881386.9114   21881382.6464
       799.1254
   4203556.66149   3264580.99548  21098433.1534   21098428.3334
     -2731.2034
   -943538.79349   -736161.99947  22814391.2864   22814385.6964
       -27.0624
   8044988.53249   6248284.52547  23703978.2634   23703975.0094
     -4485.4374
    273945.60449    209568.29848  21293679.1924   21293674.7904
      -325.2664
  -3249567.49549  -2523096.61747  23743593.4744   23743590.6064
      1921.5314
   -614388.07849   -478809.34847  24189244.0524   24189240.3604
        84.7664
 04  9 17 21 32 15.0010000  0  8G 3G 8G13G19G23G27G28G10
   3600876.45849   2796830.72347  23471660.8724   23471657.8414
     -2481.2194
  -1910790.37149  -1488221.96948  21879110.4354   21879105.6304
       796.4844
   4244586.71249   3296552.45648  21106241.0754   21106236.1144
     -2738.9534
   -943066.60949   -735794.03447  22814480.7634   22814475.2474
       -35.4224
   8112298.15449   6300733.52347  23716787.5914   23716783.5794
     -4488.7504
    278847.09949    213387.65148  21294611.6534   21294607.4314
      -327.7504
  -3278360.23849  -2545532.43047  23738114.6774   23738110.9354
      1917.9534
   -615589.11549   -479745.19147  24189014.7944   24189012.3644
        75.9064
 04  9 17 21 32 30.0010000  0  8G 3G 8G13G19G23G27G28G10
   3638164.54449   2825886.35347  23478756.3104   23478753.7164
     -2490.3284
  -1922712.96049  -1497512.29748  21876841.7084   21876837.5874
       793.3594
   4285733.83949   3328615.14648  21114070.6144   21114066.0284
     -2747.1724
   -942468.56849   -735328.01247  22814595.0364   22814588.8924
       -44.1724
   8179658.96949   6353222.38847  23729605.5674   23729601.6734
     -4492.5624
    283786.69649    217236.69448  21295551.8494   21295547.3494
      -330.6874
  -3307099.73149  -2567926.78647  23732645.3254   23732642.1224
      1914.0634
   -616656.61249   -480577.00147  24188811.9664   24188808.9814
        66.5784
 04  9 17 21 32 45.0010000  0  8G 3G 8G13G19G23G27G28G10
   3675589.15449   2855048.41747  23485878.9274   23485874.8174
     -2499.5784
  -1934590.25749  -1506767.32148  21874581.2164   21874576.8964
       790.2194
   4327002.72349   3360772.71548  21121923.9974   21121919.2314
     -2755.3594
   -941739.89549   -734760.18947  22814733.5134   22814727.7314
       -52.9694
   8247075.54949   6405754.72747  23742434.1924   23742430.9194
     -4496.3754
    288769.16949    221119.13748  21296499.8494   21296495.4744
      -333.7034
  -3335781.07249  -2590275.81547  23727187.2784   23727184.0914
      1910.0944
   -617585.74749   -481301.00347  24188635.3494   24188632.0564
        57.2504
 04  9 17 21 33  0.0010000  0  8G 3G 8G13G19G23G27G28G10
   3713143.91549   2884311.86447  23493025.3414   23493021.5484
     -2508.0784
  -1946428.23149  -1515991.71048  21872328.6224   21872324.2084
       787.7194
   4368387.06349   3393020.24548  21129799.3964   21129794.2824
     -2762.9694
   -940886.55949   -734095.23447  22814895.6694   22814889.8724
       -61.2194
   8314541.45749   6458325.50747  23755272.6464   23755269.0564
     -4499.5784
    293788.31249    225030.15248  21297455.0214   21297450.3994
      -335.9694
  -3364410.33149  -2612584.27247  23721739.2714   23721736.1924
      1906.7504
   -618382.74349   -481922.03547  24188483.5054   24188480.5754
        48.5474
 04  9 17 21 33 15.0010000  0  8G 3G 8G13G19G23G27G28G10
   3750830.17049   2913677.75347  23500196.2554   23500193.1884
     -2516.8444
  -1958225.38949  -1525184.28448  21870083.7314   21870079.7434
       785.0164
   4409888.23049   3425358.81148  21137696.9424   21137692.0444
     -2770.7344
   -939906.79549   -733331.76047  22815082.0364   22815076.4814
       -69.6094
   8382057.89949   6510935.67247  23768121.2714   23768117.1184
     -4502.8914
    298845.80749    228971.06648  21298417.5834   21298412.7514
      -338.5474
  -3392985.96749  -2634850.93047  23716301.5834   23716298.6774
      1903.1094
   -619045.98449   -482438.86647  24188357.2084   24188354.0754
        39.5164
 04  9 17 21 33 30.0010000  0  8G 3G 8G13G19G23G27G28G10
   3788645.81349   2943144.48347  23507391.9194   23507389.3924
     -2525.5314
  -1969983.87749  -1534346.73748  21867846.0444   21867841.8564
       782.3914
   4451504.22449   3457786.85148  21145616.0834   21145610.9854
     -2778.4064
   -938802.53349   -732471.27947  22815292.6224   22815286.3994
       -77.9694
   8449622.73049   6563583.50647  23780978.6304   23780974.1654
     -4506.1414
    303939.61149    232940.26148  21299386.9504   21299382.0324
      -340.9844
  -3421509.69249  -2657077.13547  23710873.5994   23710870.6814
      1899.6564
   -619577.35649   -482852.91347  24188256.6854   24188252.9814
        30.8444
 04  9 17 21 33 45.0010000  0  8G 3G 8G13G19G23G27G28G10
   3826593.74949   2972714.31347  23514613.0754   23514610.3174
     -2533.9374
  -1981700.54249  -1543476.59848  21865616.7244   21865612.4814
       780.0314
   4493238.00849   3490306.67048  21153557.7474   21153553.0404
     -2785.8124
   -937570.38249   -731511.14147  22815526.5914   22815520.9854
       -86.1414
   8517238.72649   6616271.23147  23793845.6614   23793841.3964
     -4509.1414
    309072.85449    236940.19448  21300363.6774   21300359.6814
      -343.1874
  -3449978.29149  -2679260.38847  23705456.4354   23705453.4854
      1896.3134
   -619973.54449   -483161.61447  24188180.5914   24188177.2634
        22.1254
 04  9 17 21 34  0.0010000  0  8G 3G 8G13G19G23G27G28G10
   3864675.53449   3002388.43547  23521859.7164   23521856.8884
     -2543.6414
  -1993373.32649  -1552572.26648  21863395.2004   21863390.9624
       776.2974
   4535091.30949   3522919.61448  21161522.1924   21161517.5094
     -2794.6094
   -936208.42249   -730449.85347  22815785.6144   22815780.4234
       -95.5624
   8584907.51749   6669000.08147  23806722.1774   23806718.5284
     -4513.3754
    314247.53449    240972.42748  21301348.5214   21301344.2354
      -346.7504
  -3478389.84149  -2701399.21547  23700049.5524   23700046.2864
      1891.8594
   -620232.65749   -483363.52347  24188131.4664   24188127.6814
        12.2974
 04  9 17 21 34 15.0010000  0  8G 3G 8G13G19G23G27G28G10
   3902891.31549   3032166.96047  23529132.1224   23529129.3844
     -2551.6724
  -2005002.09749  -1561633.63348  21861182.4034   21861178.3294
       774.2344
   4577064.20549   3555625.76748  21169509.3414   21169504.5634
     -2801.7194
   -934716.19349   -729287.06247  22816070.0284   22816064.1534
      -103.3124
   8652629.13549   6721770.10247  23819609.0214   23819605.4074
     -4516.0784
    319463.91149    245037.13348  21302340.8564   21302336.3724
      -348.6414
  -3506743.88349  -2723493.19947  23694653.9034   23694650.6854
      1888.8754
   -620354.28949   -483458.26847  24188107.9974   24188105.0054
         4.0474
 04  9 17 21 34 30.0010000  0  8G 3G 8G13G19G23G27G28G10
   3941236.27149   3062046.14247  23536428.2944   23536426.3494
     -2560.6094
  -2016591.37849  -1570664.23448  21858976.9354   21858972.4584
       771.3284
   4619152.15449   3588421.56148  21177518.3024   21177513.5284
     -2809.7034
   -933097.97649   -728026.08947  22816377.7944   22816372.7284
      -112.1254
   8720398.72149   6774577.50147  23832505.5054   23832501.6614
     -4519.5944
    324717.34449    249130.71848  21303340.5834   21303335.9854
      -351.4694
  -3535044.82249  -2745545.81647  23689267.7944   23689264.6264
      1885.0634
   -620342.95849   -483449.43947  24188110.4194   24188107.2284
        -5.1254
 04  9 17 21 34 45.0010000  0  8G 3G 8G13G19G23G27G28G10
   3979710.84849   3092026.32547  23543750.6224   23543747.7554
     -2569.1874
  -2028140.44149  -1579663.49948  21856779.1924   21856774.7904
       768.6254
   4661355.47349   3621307.26348  21185549.3724   21185544.5444
     -2817.3754
   -931353.16149   -726666.48247  22816709.9354   22816703.9894
      -120.4534
   8788216.57549   6827422.50847  23845411.6614   23845407.0134
     -4522.7194
    330008.62649    253253.80248  21304347.5444   21304342.8534
      -353.9064
  -3563292.09049  -2767556.60447  23683893.3174   23683890.0754
      1881.3444
   -620198.11849   -483336.59647  24188138.2554   24188134.3764
       -14.0784
 04  9 17 21 35  0.0010000  0  8G 3G 8G13G19G23G27G28G10
   4018313.46449   3122106.28847  23551096.1854   23551093.9664
     -2577.8124
  -2039650.39449  -1588632.28648  21854588.6064   21854584.6734
       765.9844
   4703672.79449   3654281.78448  21193601.9354   21193597.3684
     -2824.9844
   -929482.73149   -725208.98547  22817065.8804   22817059.7004
      -128.9534
   8856081.29149   6880304.04947  23858325.2864   23858321.1384
     -4525.9844
    335336.36849    257405.29148  21305361.5674   21305356.7674
      -356.4694
  -3591486.77549  -2789526.43347  23678527.6464   23678524.4584
      1877.8284
   -619920.98549   -483120.62047  24188190.7784   24188187.3604
       -22.9064
 04  9 17 21 35 15.0010000  0  8G 3G 8G13G19G23G27G28G10
   4057044.02049   3152285.93547  23558466.3884   23558463.7744
     -2586.5164
  -2051121.35549  -1597570.68848  21852406.0214   21852401.7864
       763.2974
   4746103.96049   3687345.02748  21201676.5134   21201671.6854
     -2832.6564
   -927486.68049   -723653.60447  22817445.8334   22817439.7164
      -137.4224
   8923992.44749   6933221.77547  23871248.5524   23871244.3334
     -4529.1724
    340700.62749    261585.23048  21306382.0284   21306377.0564
      -358.9534
  -3619628.90049  -2811455.29447  23673172.4744   23673169.0564
      1874.2344
   -619511.48449   -482801.52547  24188268.5054   24188265.3964
       -31.9224
 04  9 17 21 35 30.0010000  0  8G 3G 8G13G19G23G27G28G10
   4095906.71449   3182568.54447  23565861.3334   23565859.0134
     -2594.8914
  -2062548.86449  -1606475.22948  21850231.3494   21850226.9624
       760.7194
   4788653.20449   3720500.26748  21209773.2474   21209768.3604
     -2840.2034
   -925360.33249   -721996.69147  22817849.9504   22817844.8024
      -145.7664
   8991954.22549   6986178.92447  23884181.4814   23884177.2634
     -4532.0784
    346105.89249    265797.12948  21307410.6224   21307406.1924
      -361.4064
  -3647713.76549  -2833339.55147  23667828.3254   23667824.8024
      1870.7504
   -618965.12449   -482375.80947  24188372.9814   24188369.5954
       -40.6094
 04  9 17 21 35 45.0010000  0  8G 3G 8G13G19G23G27G28G10
   4134897.28749   3212950.79147  23573281.2164   23573278.6774
     -2604.2194
  -2073937.15449  -1615349.21448  21848064.3494   21848060.3454
       757.2504
   4831316.48149   3753744.38248  21217891.8174   21217887.2244
     -2848.6254
   -923107.71149   -720241.39047  22818278.6854   22818273.7434
      -155.0004
   9059962.36849   7039172.19747  23897121.5364   23897118.7904
     -4536.0944
    351548.07549    270037.80048  21308446.3174   21308441.9704
      -364.7194
  -3675745.45249  -2855182.37247  23662493.6144   23662490.2394
      1866.4064
   -618285.83949   -481846.46747  24188501.9744   24188498.3104
       -50.3914
 04  9 17 21 36  0.0020000  0  8G 3G 8G13G19G23G27G28G10
   4174021.42849   3243437.13947  23580727.0884   23580723.8224
     -2612.2344
  -2085283.45049  -1624190.48148  21845905.2754   21845900.8114
       755.1884
   4874099.90549   3787082.10148  21226033.3464   21226028.6314
     -2855.6724
   -920724.96749   -718384.69747  22818732.2364   22818726.4594
      -162.9064
   9128024.41949   7092207.50447  23910074.6664   23910070.6934
     -4538.4374
    357030.88349    274310.11748  21309489.4634   21309485.0684
      -366.5784
  -3703722.20949  -2876982.38447  23657169.9714   23657166.6354
      1863.3754
   -617470.17149   -481210.87947  24188657.2364   24188653.8074
       -58.7034
 04  9 17 21 36 15.0020000  0  8G 3G 8G13G19G23G27G28G10
   4213271.67249   3274021.72947  23588196.0104   23588193.0964
     -2621.2344
  -2096588.34049  -1632999.47848  21843753.8544   21843749.8264
       751.9844
   4916995.39249   3820507.15148  21234196.0724   21234190.9904
     -2863.7814
   -918214.53449   -716428.50847  22819209.7834   22819204.1824
      -171.9374
   9196129.09249   7145276.00947  23923034.4084   23923030.5294
     -4542.2344
    362551.68249    278612.03548  21310540.4554   21310535.7994
      -369.6094
  -3731642.36549  -2898738.29047  23651856.9944   23651853.2954
      1859.2034
   -616520.18049   -480470.62647  24188839.0804   24188834.8894
       -68.1254
 04  9 17 21 36 30.0020000  0  8G 3G 8G13G19G23G27G28G10
   4252654.07649   3304709.30647  23595690.0254   23595687.2254
     -2629.4844
  -2107848.74149  -1641773.81348  21841611.2994   21841607.1704
       749.6884
   4960009.32949   3854024.47648  21242381.2444   21242376.8344
     -2871.0944
   -915572.32249   -714369.62847  22819712.4794   22819707.1544
      -180.1094
   9264284.19849   7198383.81547  23936005.1664   23935999.8854
     -4544.8594
    368114.49849    282946.69648  21311598.5884   21311593.9754
      -371.8124
  -3759503.97449  -2920448.57047  23646555.3774   23646551.0574
      1855.9534
   -615432.27149   -479622.88947  24189043.9944   24189042.0104
       -76.6254
 04  9 17 21 36 45.0020000  0  8G 3G 8G13G19G23G27G28G10
   4292165.69349   3335497.57447  23603208.7524   23603206.1154
     -2638.4064
  -2119067.26949  -1650515.51548  21839476.2294   21839472.1314
       746.4694
   5003138.85549   3887631.89648  21250588.4474   21250583.4864
     -2879.1564
   -912800.85549   -712210.01847  22820239.7834   22820234.5064
      -189.1094
   9332486.85749   7251528.68547  23948982.5414   23948978.6194
     -4548.4224
    373716.65949    287312.02848  21312665.1044   21312660.3934
      -374.8284
  -3787309.64049  -2942115.27147  23641263.5724   23641260.4044
      1851.8754
   -614208.95349   -478669.67147  24189278.5184   24189274.6074
       -86.1874
 04  9 17 21 37  0.0020000  0  8G 3G 8G13G19G23G27G28G10
   4331807.52749   3366387.28647  23610751.8614   23610749.6744
     -2647.0784
  -2130242.90249  -1659223.79248  21837349.7914   21837345.2754
       743.6094
   5046385.10649   3921330.26048  21258818.4004   21258813.6584
     -2886.9374
   -909898.90549   -709948.74247  22820792.2684   22820786.4674
      -197.7664
   9400737.85949   7304711.20347  23961969.7214   23961966.3894
     -4551.6254
    379359.22349    291708.83148  21313738.4394   21313734.0494
      -377.5004
  -3815058.20149  -2963737.46947  23635983.5254   23635979.7714
      1848.0004
   -612849.14249   -477610.07047  24189536.2444   24189533.3114
       -95.2344
 04  9 17 21 37 15.0020000  0  8G 3G 8G13G19G23G27G28G10
   4371578.80849   3397377.91747  23618320.9864   23618318.1274
     -2655.6724
  -2141376.02049  -1667898.94448  21835231.0964   21835227.0684
       740.8594
   5089747.43849   3955119.08148  21267069.6114   21267065.1934
     -2894.6724
   -906866.84849   -707586.09547  22821369.6584   22821363.3424
      -206.4064
   9469036.45949   7357930.83047  23974968.0724   23974963.4364
     -4554.7504
    385041.88049    296136.87748  21314819.9394   21314815.6934
      -380.1094
  -3842749.88249  -2985315.35447  23630713.5884   23630710.2564
      1844.2344
   -611353.13849   -476444.34647  24189821.1894   24189817.8144
      -104.2344
 04  9 17 21 37 30.0020000  0  8G 3G 8G13G19G23G27G28G10
   4411474.60149   3428465.51647  23625912.6274   23625909.6274
     -2663.8914
  -2152471.27949  -1676544.59148  21833119.9004   21833115.2404
       738.3284
   5133220.93649   3988994.53648  21275342.4554   21275337.4984
     -2902.0164
   -903709.13849   -705125.53147  22821970.1194   22821964.6234
      -214.7974
   9537377.73849   7411183.68547  23987971.5724   23987968.2714
     -4557.6094
    390759.96049    300592.51548  21315907.8774   21315903.3854
      -382.4844
  -3870389.32049  -3006852.51347  23625453.8384   23625450.5064
      1840.7974
   -609725.65649   -475176.17247  24190130.7684   24190128.1744
      -112.9694
 04  9 17 21 37 45.0020000  0  8G 3G 8G13G19G23G27G28G10
   4451500.75949   3459654.70247  23633528.8614   23633526.0644
     -2672.4224
  -2163522.82049  -1685156.18248  21831016.7604   21831012.3384
       735.6564
   5176811.49449   4022961.17448  21283637.6584   21283632.6074
     -2909.5944
   -900419.72449   -702562.34147  22822596.2524   22822590.1504
      -223.3284
   9605767.41849   7464474.25947  24000986.3384   24000982.4364
     -4560.5164
    396519.44249    305080.43548  21317003.7214   21316999.4004
      -385.0004
  -3897970.48649  -3028344.28347  23620205.2834   23620201.2714
      1837.1414
   -607960.69849   -473800.88047  24190467.0964   24190463.6004
      -121.8914
 04  9 17 21 38  0.0020000  0  8G 3G 8G13G19G23G27G28G10
   4491649.83149   3490939.68847  23641169.6354   23641166.7404
     -2680.8284
  -2174537.59749  -1693739.12548  21828920.5964   21828916.3544
       732.9694
   5220511.76249   4057013.31948  21291953.6824   21291948.5144
     -2917.1094
   -897005.67749   -699902.02947  22823245.7994   22823239.6744
      -231.9374
   9674198.06549   7517796.79447  24014008.5884   24014004.3614
     -4563.6254
    402313.16249    309595.02148  21318106.3854   21318101.6274
      -387.5164
  -3925500.43949  -3049796.14247  23614966.6044   23614962.7874
      1833.5314
   -606065.30749   -472323.96147  24190827.9714   24190824.0374
      -130.8124
 04  9 17 21 38 15.0020000  0  8G 3G 8G13G19G23G27G28G10
   4531925.57349   3522323.35747  23648833.0024   23648830.6314
     -2689.1874
  -2185511.91049  -1702290.53148  21826832.0804   21826828.2404
       730.4064
   5264325.51949   4091153.90548  21300291.1504   21300286.1864
     -2924.5944
   -893462.89049   -697141.41847  22823920.2604   22823914.3224
      -240.3444
   9742673.35949   7571154.07747  24027038.9864   24027034.6974
     -4566.3754
    408145.15849    314139.43848  21319216.3224   21319212.0494
      -390.0004
  -3952975.06849  -3071204.89847  23609738.6664   23609734.5374
      1829.9224
   -604035.56149   -470742.32347  24191213.2754   24191210.2214
      -139.6254
 04  9 17 21 38 30.0020000  0  8G 3G 8G13G19G23G27G28G10
   4572331.73749   3553808.66047  23656522.0724   23656519.6704
     -2698.0944
  -2196441.48749  -1710807.07048  21824752.1434   21824747.9364
       727.1094
   5308256.71549   4125385.99448  21308650.4394   21308645.9244
     -2932.6874
   -889787.11949   -694277.16547  22824619.2834   22824613.7444
      -249.5004
   9811196.95949   7624549.03747  24040077.9004   24040074.7754
     -4569.9064
    414019.41649    318716.78048  21320334.2604   21320329.4794
      -392.9844
  -3980390.23549  -3092567.29847  23604521.4004   23604517.9204
      1825.6414
   -601867.37349   -469052.83747  24191626.0184   24191622.7364
      -149.1414
 04  9 17 21 38 45.0020000  0  8G 3G 8G13G19G23G27G28G10
   4612862.88249   3585391.35247  23664236.0184   23664232.4864
     -2706.1874
  -2207331.57349  -1719292.85648  21822679.9864   21822675.8424
       724.7344
   5352299.89449   4159705.33648  21317031.6584   21317026.8934
     -2939.8754
   -885983.52149   -691313.30347  22825343.3854   22825337.4044
      -257.7664
   9879763.42649   7677977.36347  24053126.4554   24053122.6504
     -4572.4844
    419930.69449    323322.97548  21321458.8854   21321454.6784
      -395.2974
  -4007751.08249  -3113887.40147  23599314.5104   23599310.7834
      1822.2344
   -599565.95649   -467259.52447  24192064.2754   24192061.0804
      -157.8124
 04  9 17 21 39  0.0020000  0  8G 3G 8G13G19G23G27G28G10
   4653520.37249   3617072.51147  23671972.7444   23671969.3654
     -2714.4534
  -2218180.63249  -1727746.65648  21820615.3304   21820611.3614
       722.1414
   5396456.43349   4194113.01648  21325434.5964   21325429.9004
     -2947.2814
   -882050.50449   -688248.59847  22826091.5724   22826086.1584
      -266.3124
   9948374.00649   7731440.09047  24066183.0024   24066178.9944
     -4575.2664
    425880.55649    327959.23948  21322591.1584   21322586.7564
      -397.6874
  -4035056.00849  -3135163.90747  23594118.4554   23594115.1744
      1818.7034
   -597129.60049   -465361.06447  24192527.7914   24192524.5684
      -166.7034
 04  9 17 21 39 15.0020000  0  8G 3G 8G13G19G23G27G28G10
   4694302.84049   3648851.04347  23679733.4244   23679730.1974
     -2723.1414
  -2228989.47249  -1736169.12848  21818558.5574   21818554.7404
       719.0944
   5440725.18449   4228608.13548  21333858.3384   21333853.7324
     -2955.0944
   -877988.77849   -685083.60547  22826864.6114   22826858.6974
      -275.2664
  10017027.44949   7784936.20347  24079246.0964   24079242.9044
     -4578.5004
    431868.10849    332624.84848  21323730.7134   21323726.1624
      -400.6254
  -4062305.86149  -3156397.51947  23588932.9474   23588929.2054
      1814.6414
   -594559.40149   -463358.30847  24193016.7754   24193013.0804
      -176.0164
 04  9 17 21 39 30.0020000  0  8G 3G 8G13G19G23G27G28G10
   4735213.83649   3680729.70347  23687518.7914   23687515.0214
     -2731.5004
  -2239754.63349  -1744557.56348  21816509.9394   21816506.1314
       716.3754
   5485109.76149   4263193.51248  21342304.7214   21342299.7994
     -2962.6564
   -873794.60049   -681815.41747  22827663.7914   22827657.1974
      -283.8284
  10085727.15149   7838468.34747  24092320.0104   24092316.5884
     -4581.3444
    437897.05449    337322.73748  21324877.9004   21324873.6704
      -403.1724
  -4089496.93049  -3177585.30647  23583758.8774   23583754.7834
      1810.9534
   -591851.67449   -461248.40747  24193532.3384   24193529.1584
      -184.9374
 04  9 17 21 39 45.0020000  0  8G 3G 8G13G19G23G27G28G10
   4776250.73649   3712706.51147  23695327.1504   23695324.1394
     -2739.6094
  -2250478.06149  -1752913.46548  21814469.6584   21814465.2954
       713.8754
   5529607.68949   4297867.20148  21350772.1824   21350767.2644
     -2970.0314
   -869470.19049   -678445.72047  22828485.5884   22828479.9044
      -292.3284
  10154470.61449   7892034.61347  24105401.4794   24105398.3184
     -4583.9534
    443965.23749    342051.19948  21326032.6744   21326028.0184
      -405.5164
  -4116631.33449  -3198728.94147  23578595.3224   23578591.4004
      1807.4384
   -589008.65549   -459033.04047  24194073.1044   24194069.4324
      -193.6724
 04  9 17 21 40  0.0020000  0  8G 3G 8G13G19G23G27G28G10
   4817412.60949   3744780.69147  23703159.5494   23703156.5024
     -2748.7194
  -2261160.75549  -1761237.64248  21812436.7524   21812432.6974
       710.3444
   5574217.94249   4332628.43048  21359261.3614   21359256.8384
     -2978.2344
   -865016.14349   -674975.03147  22829333.1744   22829327.0534
      -301.6724
  10223256.75349   7945634.12947  24118492.3694   24118487.5214
     -4587.5784
    450071.72649    346809.49748  21327194.3224   21327189.8544
      -408.8594
  -4143709.76049  -3219828.95747  23573442.4864   23573438.8074
      1802.8444
   -586031.07949   -456712.88446  24194639.4714   24194636.3344
      -203.3914
 04  9 17 21 40 15.0020000  0  8G 3G 8G13G19G23G27G28G10
   4858705.46649   3776956.91147  23711018.1664   23711015.0144
     -2757.1254
  -2271796.51049  -1769525.23848  21810412.9244   21810408.5214
       707.5784
   5618946.63249   4367481.94348  21367772.9864   21367768.1114
     -2985.7664
   -860426.19949   -671398.43947  22830206.6894   22830200.3614
      -310.4224
  10292091.45149   7999271.44947  24131591.1894   24131586.7054
     -4590.3914
    456222.93549    351602.64348  21328364.9634   21328360.4394
      -411.4694
  -4170725.92949  -3240880.47847  23568301.8694   23568297.7914
      1799.0944
   -582912.76649   -454283.01947  24195233.0494   24195230.0574
      -212.4694
 04  9 17 21 40 30.0020000  0  8G 3G 8G13G19G23G27G28G10
   4900128.13049   3809234.31947  23718900.1584   23718897.3224
     -2765.8914
  -2282385.89849  -1777776.70448  21808397.4714   21808392.8574
       704.3134
   5663792.86349   4402427.04048  21376306.7994   21376301.9794
     -2993.7194
   -855700.98549   -667716.43647  22831105.8144   22831099.7484
      -319.6724
  10360973.59249   8052945.78447  24144698.7054   24144694.4824
     -4593.7664
    462417.90149    356429.89348  21329544.2834   21329539.5144
      -414.5314
  -4197680.54749  -3261884.02947  23563172.1894   23563168.4084
      1794.8594
   -579654.38849   -451743.99947  24195853.1974   24195850.1934
      -222.0004
 04  9 17 21 40 45.0020000  0  8G 3G 8G13G19G23G27G28G10
   4941674.79949   3841608.32147  23726805.7294   23726803.5214
     -2773.4224
  -2292934.63849  -1785996.48848  21806390.1894   21806386.5184
       702.3754
   5708750.68049   4437459.09448  21384862.0804   21384857.4634
     -3000.4694
   -850846.00849   -663933.31947  22832029.5414   22832023.9284
      -327.5164
  10429897.34449   8106652.52047  24157814.1044   24157810.5884
     -4595.7974
    468651.14249    361286.97348  21330730.1354   21330725.5454
      -416.3914
  -4224579.13749  -3282843.92147  23558053.4324   23558049.6624
      1791.8284
   -576261.58249   -449100.27147  24196498.1824   24196495.6004
      -230.1094
 04  9 17 21 41  0.0020000  0  8G 3G 8G13G19G23G27G28G10
   4983343.68249   3874077.57147  23734736.0184   23734732.6044
     -2782.1874
  -2303444.45049  -1794185.94948  21804390.3224   21804386.3224
       699.0314
   5753818.37249   4472576.75848  21393438.2604   21393434.0334
     -3008.4694
   -845862.81049   -660050.29447  22832977.5184   22832972.2644
      -336.7974
  10498860.82849   8160390.22247  24170936.0254   24170934.0724
     -4599.1724
    474921.06149    366172.61748  21331923.1584   21331918.6864
      -419.4534
  -4251423.29949  -3303761.42547  23552945.1664   23552941.3304
      1787.4224
   -572735.94149   -446353.02547  24197170.0414   24197166.5844
      -239.7974
 04  9 17 21 41 15.0020000  0  8G 3G 8G13G19G23G27G28G10
   5025140.74349   3906646.68947  23742689.3934   23742686.4714
     -2790.7344
  -2313908.83949  -1802340.01048  21802398.7754   21802394.6624
       696.1564
   5799002.19149   4507784.91148  21402036.6744   21402031.7954
     -3016.0624
   -840744.90349   -656062.30347  22833951.7294   22833945.7684
      -345.7504
  10567870.04849   8214163.55347  24184069.3544   24184066.0614
     -4602.1254
    481234.00749    371091.79648  21333124.2994   21333120.1464
      -422.2504
  -4278206.62849  -3324631.49947  23547848.2604   23547844.5064
      1783.5634
   -569071.11149   -443497.30747  24197867.4164   24197863.7754
      -248.9374
 04  9 17 21 41 30.0020000  0  8G 3G 8G13G19G23G27G28G10
   5067065.94649   3939315.66347  23750667.3074   23750664.8344
     -2799.4374
  -2324327.34649  -1810458.31548  21800416.5884   21800412.3654
       692.9064
   5844302.07249   4543083.51448  21410656.5184   21410651.9714
     -3023.9844
   -835491.94849   -651969.07747  22834951.5104   22834945.8224
      -354.8444
  10636924.92049   8267972.45547  24197209.7294   24197206.6974
     -4605.2974
    487590.18349    376044.66048  21334334.2684   21334330.0614
      -425.2974
  -4304928.69149  -3345453.84047  23542763.5884   23542759.6074
      1779.2664
   -565266.74549   -440532.90047  24198590.9164   24198588.0494
      -258.4224
 04  9 17 21 41 45.0020000  0  8G 3G 8G13G19G23G27G28G10
   5109118.60949   3972083.97347  23758669.6504   23758667.0184
     -2807.7504
  -2334700.77649  -1818541.50148  21798442.3854   21798438.1934
       690.1094
   5889717.40749   4578472.07348  21419299.1274   21419294.3544
     -3031.5474
   -830104.33549   -647770.92947  22835976.7524   22835970.6274
      -363.7034
  10706024.73949   8321816.37847  24210359.7364   24210356.0574
     -4608.2504
    493989.13249    381030.85848  21335551.6194   21335547.4394
      -427.9844
  -4331589.90849  -3366228.77147  23537690.0254   23537686.0334
      1775.3914
   -561323.39549   -437460.13847  24199341.6894   24199338.6394
      -267.6094
 04  9 17 21 42  0.0020000  0  8G 3G 8G13G19G23G27G28G10
   5151295.93549   4004949.37847  23766695.9474   23766692.8614
     -2816.1564
  -2345031.44049  -1826591.36448  21796476.4164   21796472.4984
       687.2194
   5935245.48849   4613948.49148  21427962.7364   21427958.5104
     -3039.0004
   -824584.50849   -643469.73947  22837026.9794   22837021.6274
      -372.5314
  10775166.61549   8375693.09947  24223515.9864   24223513.5374
     -4610.9534
    500428.40049    386048.46048  21336777.1044   21336772.7794
      -430.7344
  -4358192.81949  -3386958.28447  23532627.1974   23532623.5494
      1771.5944
   -557243.71349   -434281.16247  24200118.5104   24200114.9434
      -276.5784
 04  9 17 21 42 15.0020000  0  8G 3G 8G13G19G23G27G28G10
   5193596.14649   4037910.57147  23774745.4004   23774742.5684
     -2824.0944
  -2355321.03749  -1834609.22748  21794518.5414   21794514.7014
       684.6094
   5980884.63949   4649511.44548  21436647.5184   21436642.7994
     -3046.3284
   -818933.90249   -639066.66647  22838102.3614   22838096.5534
      -381.0474
  10844348.81449   8429601.20847  24236681.7604   24236678.5614
     -4613.5314
    506906.45749    391096.29848  21338010.0254   21338005.5684
      -433.1724
  -4384738.70149  -3407643.33547  23527576.0334   23527572.4634
      1767.8594
   -553029.11949   -430997.10547  24200919.8544   24200917.2174
      -285.5314
 04  9 17 21 42 30.0020000  0  8G 3G 8G13G19G23G27G28G10
   5236021.66049   4070969.40347  23782819.5644   23782816.0414
     -2832.7034
  -2365566.66949  -1842592.83048  21792568.9324   21792565.1664
       681.4224
   6026637.37949   4685162.91748  21445354.1894   21445349.5574
     -3054.1254
   -813149.64749   -634559.43247  22839202.9714   22839197.1154
      -390.2344
  10913573.68749   8483542.61147  24249855.1044   24249851.8224
     -4616.5004
    513426.03549    396176.49148  21339250.5804   21339246.4824
      -436.1564
  -4411224.78849  -3428281.80147  23522535.8614   23522532.3074
      1763.6254
   -548676.98049   -427605.80847  24201748.4164   24201744.7644
      -294.8444
 04  9 17 21 42 45.0020000  0  8G 3G 8G13G19G23G27G28G10
   5278574.59549   4104127.52947  23790915.9164   23790913.3694
     -2841.0784
  -2375766.05449  -1850540.39548  21790628.1354   21790623.8384
       678.4224
   6072505.81449   4720904.53348  21454082.6824   21454077.9794
     -3061.7194
   -807229.50849   -629946.31847  22840329.5644   22840323.5064
      -399.2194
  10982843.24549   8537518.79847  24263036.3224   24263033.6074
     -4619.4844
    519989.50649    401290.88148  21340499.4394   21340495.0764
      -439.0474
  -4437648.81249  -3448871.92547  23517507.6194   23517503.5104
      1759.5474
   -544184.87449   -424105.48247  24202603.0964   24202599.8654
      -304.1874
 04  9 17 21 43  0.0020000  0  8G 3G 8G13G19G23G27G28G10
   5321252.96349   4137383.35847  23799037.6194   23799034.9244
     -2849.4694
  -2385920.91349  -1858453.26348  21788695.6504   21788691.5374
       675.3754
   6118488.00849   4756734.80648  21462832.6894   21462827.9864
     -3069.3594
   -801175.09149   -625228.57547  22841481.5964   22841475.8934
      -408.2664
  11052155.57549   8591528.33447  24276226.1274   24276222.9904
     -4622.3914
    526595.03749    406438.05848  21341756.3464   21341752.1234
      -441.9064
  -4464012.36749  -3469414.89147  23512490.7054   23512487.2644
      1755.4384
   -539554.57249   -420497.41347  24203484.2754   24203480.5104
      -313.4374
 04  9 17 21 43 15.0020000  0  8G 3G 8G13G19G23G27G28G10
   5364059.12949   4170738.81347  23807183.6584   23807180.9364
     -2858.0784
  -2396028.59649  -1866329.37748  21786772.3544   21786768.1624
       672.2344
   6164586.51649   4792655.71348  21471605.0104   21471600.2444
     -3077.1724
   -794983.47749   -620403.92947  22842659.9164   22842654.0804
      -417.4064
  11121513.00949   8645572.97147  24289423.6274   24289421.5724
     -4625.4374
    533245.50249    411620.22948  21343022.2684   21343017.2444
      -444.8914
  -4490312.64249  -3489908.58847  23507486.1504   23507482.1664
      1751.2194
   -534783.34149   -416779.56547  24204391.7834   24204388.0844
      -322.8444
 04  9 17 21 43 30.0020000  0  8G 3G 8G13G19G23G27G28G10
   5406991.02649   4204192.21047  23815352.9084   23815350.6074
     -2866.0004
  -2406090.72549  -1874169.99148  21784857.3144   21784853.3384
       669.6254
   6210799.32149   4828665.67648  21480399.1664   21480394.5104
     -3084.3754
   -788656.39949   -615473.71947  22843863.6044   22843858.0254
      -426.0314
  11190913.35649   8699651.08747  24302631.3384   24302627.9754
     -4627.8284
    539939.06149    416836.00048  21344295.9474   21344291.2054
      -447.3594
  -4516551.43349  -3510354.36047  23502492.7054   23502488.7754
      1747.4694
   -529873.04449   -412953.36947  24205326.6114   24205322.5644
      -331.6414
 04  9 17 21 43 45.0020000  0  8G 3G 8G13G19G23G27G28G10
   5450044.45249   4237740.31547  23823546.5964   23823543.2644
     -2874.5944
  -2416111.19549  -1881978.14448  21782950.4634   21782946.1974
       666.3444
   6257122.24149   4864761.44348  21489213.8694   21489208.8654
     -3092.2034
   -782197.70549   -610440.95547  22845092.8304   22845086.7914
      -435.3124
  11260352.39749   8753759.35247  24315844.1504   24315841.9474
     -4630.9224
    546671.77749    422082.25548  21345576.9794   21345572.3034
      -450.4694
  -4542732.63749  -3530755.26847  23497510.7214   23497506.3894
      1743.1094
   -524827.70749   -409021.96647  24206286.5964   24206282.9004
      -341.1414
 04  9 17 21 44  0.0020000  0  8G 3G 8G13G19G23G27G28G10
   5493227.43749   4271389.39547  23831762.9164   23831761.0214
     -2883.1564
  -2426081.83149  -1889747.46348  21781053.2294   21781048.9904
       663.0634
   6303563.34949   4900949.29648  21498051.6744   21498046.5764
     -3099.9844
   -775599.06649   -605299.14847  22846348.2134   22846342.4514
      -444.5624
  11329838.16549   8807904.00747  24329068.2994   24329064.5764
     -4633.8914
    553451.87149    427365.45548  21346867.0804   21346862.5414
      -453.5624
  -4568847.88049  -3551104.76047  23492540.9324   23492537.4904
      1738.8284
   -519638.97949   -404978.77847  24207273.9004   24207270.5294
      -350.6254
 04  9 17 21 44 15.0020000  0  8G 3G 8G13G19G23G27G28G10
   5536534.56249   4305135.18547  23840004.6974   23840001.9004
     -2891.0944
  -2436007.78649  -1897481.97148  21779164.2994   21779159.6504
       660.4224
   6350117.41549   4937225.18548  21506910.7054   21506905.5374
     -3107.2194
   -768865.59849   -600052.27447  22847629.6584   22847624.3384
      -453.1724
  11399365.28049   8862080.90647  24342298.0104   24342295.2174
     -4636.3914
    560274.35849    432681.67848  21348165.3934   21348160.9754
      -456.0784
  -4594902.22149  -3571406.80047  23487583.1824   23487578.9944
      1735.0474
   -514312.01249   -400827.91647  24208287.6044   24208284.2444
      -359.5624
 04  9 17 21 44 30.0020000  0  8G 3G 8G13G19G23G27G28G10
   5579968.14049   4338979.51747  23848269.8544   23848267.2014
     -2899.8444
  -2445886.49949  -1905179.66748  21777284.4554   21777280.5684
       656.9534
   6396786.82149   4973590.94048  21515791.4324   21515786.5844
     -3115.1874
   -761994.51449   -594698.17248  22848937.0104   22848931.6434
      -462.7664
  11468935.98149   8916291.76547  24355538.3384   24355534.1004
     -4639.4534
    567141.76049    438032.89748  21349472.2604   21349468.0334
      -459.3444
  -4620892.94749  -3591659.28647  23482637.1044   23482633.3384
      1730.5634
   -508844.21449   -396567.29747  24209327.5644   24209324.6934
      -369.1874
 04  9 17 21 44 45.0020000  0  8G 3G 8G13G19G23G27G28G10
   5623526.30649   4372920.90747  23856558.0724   23856556.0184
     -2908.2504
  -2455719.30849  -1912841.59248  21775413.2214   21775409.0924
       653.7504
   6443569.78649   5010045.18548  21524693.7214   21524689.2754
     -3122.8594
   -754987.36749   -589238.03547  22850270.7524   22850264.7324
      -471.9224
  11538548.49149   8970535.18347  24368783.4714   24368780.7404
     -4642.5164
    574052.57749    443417.94248  21350787.4714   21350782.8464
      -462.3284
  -4646821.52449  -3611863.33547  23477702.6434   23477698.6154
      1726.2814
   -503237.17249   -392198.19147  24210394.8384   24210391.3074
      -378.6094
 04  9 17 21 45  0.0020000  0  8G 3G 8G13G19G23G27G28G10
   5667209.21749   4406959.51947  23864871.0254   23864868.6434
     -2916.2504
  -2465506.00349  -1920467.58648  21773551.2834   21773547.1004
       650.9694
   6490466.64449   5046588.15648  21533617.9794   21533613.5574
     -3130.1874
   -747843.63149   -583671.47047  22851629.9164   22851624.2524
      -480.6724
  11608202.84249   9024811.21947  24382039.7524   24382035.9634
     -4644.8914
    581007.22949    448837.15948  21352111.0644   21352106.7094
      -465.0474
  -4672687.49749  -3632018.59347  23472781.0184   23472776.8694
      1722.4224
   -497490.48049   -387720.24047  24211488.6664   24211485.4244
      -387.6724
 04  9 17 21 45 15.0020000  0  8G 3G 8G13G19G23G27G28G10
   5711019.10249   4441097.08747  23873207.8464   23873205.3934
     -2924.7344
  -2475244.13249  -1928055.72248  21771697.9244   21771693.8894
       647.7664
   6537479.57349   5083221.59848  21542564.3074   21542559.5964
     -3137.9224
   -740560.75349   -577996.49147  22853016.0104   22853009.9364
      -490.0004
  11677901.23749   9079121.60947  24395302.7994   24395299.2754
     -4647.9064
    588008.29749    454292.53048  21353443.1664   21353438.3694
      -468.1564
  -4698488.24149  -3652123.04647  23467870.9864   23467867.5844
      1718.0634
   -491601.62449   -383131.51047  24212608.8304   24212605.9044
      -397.1724
 04  9 17 21 45 30.0020000  0  8G 3G 8G13G19G23G27G28G10
   5754955.63149   4475333.29747  23881569.0644   23881566.2684
     -2933.5314
  -2484933.55149  -1935605.92648  21769854.0184   21769849.9204
       644.0944
   6584608.36949   5119945.32148  21551532.8144   21551528.0764
     -3146.0314
   -733138.63849   -572213.01247  22854428.1664   22854422.4824
      -499.6724
  11747643.42449   9133466.08547  24408573.9004   24408571.1044
     -4651.1094
    595055.71549    459784.01648  21354784.0884   21354779.6314
      -471.6254
  -4724223.80149  -3672176.68747  23462973.3304   23462969.8114
      1713.3134
   -485570.61649   -378432.02947  24213757.4634   24213753.6784
      -407.1564
 04  9 17 21 45 45.0020000  0  8G 3G 8G13G19G23G27G28G10
   5799020.30249   4509669.40847  23889954.3774   23889951.2994
     -2941.9064
  -2494572.34349  -1943116.67048  21768019.9244   21768015.7954
       640.8914
   6631854.46349   5156760.44648  21560523.3544   21560518.1974
     -3153.6724
   -725575.58549   -566319.71447  22855867.6824   22855861.4244
      -508.8594
  11817430.79949   9187845.72547  24421853.0964   24421850.6354
     -4653.9374
    602151.22949    465312.99048  21356134.4554   21356129.6114
      -474.6094
  -4749892.38049  -3692178.13747  23458089.4634   23458085.3264
      1709.0164
   -479395.93749   -373620.58347  24214932.6894   24214928.7484
      -416.3914
 04  9 17 21 46  0.0020000  0  8G 3G 8G13G19G23G27G28G10
   5843208.72949   4544101.93547  23898362.1434   23898360.1044
     -2949.7814
  -2504164.53949  -1950591.09548  21766194.4004   21766190.7214
       638.1724
   6679213.75749   5193663.78248  21569535.3774   21569530.8654
     -3160.7664
   -717875.38449   -560319.54047  22857332.7054   22857327.3384
      -517.7034
  11887258.99149   9242257.26347  24435142.0574   24435138.3074
     -4656.3284
    609290.87749    470876.36048  21357492.6044   21357488.2214
      -477.1724
  -4775497.83749  -3712130.40647  23453216.6584   23453212.4794
      1705.2034
   -473081.51249   -368700.24147  24216133.7754   24216130.4394
      -425.4224
 04  9 17 21 46 15.0020000  0  8G 3G 8G13G19G23G27G28G10
   5887522.13649   4578631.83447  23906794.9554   23906792.9594
     -2958.4224
  -2513708.69649  -1958028.10748  21764378.2214   21764374.0254
       634.6414
   6726687.45749   5230656.24948  21578569.0884   21578564.5724
     -3168.7814
   -710036.57049   -554211.36047  22858824.6114   22858818.6784
      -527.2974
  11957129.15649   9296701.45347  24448438.1274   24448435.0184
     -4659.4224
    616476.10149    476475.23148  21358860.2214   21358855.7094
      -480.5944
  -4801038.73449  -3732032.37747  23448356.2134   23448352.2834
      1700.5314
   -466625.85649   -363669.89747  24217361.8934   24217358.8934
      -435.1874
 04  9 17 21 46 30.0020000  0  8G 3G 8G13G19G23G27G28G10
   5931959.77949   4613258.52947  23915251.7754   23915249.1864
     -2966.5944
  -2523205.54149  -1965428.23948  21762571.2604   21762567.0454
       631.5784
   6774275.02949   5267737.46148  21587624.9944   21587620.1314
     -3176.2664
   -702059.65849   -547995.57647  22860342.5574   22860336.7684
      -536.2814
  12027040.52249   9351177.76947  24461741.5644   24461738.7014
     -4662.0004
    623706.40149    482109.21748  21360236.1664   21360231.3464
      -483.5004
  -4826515.59249  -3751884.42447  23443508.0494   23443504.1894
      1696.3594
   -460029.65349   -358529.99347  24218617.3224   24218614.1824
      -444.3124
 04  9 17 21 46 45.0020000  0  8G 3G 8G13G19G23G27G28G10
   5976520.60749   4647981.25347  23923731.4944   23923727.9674
     -2974.8594
  -2532655.84049  -1972792.10848  21760772.6504   21760768.7134
       628.4384
   6821975.20849   5304906.41348  21596702.4554   21596697.4244
     -3183.8124
   -693945.35049   -541672.72447  22861886.8464   22861880.9474
      -545.5004
  12096992.01549   9405685.34747  24475053.2604   24475050.0574
     -4664.7814
    630981.00649    487777.75048  21361620.4794   21361615.9674
      -486.4064
  -4851928.98649  -3771687.03247  23438672.0804   23438668.1434
      1692.1414
   -453293.65049   -353281.16047  24219899.0574   24219895.6314
      -453.7344
 04  9 17 21 47  0.0020000  0  8G 3G 8G13G19G23G27G28G10
   6021204.20049   4682799.62247  23932234.1194   23932231.5644
     -2983.0004
  -2542059.43249  -1980119.57948  21758983.4794   21758979.5724
       625.3444
   6869787.80549   5342162.96548  21605800.2364   21605796.1894
     -3191.2664
   -685693.65949   -535242.82447  22863457.0254   22863450.7754
      -554.6874
  12166983.10349   9460223.73947  24488371.1744   24488368.4474
     -4667.4064
    638299.80349    493480.71148  21363013.5884   21363008.6194
      -489.4374
  -4877278.99349  -3791440.24747  23433847.7834   23433844.2014
      1687.8594
   -446418.02249   -347923.55647  24221207.8074   24221204.2484
      -462.9694
 04  9 17 21 47 15.0020000  0  8G 3G 8G13G19G23G27G28G10
   6066011.75849   4717714.60547  23940760.5024   23940757.8264
     -2991.3284
  -2551415.00549  -1987409.62648  21757203.1044   21757198.6704
       621.9844
   6917714.15649   5379508.16448  21614920.8384   21614916.1194
     -3199.0004
   -677303.01849   -528704.64547  22865053.6354   22865047.4244
      -564.1254
  12237015.03149   9514794.00947  24501697.4634   24501695.2134
     -4670.2194
    645664.46649    499219.41048  21364414.8464   21364410.1704
      -492.5624
  -4902563.97949  -3811142.79947  23429036.1354   23429032.4394
      1683.4384
   -439401.15949   -342455.86047  24222543.2524   24222539.7484
      -472.6254
 04  9 17 21 47 30.0020000  0  8G 3G 8G13G19G23G27G28G10
   6110940.43149   4752723.91347  23949310.4474   23949308.1354
     -2999.2034
  -2560724.87949  -1994664.06448  21755431.2054   21755427.3304
       619.1414
   6965751.45749   5416939.81948  21624061.8934   21624057.3504
     -3206.1254
   -668775.95349   -522060.16547  22866676.3934   22866670.4004
      -572.9844
  12307085.08249   9569393.97047  24515033.6434   24515029.5334
     -4672.6094
    653072.36649    504991.79248  21365824.5104   21365819.7014
      -495.2664
  -4927786.52249  -3830796.69547  23424236.5104   23424231.8614
      1679.4534
   -432245.69649   -336880.15547  24223904.3464   24223900.8934
      -481.5944
 04  9 17 21 47 45.0020000  0  8G 3G 8G13G19G23G27G28G10
   6155993.03349   4787829.81347  23957883.4554   23957881.5214
     -3007.8754
  -2569986.14049  -2001880.63748  21753669.0884   21753664.9364
       615.5944
   7013902.51949   5454460.10648  21633224.6894   21633220.3074
     -3214.0474
   -660109.31349   -515306.93447  22868325.1974   22868319.4754
      -582.6094
  12377195.93449   9624025.72247  24528374.6504   24528371.2684
     -4675.5314
    660526.59449    510800.27548  21367242.8854   21367238.5574
      -498.7194
  -4952943.52249  -3850399.50347  23419449.9394   23419445.9824
      1674.7034
   -424948.58249   -331194.09047  24225293.3614   24225289.5764
      -491.4534
 04  9 17 21 48  0.0020000  0  8G 3G 8G13G19G23G27G28G10
   6201169.80249   4823032.49147  23966481.1274   23966477.8184
     -3015.5314
  -2579198.18649  -2009058.85048  21751915.7294   21751912.1664
       612.8284
   7062167.90549   5492069.48448  21642409.2684   21642404.5414
     -3221.2194
   -651302.42549   -508444.41547  22870000.9864   22869995.4674
      -591.4374
  12447347.85849   9678689.45247  24541722.7294   24541721.4434
     -4677.8124
    668027.71349    516645.30748  21368670.2364   21368666.0614
      -501.3284
  -4978034.21449  -3869950.65747  23414675.3074   23414670.8574
      1670.8284
   -417509.28949   -325397.25847  24226709.0644   24226705.1784
      -500.4534
 04  9 17 21 48 15.0020000  0  8G 3G 8G13G19G23G27G28G10
   6246467.97549   4858329.72947  23975100.6114   23975098.2954
     -3024.0624
  -2588363.20149  -2016200.40248  21750171.9004   21750167.9284
       609.2974
   7110544.64449   5529765.62748  21651615.1044   21651610.6664
     -3228.9844
   -642357.76649   -501474.54547  22871703.2364   22871697.2324
      -601.0624
  12517538.05049   9733383.02947  24555079.0254   24555077.7994
     -4680.7664
    675573.35049    522525.01948  21370106.2524   21370101.7644
      -504.7504
  -5003061.17349  -3889452.15047  23409912.4394   23409908.4794
      1666.1414
   -409930.40749   -319491.66047  24228150.6354   24228146.9794
      -509.9844
 04  9 17 21 48 30.0020000  0  8G 3G 8G13G19G23G27G28G10
   6291887.99049   4893721.94247  23983743.9474   23983741.5184
     -3032.3124
  -2597480.70349  -2023304.95648  21748436.9554   21748433.2324
       605.9534
   7159033.40049   5567549.05148  21660842.1354   21660837.7684
     -3236.6414
   -633274.53149   -494396.68647  22873431.8074   22873425.3184
      -610.4534
  12587767.07549   9788106.81447  24568442.7294   24568441.8894
     -4683.6724
    683164.11649    528439.90348  21371550.8304   21371546.5184
      -507.7814
  -5028023.53749  -3908903.32047  23405162.4164   23405158.0924
      1661.7034
   -402211.16749   -313476.65647  24229619.9474   24229616.1664
      -519.5164
 04  9 17 21 48 45.0020000  0  8G 3G 8G13G19G23G27G28G10
   6337432.38849   4929211.02947  23992410.5574   23992408.1234
     -3039.9694
  -2606547.96449  -2030370.34948  21746711.3144   21746707.5724
       603.2504
   7207636.83549   5605421.83348  21670091.0184   21670086.6234
     -3243.5474
   -624049.92549   -487208.65147  22875186.7054   22875181.0614
      -619.1724
  12658037.21449   9842862.66747  24581816.7524   24581813.7524
     -4685.5944
    690802.95949    534392.25548  21373004.2994   21372999.7294
      -510.2974
  -5052918.46449  -3928301.91747  23400424.6354   23400420.4634
      1657.9384
   -394348.91549   -307350.22747  24231115.8464   24231112.3814
      -528.3914
 04  9 17 21 49  0.0020000  0  8G 3G 8G13G19G23G27G28G10
   6383094.13849   4964791.59547  24001099.6044   24001097.1624
     -3048.2034
  -2615571.55849  -2037401.71448  21744994.2054   21744990.3184
       599.8914
   7256347.93049   5643378.52248  21679360.5644   21679356.0494
     -3251.2194
   -614690.51849   -479915.60947  22876967.9554   22876961.9984
      -628.6254
  12728341.66749   9897645.27947  24595194.7444   24595192.2254
     -4688.2974
    698483.21349    540376.86848  21374465.4714   21374461.2404
      -513.5944
  -5077752.66549  -3947653.21647  23395699.0724   23395694.7444
      1653.5164
   -386350.31849   -301117.56747  24232638.1114   24232634.4084
      -538.0474
 04  9 17 21 49 15.0020000  0  8G 3G 8G13G19G23G27G28G10
   6428879.22549   5000468.27547  24009812.3224   24009810.2714
     -3056.9064
  -2624545.07849  -2044394.07448  21743286.7054   21743282.5534
       596.1564
   7305172.81949   5681423.87848  21688651.5964   21688647.1394
     -3259.1874
   -605189.94849   -472512.57847  22878775.7524   22878770.0104
      -638.4534
  12798686.39349   9952459.24347  24608581.8694   24608578.7134
     -4691.4374
    706211.14249    546398.61148  21375936.3304   21375932.0924
      -517.1564
  -5102519.54649  -3966952.05647  23390986.0254   23390981.9674
      1648.5474
   -378209.13849   -294773.80347  24234187.1194   24234183.8424
      -547.8444
 04  9 17 21 49 30.0020000  0  8G 3G 8G13G19G23G27G28G10
   6474786.30849   5036240.01647  24018547.6824   24018546.2874
     -3064.8914
  -2633469.46449  -2051348.12848  21741588.7054   21741584.5804
       592.9224
   7354110.30649   5719556.96848  21697964.0884   21697959.4594
     -3266.6564
   -595549.17149   -465000.26347  22880610.3774   22880605.0414
      -647.8124
  12869070.04949  10007303.57547  24621975.5104   24621972.2754
     -4693.9224
    713985.82649    552456.81248  21377416.0964   21377411.4044
      -520.2194
  -5127220.19949  -3986199.25947  23386285.6894   23386281.7254
      1644.2194
   -369926.41949   -288319.73147  24235763.6044   24235759.5844
      -557.2034
 04  9 17 21 49 45.0020000  0  8G 3G 8G13G19G23G27G28G10
   6520815.77949   5072107.11547  24027307.9634   24027305.1274
     -3072.9844
  -2642344.32349  -2058263.60248  21739899.9714   21739895.9864
       589.8134
   7403160.76349   5757778.07948  21707298.2214   21707293.9594
     -3273.9534
   -585767.50749   -457378.18547  22882471.9794   22882466.5184
      -656.9694
  12939492.89749  10062178.44347  24635376.5334   24635373.2954
     -4696.3754
    721807.89149    558551.93348  21378904.3544   21378899.7954
      -523.2814
  -5151853.94649  -4005394.38447  23381597.5494   23381593.7874
      1639.8594
   -361501.61849   -281754.96347  24237366.1194   24237362.9004
      -566.5474
 04  9 17 21 50  0.0020000  0  8G 3G 8G13G19G23G27G28G10
   6566966.14349   5108068.43246  24036089.9004   24036086.8114
     -3080.8754
  -2651170.71549  -2065141.30748  21738220.1824   21738216.2054
       586.6414
   7452322.79549   5796086.14448  21716653.5414   21716648.7214
     -3281.3914
   -575846.19449   -449647.27547  22884359.8464   22884354.2754
      -666.2664
  13009953.45949  10117082.69847  24648783.8544   24648781.7874
     -4698.7344
    729676.11849    564683.01648  21380401.5804   21380396.4594
      -526.2974
  -5176421.92649  -4024538.21947  23376922.8224   23376918.6894
      1635.4844
   -352936.01549   -275080.46847  24238996.5724   24238993.0964
      -575.9064
 04  9 17 21 50 15.0020000  0  8G 3G 8G13G19G23G27G28G10
   6613241.30049   5144126.97147  24044896.2994   24044892.5684
     -3088.4694
  -2659944.24449  -2071977.81248  21736550.5184   21736546.7754
       583.8284
   7501600.30149   5834484.18148  21726030.8694   21726025.8144
     -3288.3444
   -565780.81449   -441804.10947  22886275.5254   22886269.6314
      -675.1564
  13080455.71049  10172019.40447  24662200.1354   24662197.9204
     -4700.9064
    737594.72449    570853.36448  21381908.2524   21381904.0024
      -528.9224
  -5200919.79049  -4043627.43847  23372261.3304   23372256.8264
      1631.5784
   -344225.28649   -268292.89547  24240654.2914   24240650.6974
      -584.9224
 04  9 17 21 50 30.0020000  0  8G 3G 8G13G19G23G27G28G10
   6659631.40649   5180275.06947  24053723.7604   24053721.1504
     -3096.4844
  -2668674.58749  -2078780.66948  21734889.0804   21734884.8814
       580.6564
   7550983.73249   5872964.74648  21735427.8774   21735423.6894
     -3295.7194
   -555580.99649   -433856.18147  22888216.1584   22888210.7404
      -684.4694
  13150989.68449  10226980.82047  24675622.8694   24675619.9754
     -4703.2664
    745554.27349    577055.60948  21383423.2214   21383418.6234
      -531.9534
  -5225357.05649  -4062669.42447  23367610.9164   23367606.9394
      1627.1564
   -335379.15049   -261399.81247  24242337.6744   24242333.9044
      -594.2194
 04  9 17 21 50 45.0020000  0  8G 3G 8G13G19G23G27G28G10
   6706144.17549   5216518.75647  24062574.4394   24062571.7914
     -3104.9534
  -2677353.67849  -2085543.60448  21733237.5724   21733233.6114
       576.8914
   7600480.61849   5911533.74648  21744846.9864   21744842.5214
     -3303.5784
   -545238.70649   -425797.24547  22890183.9324   22890178.2644
      -694.2194
  13221563.12849  10281973.01547  24689053.0494   24689050.0764
     -4706.1874
    753562.75749    583295.98348  21384947.1744   21384942.5414
      -535.5784
  -5249725.77849  -4081658.01547  23362973.7834   23362968.9044
      1622.2814
   -326389.70549   -254395.07147  24244048.7754   24244044.9044
      -604.0314
 04  9 17 21 51  0.0020000  0  8G 3G 8G13G19G23G27G28G10
   6752778.13949   5252856.91147  24071448.6354   24071446.0334
     -3113.0004
  -2685982.56149  -2092267.40948  21731595.6824   21731591.8384
       573.3914
   7650089.61949   5950190.07048  21754287.2524   21754282.5254
     -3311.1564
   -534755.10149   -417628.18447  22892179.2994   22892173.7444
      -703.7664
  13292174.53949  10336994.83647  24702489.7914   24702486.9204
     -4708.7194
    761619.05249    589573.61048  21386480.0804   21386475.3964
      -538.8444
  -5274026.97849  -4100593.97947  23358349.1584   23358344.5924
      1617.6724
   -317258.05149   -247279.48747  24245786.0024   24245782.6974
      -613.7504
 04  9 17 21 51 15.0020000  0  8G 3G 8G13G19G23G27G28G10
   6799532.63149   5289288.96347  24080345.1744   24080343.2404
     -3120.7194
  -2694561.86949  -2098952.57448  21729963.1584   21729959.0884
       570.5474
   7699810.29749   5988933.44648  21763748.8464   21763744.3694
     -3318.1724
   -524130.43949   -409349.22747  22894200.9554   22894195.1464
      -712.8124
  13362823.27049  10392045.68947  24715933.7604   24715931.6004
     -4710.8594
    769722.78249    595888.19848  21388022.2524   21388017.8964
      -541.5474
  -5298260.98249  -4119477.59147  23353737.4714   23353733.2914
      1613.6094
   -307984.64049   -240053.45447  24247550.5644   24247547.1464
      -622.6564
 04  9 17 21 51 30.0020000  0  8G 3G 8G13G19G23G27G28G10
   6846405.40749   5325813.18347  24089265.4324   24089262.3264
     -3129.2194
  -2703093.25749  -2105600.40348  21728339.6504   21728335.3894
       566.7504
   7749640.38349   6027762.06348  21773231.0574   21773226.8224
     -3326.1254
   -513366.60549   -400961.80647  22896249.3464   22896243.4554
      -722.5944
  13433507.16749  10447123.98347  24729382.9244   24729381.7604
     -4713.9064
    777872.02549    602238.25848  21389572.7994   21389568.4944
      -545.2194
  -5322429.62649  -4138310.27747  23349138.1974   23349134.2134
      1608.5944
   -298571.46349   -232718.50747  24249341.8774   24249338.7134
      -632.5164
 04  9 17 21 51 45.0020000  0  8G 3G 8G13G19G23G27G28G10
   6893400.27249   5362432.55547  24098208.3304   24098205.5844
     -3136.9224
  -2711572.48249  -2112207.58348  21726725.9244   21726722.0334
       563.6414
   7799583.81549   6066679.00848  21782735.0024   21782730.2054
     -3333.2664
   -502459.34849   -392462.63547  22898324.9474   22898319.0924
      -731.8594
  13504230.11049  10502232.65047  24742842.7834   24742839.7604
     -4716.1254
    786071.02249    608627.08648  21391133.2054   21391128.9284
      -548.1724
  -5346528.79549  -4157088.82747  23344552.2684   23344548.1744
      1604.3594
   -289014.32349   -225271.40347  24251160.7684   24251156.9984
      -641.9064
 04  9 17 21 52  0.0020000  0  7G 3G 8G13G19G27G28G10
   6940517.25049   5399147.05947  24107174.6974   24107171.7404
     -3145.0784
  -2719999.45749  -2118774.05248  21725122.5884   21725118.2444
       560.1414
   7849640.65049   6105684.30748  21792260.6194   21792256.1004
     -3340.8914
   -491408.38749   -383851.48447  22900428.1974   22900422.3504
      -741.5474
    794320.14349    615054.97348  21392702.9794   21392698.6584
      -551.5784
  -5370558.05049  -4175812.88647  23339979.6974   23339975.3304
      1599.6094
   -279313.11049   -217712.01847  24253006.6824   24253003.1114
      -651.5164
 04  9 17 21 52 15.0020000  0  7G 3G 8G13G19G27G28G10
   6987752.00249   5435953.34147  24116162.3144   24116160.2254
     -3152.7194
  -2728378.07449  -2125302.84548  21723528.0804   21723524.2684
       557.0944
   7899806.59649   6144774.64348  21801806.7054   21801802.2324
     -3347.8444
   -480217.77049   -375131.50547  22902557.5104   22902551.5454
      -750.5624
    802615.26349    621518.69548  21394281.3934   21394276.8184
      -554.4694
  -5394521.41749  -4194485.60947  23335419.6894   23335415.3574
      1595.5004
   -269471.98749   -210043.60747  24254879.1824   24254875.9794
      -660.5474
 04  9 17 21 52 30.0020000  0  7G 3G 8G13G19G27G28G10
   7035102.55249   5472849.84346  24125173.5884   24125170.2994
     -3160.4374
  -2736709.89249  -2131795.15448  21721942.3464   21721938.3144
       554.0164
   7950079.98849   6183948.68848  21811373.3544   21811369.0104
     -3355.0004
   -468889.03349   -366303.90047  22904713.2994   22904707.9364
      -759.6874
    810954.90749    628017.12348  21395868.3854   21395863.5414
      -557.3754
  -5418420.42649  -4213108.16447  23330871.9004   23330868.1114
      1591.2034
   -259492.60849   -202267.48247  24256778.4324   24256774.6864
      -669.7974
 04  9 17 21 52 45.0020000  0  7G 3G 8G13G19G27G28G10
   7082572.48149   5509839.36147  24134205.8384   24134204.0104
     -3168.7194
  -2744991.21849  -2138248.14348  21720366.7214   21720362.6354
       550.4064
   8000464.21849   6223209.11148  21820961.3694   21820956.8424
     -3362.6414
   -457418.34249   -357365.68347  22906895.9554   22906889.7174
      -769.4534
    819342.70949    634553.07148  21397464.4944   21397460.0374
      -560.8444
  -5442251.23849  -4231677.62047  23326336.4244   23326332.2054
      1586.4384
   -249371.28249   -194380.76447  24258704.1744   24258701.1894
      -679.5474
 04  9 17 21 53  0.0020000  0  7G 3G 8G13G19G27G28G10
   7130162.81949   5546922.74147  24143262.3224   24143260.2684
     -3176.2504
  -2753220.49149  -2144660.55648  21718800.9164   21718796.8504
       547.3594
   8050960.48049   6262556.81748  21830570.6744   21830565.7914
     -3369.6254
   -445804.36849   -348315.82347  22909105.9794   22909100.3264
      -778.5784
    827780.26049    641127.78448  21399070.2214   21399065.8814
      -563.6874
  -5466012.47949  -4250192.83947  23321815.2754   23321811.0884
      1582.1884
   -239106.66649   -186382.34347  24260657.6044   24260654.1744
      -688.6564
 04  9 17 21 53 15.0020000  0  7G 3G 8G13G19G27G28G10
   7177871.79549   5584098.57447  24152342.7994   24152339.0574
     -3184.6564
  -2761399.31049  -2151033.66748  21717244.4164   21717240.3304
       543.5004
   8101567.06149   6301990.50748  21840200.4634   21840196.1934
     -3377.5624
   -434048.53649   -339155.43047  22911342.6894   22911336.8964
      -788.5944
    836266.04349    647740.07848  21400684.9244   21400680.3964
      -567.4844
  -5489705.56949  -4268654.95447  23317306.6274   23317302.7404
      1577.1414
   -228700.18649   -178273.41247  24262637.6584   24262634.2794
      -698.7194
 04  9 17 21 53 30.0020000  0  7G 3G 8G13G19G27G28G10
   7225701.47849   5621368.40847  24161443.2524   24161440.7134
     -3192.3444
  -2769525.28049  -2157365.57948  21715697.7444   21715694.1074
       540.3444
   8152286.12549   6341511.82348  21849851.9794   21849847.7484
     -3384.7344
   -422148.45349   -329882.61047  22913607.4864   22913601.6194
      -797.8594
    844802.45749    654391.83748  21402309.6664   21402305.3464
      -570.4374
  -5513327.96049  -4287061.97947  23312811.7524   23312807.3774
      1572.8594
   -218149.56349   -170052.14147  24264646.0884   24264642.1624
      -707.8444
 04  9 17 21 53 45.0020000  0  7G 3G 8G13G19G27G28G10
   7273650.87949   5658731.55947  24170567.0804   24170564.7014
     -3200.8594
  -2777598.99149  -2163656.78648  21714161.4554   21714157.4554
       536.2194
   8203116.75049   6381120.08448  21859524.8304   21859519.8814
     -3392.6254
   -410104.74649   -320497.89247  22915899.4004   22915893.8464
      -807.9374
    853388.82649    661082.50348  21403943.3464   21403938.9124
      -574.3444
  -5536880.33149  -4305414.44847  23308329.5574   23308325.1864
      1567.5784
   -207455.62549   -161719.23947  24266680.2604   24266676.7174
      -717.9224
 04  9 17 21 54  0.0020000  0  7G 3G 8G13G19G27G28G10
   7321719.67749   5696187.74847  24179715.1274   24179711.7444
     -3208.1414
  -2785620.30449  -2169907.15348  21712635.0884   21712631.2214
       533.3444
   8254058.90149   6420815.25048  21869218.9634   21869214.5104
     -3399.5004
   -397917.33849   -311001.19747  22918218.4474   22918212.6974
      -816.9534
    862025.32549    667812.22648  21405586.9394   21405582.3224
      -577.1094
  -5560362.59549  -4323712.27847  23303860.8304   23303856.6864
      1563.4534
   -196618.25049   -153274.52247  24268742.7684   24268739.4864
      -726.9064
 04  9 17 21 54 15.0020000  0  7G 3G 8G13G19G27G28G10
   7369903.19549   5733733.33947  24188884.0104   24188881.4794
     -3215.9694
  -2793593.69449  -2176120.18648  21711117.9244   21711113.7604
       530.0944
   8305107.78249   6460593.56448  21878933.0254   21878928.8774
     -3406.7034
   -385590.60849   -301395.93147  22920564.2054   22920558.4794
      -826.3124
    870707.57249    674577.62348  21407238.7684   21407234.9394
      -580.2814
  -5583779.05049  -4341958.84247  23299404.8544   23299400.9004
      1559.0164
   -185642.03449   -144721.63947  24270830.9714   24270828.3654
      -736.2504
 04  9 17 21 54 30.0020000  0  7G 3G 8G13G19G27G28G10
   7418204.51549   5771370.70647  24198074.5184   24198072.9474
     -3223.9064
  -2801515.32449  -2182292.88848  21709610.4324   21709606.2644
       526.4844
   8356266.66749   6500457.62148  21888668.5884   21888663.8074
     -3414.1564
   -373121.14949   -291679.46647  22922936.9164   22922931.2684
      -835.9064
    879438.91649    681381.26248  21408900.6504   21408896.0644
      -583.6094
  -5607126.20149  -4360151.41547  23294962.3384   23294957.8114
      1554.1724
   -174523.72849   -136058.03147  24272947.3614   24272944.2134
      -745.9064
 04  9 17 21 54 45.0020000  0  7G 3G 8G13G19G27G28G10
   7466619.26649   5809096.46247  24207288.3774   24207285.8774
     -3231.2814
  -2809389.72149  -2188428.77948  21708111.9474   21708107.2484
       523.4384
   8407531.08649   6540403.90248  21898423.9474   21898419.4164
     -3421.0784
   -360512.95649   -281854.88547  22925336.4394   22925330.9324
      -845.1254
    888215.48849    688220.14148  21410570.6584   21410566.2404
      -586.5474
  -5630408.25749  -4378293.23147  23290531.7134   23290527.2834
      1550.0164
   -163267.39349   -127286.88147  24275089.2834   24275086.0614
      -754.9844
 04  9 17 21 55  0.0020000  0  7G 3G 8G13G19G27G28G10
   7515150.04049   5846912.63947  24216523.9554   24216521.2054
     -3239.1874
  -2817213.81249  -2194525.46248  21706623.3464   21706619.1974
       519.8914
   8458903.79749   6580434.56048  21908199.5574   21908195.1274
     -3428.4844
   -347763.07649   -271919.89847  22927762.2444   22927756.3934
      -854.7034
    897040.09049    695096.46748  21412249.9084   21412245.4324
      -589.8914
  -5653622.08749  -4396381.90347  23286114.4084   23286109.5144
      1545.3444
   -151870.22949   -118405.98047  24277258.4944   24277255.3774
      -764.5474
 04  9 17 21 55 15.0020000  0  7G 3G 8G13G19G27G28G10
   7563799.76249   5884821.49447  24225780.6744   24225778.4044
     -3246.9374
  -2824984.50749  -2200580.54948  21705144.3384   21705139.9824
       516.5944
   8510387.75149   6620551.90948  21917996.7994   21917992.7094
     -3435.5944
   -334868.40249   -261872.08647  22930216.2994   22930210.7994
      -864.0944
    905915.88549    702012.66848  21413938.8074   21413934.2254
      -593.1094
  -5676764.59549  -4414414.99347  23281710.6894   23281706.2014
      1540.7814
   -140329.21249   -109412.97047  24279454.5334   24279451.3614
      -773.8594
 04  9 17 21 55 30.0020000  0  7G 3G 8G13G19G27G28G10
   7612565.76549   5922820.94947  24235061.9554   24235058.5254
     -3255.5004
  -2832703.78049  -2206595.56048  21703675.5024   21703671.1864
       512.4384
   8561980.51949   6660754.05148  21927814.3934   21927810.0884
     -3443.7344
   -321831.22749   -251713.23547  22932697.1354   22932691.2954
      -874.4374
    914840.72849    708967.09348  21415637.0024   21415632.2644
      -597.2344
  -5699837.88749  -4432394.16047  23277319.6274   23277315.2444
      1535.3284
   -128646.48349   -100309.53647  24281677.2524   24281674.4554
      -784.1414
 04  9 17 21 55 45.0020000  0  7G 3G 8G13G19G27G28G10
   7661447.65749   5960910.73147  24244363.0494   24244360.6934
     -3262.5784
  -2840371.68249  -2212570.55448  21702216.2054   21702211.9634
       509.5164
   8613681.64749   6701040.62748  21937652.9084   21937648.3034
     -3450.3284
   -308651.53349   -241443.34047  22935205.3384   22935199.3734
      -883.3594
    923814.48749    715959.62248  21417344.8074   21417340.3544
      -599.8754
  -5722841.99849  -4450319.42347  23272941.9394   23272937.6664
      1531.3754
   -116822.37749    -91095.97447  24283927.4394   24283924.3774
      -792.9534
 04  9 17 21 56  0.0020000  0  7G 3G 8G13G19G27G28G10
   7710445.00849   5999090.45347  24253686.8074   24253684.0724
     -3270.4844
  -2847988.53849  -2218505.76048  21700766.7834   21700762.6394
       505.8914
   8665490.83649   6741411.39448  21947511.7604   21947507.4554
     -3457.7194
   -295329.48849   -231062.51947  22937740.0184   22937734.4754
      -893.0164
    932837.13049    722990.25348  21419061.7294   21419056.9714
      -603.3444
  -5745777.22149  -4468191.00147  23268577.6894   23268573.3544
      1526.5314
   -104857.07149    -81772.37747  24286204.4324   24286201.0104
      -802.4844
 04  9 17 21 56 15.0020000  0  7G 3G 8G13G19G27G28G10
   7759553.57349   6037356.84947  24263032.1974   24263029.0844
     -3277.8124
  -2855558.10049  -2224404.11548  21699326.3694   21699322.3224
       502.9694
   8717403.96449   6781863.16548  21957390.6894   21957386.5684
     -3464.5004
   -281868.84649   -220573.70047  22940301.7294   22940295.5724
      -902.1724
    941904.82649    730055.97548  21420787.1274   21420782.7364
      -606.1254
  -5768647.23949  -4486011.76547  23264225.1584   23264220.9984
      1522.3754
    -92754.40249    -72341.73947  24288507.1044   24288504.5294
      -811.6414
 04  9 17 21 56 30.0020000  0  7G 3G 8G13G19G27G28G10
   7808774.54049   6075710.82347  24272398.4474   24272395.6074
     -3285.1874
  -2863078.92449  -2230264.49448  21697895.2684   21697891.1504
       499.7194
   8769422.32849   6822396.93648  21967289.4164   21967285.1114
     -3471.5004
   -268268.26949   -209975.83747  22942889.9714   22942883.9674
      -911.4374
    951019.06449    737157.97548  21422521.7054   21422517.1154
      -609.2504
  -5791450.51849  -4503780.54047  23259886.1664   23259881.6154
      1517.9534
    -80513.11149    -62803.05047  24290836.7834   24290833.2364
      -820.7504
 04  9 17 21 56 45.0020000  0  7G 3G 8G13G19G27G28G10
   7858111.05749   6114154.84247  24281787.1274   24281784.2214
     -3292.7034
  -2870547.44849  -2236084.12048  21696473.9324   21696469.8264
       496.5004
   8821549.03349   6863015.11948  21977208.8384   21977205.0144
     -3478.4224
   -254524.25049   -199266.20447  22945505.1894   22945499.0684
      -920.7664
    960183.28849    744298.93648  21424265.6974   21424261.4364
      -612.2504
  -5814183.62749  -4521494.61247  23255560.2834   23255555.9324
      1513.5004
    -68129.72849    -53153.68147  24293193.6584   24293190.2564
      -830.0474
 04  9 17 21 57  0.0020000  0  7G 3G 8G13G19G27G28G10
   7907563.07349   6152688.85947  24291198.2604   24291195.0024
     -3300.5314
  -2877963.39249  -2241862.77748  21695062.5884   21695058.6824
       492.6094
   8873784.15249   6903717.78848  21987148.8304   21987144.4794
     -3485.9224
   -240636.47549   -188444.55047  22948147.9714   22948141.7834
      -930.6414
    969397.95149    751479.18648  21426019.1194   21426014.5804
      -616.0004
  -5836846.13949  -4539153.67747  23251247.6274   23251243.2714
      1508.5634
    -55604.13249    -43393.49447  24295577.1194   24295574.0644
      -839.7034
 04  9 17 21 57 15.0020000  0  7G 3G 8G13G19G27G28G10
   7957128.47149   6191311.22047  24300629.5024   24300627.0144
     -3308.3124
  -2885328.55449  -2247601.86348  21693661.5184   21693656.9514
       489.1094
   8926125.70049   6944503.39348  21997109.1504   21997104.8424
     -3493.2344
   -226606.74549   -177512.28747  22950817.8934   22950811.7524
      -940.3444
    978661.20649    758697.29648  21427781.6974   21427777.1824
      -619.3914
  -5859439.90149  -4556759.18447  23246948.0024   23246943.4674
      1503.7974
    -42938.17049    -33523.91547  24297987.3614   24297983.7254
      -849.2344
 04  9 17 21 57 30.0020000  0  7G 3G 8G13G19G27G28G10
   8006806.44849   6230021.32347  24310082.8144   24310080.2834
     -3315.4374
  -2892643.22749  -2253301.61248  21692269.3614   21692265.0644
       486.1094
   8978572.90749   6985371.32648  22007089.7214   22007085.2834
     -3499.8284
   -212435.44449   -166469.71247  22953514.4714   22953508.5064
      -949.3444
    987972.74749    765953.04548  21429553.6504   21429549.3034
      -622.1724
  -5881965.12849  -4574311.27947  23242661.8464   23242657.5964
      1499.5634
    -30132.39649    -23545.40647  24300424.2684   24300421.3964
      -858.2664
 04  9 17 21 57 45.0020000  0  7G 3G 8G13G19G27G28G10
   8056596.97849   6268819.10647  24319557.2914   24319555.0574
     -3322.7974
  -2899907.11849  -2258961.77448  21690887.0334   21690882.7994
       482.9384
   9031125.71049   7026321.53148  22017090.4324   22017085.7754
     -3506.7344
   -198122.38749   -155316.68847  22956238.2524   22956232.6784
      -958.5624
    997332.74449    773246.54748  21431334.9944   21431330.2754
      -625.2814
  -5904421.69149  -4591809.88447  23238388.3774   23238384.0924
      1495.1254
    -17186.76349    -13457.90447  24302887.5414   24302884.3694
      -867.3754
 04  9 17 21 58  0.0020000  0  7G 3G 8G13G19G27G28G10
   8106494.81249   6307700.51447  24329052.3854   24329050.3464
     -3330.3124
  -2907125.42249  -2264586.43048  21689513.4244   21689508.8774
       479.4694
   9083779.19349   7067350.19848  22027109.4794   22027105.2834
     -3513.7344
   -183672.53549   -144057.04847  22958988.0494   22958982.3034
      -968.1094
   1006736.27349    780573.97148  21433124.4004   21433119.8504
      -628.5624
  -5926814.46349  -4609258.75347  23234127.0964   23234122.8074
      1490.5004
     -4106.32149     -3265.34647  24305376.7054   24305373.1154
      -876.7344
 04  9 17 21 58 15.0020000  0  7G 3G 8G13G19G27G28G10
   8156503.70249   6346668.44247  24338569.0184   24338566.8074
     -3337.5164
  -2914293.73949  -2270172.12448  21688149.2994   21688145.6274
       476.3444
   9136537.04449   7108460.19948  22037149.4324   22037144.8614
     -3520.5164
   -169081.77949   -132687.62447  22961764.2604   22961758.3814
      -977.2344
   1016187.47049    787938.53648  21434922.9794   21434918.5574
      -631.5474
  -5949139.26749  -4626654.68147  23229878.7684   23229874.5334
      1486.1414
      9113.07549      7035.45147  24307892.8854   24307889.5414
      -885.7664
 04  9 17 21 58 30.0020000  0  7G 3G 8G13G19G27G28G10
   8206624.00249   6385723.21447  24348106.6744   24348104.0414
     -3344.6564
  -2921411.30049  -2275718.27748  21686795.2294   21686790.8424
       473.2504
   9189399.83149   7149651.95648  22047208.7754   22047204.2094
     -3527.3754
   -154349.34549   -121207.81047  22964568.0644   22964562.3694
      -986.5314
   1025687.03549    795340.78648  21436730.6664   21436725.6114
      -634.5944
  -5971395.44749  -4643997.14547  23225643.4554   23225639.0294
      1481.8444
     22471.97249     17444.98347  24310434.5804   24310431.4634
      -894.8594
 04  9 17 21 58 45.0020000  0  7G 3G 8G13G19G27G28G10
   8256851.13449   6424861.20447  24357665.3854   24357662.3304
     -3352.2974
  -2928482.36249  -2281228.19448  21685449.2834   21685445.1974
       469.5634
   9242362.95949   7190921.91948  22057287.1114   22057282.6154
     -3534.5004
   -139479.52249   -109620.92847  22967397.4084   22967391.8814
      -996.1564
   1035230.85749    802777.52648  21438546.8144   21438541.9984
      -638.0004
  -5993587.09149  -4661289.30647  23221420.2834   23221416.2254
      1477.0314
     35966.16449     27959.94047  24313002.1584   24312999.5414
      -904.3914
 04  9 17 21 59  0.0020000  0  7G 3G 8G13G19G27G28G10
   8307190.48149   6464086.67847  24367244.3224   24367241.2564
     -3359.5314
  -2935501.31349  -2286697.50748  21684113.6194   21684109.3894
       466.3594
   9295431.88849   7232274.31548  22067385.9244   22067381.4984
     -3541.2504
   -124466.65449    -97922.59447  22970254.1504   22970248.4244
     -1005.5004
   1044824.71149    810253.25248  21440372.3614   21440367.4364
      -641.1564
  -6015708.53649  -4678526.78347  23217210.6974   23217206.2174
      1472.4844
     49601.18449     38584.60747  24315596.7684   24315593.7254
      -913.5944
 04  9 17 21 59 15.0020000  0  7G 3G 8G13G19G27G28G10
   8357644.92649   6503401.78647  24376844.8144   24376843.0294
     -3367.3284
  -2942464.84349  -2292123.63048  21682788.5104   21682784.0414
       462.5944
   9348609.47249   7273711.36048  22077505.2914   22077501.1464
     -3548.7034
   -109307.65649    -86110.38447  22973139.0104   22973133.2294
     -1015.3284
   1054471.64949    817770.34848  21442208.2524   21442203.7954
      -644.7664
  -6037756.69449  -4695707.12247  23213015.1824   23213011.2254
      1467.5164
     63380.02549     49321.36747  24318218.8074   24318215.8654
      -923.2504
 04  9 17 21 59 30.0020000  0  7G 3G 8G13G19G27G28G10
   8408215.58449   6542807.48147  24386468.4714   24386466.2484
     -3375.3444
  -2949371.40649  -2297505.36948  21681474.5964   21681470.2014
       458.4224
   9401897.06949   7315234.14248  22087645.7524   22087641.2484
     -3556.3284
    -94000.88849    -74183.03047  22976051.7834   22976046.1234
     -1025.4844
   1064173.25949    825330.03648  21444054.2054   21444049.3114
      -648.6724
  -6059729.79449  -4712829.00747  23208833.7914   23208829.9674
      1462.2194
     77304.00149     60171.21147  24320869.1584   24320865.5214
      -933.2664
 04  9 17 21 59 45.0020000  0  7G 3G 8G13G19G27G28G10
   8458895.63249   6582298.39547  24396112.5494   24396110.3774
     -3382.2344
  -2956227.47649  -2302847.75348  21680169.5104   21680164.8964
       455.5314
   9455287.94049   7356837.40148  22097805.5414   22097801.0294
     -3562.7974
    -78552.74549    -62145.52147  22978991.5494   22978985.6704
     -1034.4844
   1073923.36549    832927.52348  21445909.5884   21445905.1544
      -651.5474
  -6081634.22249  -4729897.36647  23204665.7364   23204661.3034
      1458.1094
     91366.69049     71129.15647  24323544.5574   24323541.4674
      -942.0314
 04  9 17 22  0  0.0020000  0  7G 3G 8G13G19G27G28G10
   8509686.26949   6621875.48347  24405777.7134   24405775.6074
     -3389.4534
  -2963031.29649  -2308149.43248  21678874.9554   21678870.6864
       452.0944
   9508783.23949   7398522.02148  22107985.2444   22107980.9754
     -3569.6254
    -62961.84549    -49996.76947  22981958.4244   22981952.2954
     -1043.9064
   1083723.42349    840563.93248  21447774.6824   21447770.1074
      -654.8124
  -6103468.55849  -4746911.10147  23200510.8074   23200506.4084
      1453.4844
    105569.58949     82196.33147  24326247.9554   24326244.0294
      -951.3284
 04  9 17 22  0 15.0020000  0  7G 3G 8G13G19G27G28G10
   8560587.16849   6661538.49547  24415463.6434   24415461.3614
     -3397.1254
  -2969783.17749  -2313410.64048  21677590.0254   21677585.4864
       448.3754
   9562382.77749   7440287.87548  22118184.7294   22118180.9284
     -3576.8284
    -47228.27649    -37736.84747  22984952.2214   22984946.4794
     -1053.7344
   1093573.18249    848239.05548  21449648.9864   21449644.5214
      -658.3594
  -6125232.80649  -4763870.23147  23196369.0964   23196364.8184
      1448.5314
    119912.37249     93372.52647  24328976.9164   24328973.2644
      -960.8124
 04  9 17 22  0 30.0020000  0  7G 3G 8G13G19G27G28G10
   8611597.08149   6701286.48147  24425170.3304   24425168.1434
     -3404.1094
  -2976483.97649  -2318632.03348  21676314.7994   21676310.7794
       445.2194
   9616085.36249   7482134.02048  22128404.3694   22128399.8034
     -3583.4374
    -31352.99949    -25366.50347  22987973.3144   22987967.5534
     -1062.8914
   1103471.90349    855952.35348  21451532.6354   21451528.1114
      -661.2814
  -6146927.79849  -4780775.39247  23192240.2994   23192236.2094
      1444.1884
    134393.90749    104656.83547  24331732.7294   24331729.2754
      -969.8754
 04  9 17 22  0 45.0030000  0  7G 3G 8G13G19G27G28G10
   8662722.42549   6741124.39847  24434899.5304   24434897.4994
     -3411.5164
  -2983130.53649  -2323811.17348  21675050.3274   21675046.5264
       441.6564
   9669897.60549   7524065.61148  22138644.4214   22138640.3784
     -3590.3444
    -15331.62449    -12882.30747  22991021.9134   22991016.4254
     -1072.4534
   1113423.54949    863706.87548  21453426.3974   21453421.8784
      -664.7664
  -6168551.70349  -4797625.17747  23188125.5224   23188121.6244
      1439.5314
    149018.37949    116052.52047  24334514.8194   24334512.4994
      -979.2344
 04  9 17 22  1  0.0030000  0  7G 3G 8G13G19G27G28G10
   8713950.63849   6781042.44747  24444648.2334   24444645.3314
     -3418.7814
  -2989727.48649  -2328951.64648  21673794.8824   21673791.1714
       438.0784
   9723806.63949   7566072.63148  22148902.9684   22148898.5624
     -3597.3594
       828.31149      -290.15547  22994097.1714   22994091.1904
     -1082.0314
   1123421.48149    871497.46648  21455329.1554   21455324.3044
      -668.2194
  -6190106.96249  -4814421.45947  23184023.7804   23184019.8904
      1434.7034
    163778.37649    127553.80047  24337324.0774   24337320.9374
      -988.6874
 04  9 17 22  1 15.0030000  0  7G 3G 8G13G19G27G28G10
   8765284.82349   6821043.09347  24454416.3584   24454414.6284
     -3425.7344
  -2996275.24549  -2334053.78948  21672548.6474   21672544.5344
       434.9224
   9777815.94649   7608157.78648  22159180.6324   22159176.8084
     -3603.8754
     17127.86749     12410.79047  22997199.1554   22997193.3824
     -1091.2034
   1133466.47749    879324.73448  21457240.0774   21457235.8584
      -671.1414
  -6211594.98749  -4831165.34147  23179934.8044   23179930.5934
      1430.3754
    178674.87649    139161.45947  24340159.0854   24340155.8194
      -997.5314
 04  9 17 22  1 30.0030000  0  7G 3G 8G13G19G27G28G10
   8816726.91249   6861127.80146  24464205.5934   24464203.6874
     -3433.1564
  -3002771.44849  -2339115.76448  21671312.5854   21671308.2224
       431.3444
   9831927.58049   7650322.68548  22169477.6554   22169473.2294
     -3610.9064
     33569.38449     25222.36047  23000327.5774   23000321.6674
     -1100.8594
   1143560.81349    887190.44848  21459161.1794   21459156.7884
      -674.6564
  -6233013.31749  -4847854.93447  23175858.6944   23175854.3194
      1425.5004
    193710.14849    150877.23247  24343019.7654   24343016.5194
     -1007.0624
 04  9 17 22  1 45.0030000  0  7G 3G 8G13G19G27G28G10
   8868274.42449   6901294.68947  24474014.4914   24474012.2144
     -3439.9064
  -3009218.12749  -2344139.15148  21670085.9134   21670081.6554
       428.1724
   9886139.22849   7692565.50248  22179793.7574   22179789.3624
     -3617.3594
     50150.76249     38142.91147  23003482.7964   23003477.0854
     -1110.0784
   1153702.54649    895093.09548  21461091.0624   21461086.8314
      -677.5314
  -6254364.09449  -4864491.88747  23171796.0464   23171791.9994
      1421.2194
    208881.96949    162699.43647  24345907.3044   24345904.1164
     -1015.9224
 04  9 17 22  2  0.0030000  0  7G 3G 8G13G19G27G28G10
   8919933.87649   6941548.77047  24483844.7724   24483842.9404
     -3447.4374
  -3015608.46149  -2349118.63048  21668869.9604   21668865.6674
       424.4064
   9940457.29849   7734891.24348  22190130.3124   22190126.2334
     -3624.4374
     66878.68549     51177.66047  23006666.0774   23006660.3314
     -1119.7974
   1163898.45349    903037.96048  21463031.3584   21463026.5264
      -681.3284
  -6275640.45649  -4881070.84947  23167746.7884   23167742.7764
      1416.1254
    224196.88049    174633.13647  24348821.3194   24348818.3974
     -1025.5004
 04  9 17 22  2 15.0030000  0  7G 3G 8G13G19G27G28G10
   8971699.47349   6981885.59547  24493695.6084   24493694.0424
     -3454.8754
  -3021947.85149  -2354058.41048  21667663.4444   21667659.4724
       420.6564
   9994876.05949   7777295.45348  22200485.6874   22200481.4134
     -3631.5784
     83747.67949     64322.32747  23009876.2334   23009870.5694
     -1129.5944
   1174143.11149    911020.81348  21464980.7414   21464976.0934
      -684.8594
  -6296847.79349  -4897596.02847  23163711.6014   23163707.1324
      1411.2504
    239649.34049    186674.00947  24351761.9444   24351758.9684
     -1035.0314
 04  9 17 22  2 30.0030000  0  7G 3G 8G13G19G27G28G10
   9023572.18149   7022305.83247  24503566.5384   24503564.8044
     -3461.7194
  -3028235.04349  -2358957.51248  21666466.9684   21666462.5504
       417.3594
  10049396.50549   7819778.90348  22210860.6714   22210856.4404
     -3638.1724
    100759.05849     77577.94647  23013113.0854   23013107.4444
     -1138.8914
   1184437.74749    919042.59648  21466940.1244   21466935.5424
      -688.0624
  -6317984.91649  -4914066.49947  23159689.3904   23159685.1714
      1406.7504
    255240.40449    198822.87547  24354728.7264   24354725.4174
     -1044.0164
 04  9 17 22  2 45.0030000  0  7G 3G 8G13G19G27G28G10
   9075550.91949   7062808.71447  24513458.0464   24513456.1284
     -3468.4534
  -3034470.52149  -2363816.32048  21665280.1794   21665276.3004
       414.2664
  10104018.13249   7862341.18748  22221254.9214   22221250.5264
     -3644.5624
    117912.13149     90943.98447  23016377.4834   23016371.3824
     -1148.0164
   1194781.81449    927102.91448  21468908.1944   21468903.8514
      -691.0164
  -6339052.46949  -4930482.74447  23155680.0544   23155676.0424
      1402.3754
    270969.32849    211079.16647  24357721.9214   24357718.9874
     -1052.9534
 04  9 17 22  3  0.0030000  0  7G 3G 8G13G19G27G28G10
   9127634.43549   7103393.26447  24523369.3044   24523367.3234
     -3476.3284
  -3040655.36449  -2368635.67748  21664103.5384   21664099.1944
       410.0164
  10158739.33949   7904981.06748  22231668.1084   22231663.2924
     -3651.9224
    135205.85349    104419.60447  23019668.1714   23019662.5894
     -1158.1724
   1205174.37049    935201.00448  21470885.9374   21470881.4094
      -695.0314
  -6360051.32049  -4946845.47647  23151684.7184   23151679.8544
      1396.9694
    286834.96349    223441.99647  24360741.0224   24360737.9484
     -1062.8284
 04  9 17 22  3 15.0030000  0  7G 3G 8G13G19G27G28G10
   9179828.29349   7144063.76746  24533301.6554   24533299.4254
     -3483.3444
  -3046783.81749  -2373411.08948  21662937.3744   21662933.1594
       406.5944
  10213565.76349   7947702.93048  22242101.2414   22242096.8824
     -3658.7194
    152646.18849    118009.48047  23022987.1014   23022981.3274
     -1167.6254
   1215621.39749    943341.55048  21472873.7964   21472869.7454
      -698.4064
  -6380975.55649  -4963150.04747  23147702.7804   23147698.4254
      1392.4224
    302843.16249    235915.92247  24363787.6554   24363784.0694
     -1072.0004
 04  9 17 22  3 30.0030000  0  7G 3G 8G13G19G27G28G10
   9232129.57349   7184817.97546  24543254.2884   24543252.2144
     -3490.2664
  -3052858.06849  -2378144.26948  21661781.3974   21661776.8944
       403.1884
  10268494.45349   7990504.49348  22252553.9834   22252549.6324
     -3665.3284
    170230.41249    131711.47047  23026333.3434   23026327.6904
     -1177.0314
   1226120.38249    951522.56448  21474871.5154   21474867.0384
      -701.6094
  -6401827.62149  -4979398.37947  23143734.8664   23143730.5074
      1387.8134
    318991.27049    248498.82847  24366860.6874   24366856.5654
     -1081.1094
 04  9 17 22  3 45.0030000  0  7G 3G 8G13G19G27G28G10
   9284534.55249   7225653.04146  24553226.1554   24553224.6944
     -3497.3124
  -3058881.58749  -2382837.90848  21660635.0934   21660631.4334
       399.6724
  10323521.68849   8033382.82548  22263025.2264   22263021.0384
     -3671.9534
    187955.09249    145522.90547  23029706.2264   23029700.2144
     -1186.4844
   1236668.02249    959741.52048  21476879.2804   21476874.6514
      -704.9694
  -6422610.96149  -4995593.17747  23139779.7184   23139775.3354
      1383.0634
    335275.74549    261188.04447  24369958.8744   24369955.8154
     -1090.3284
 04  9 17 22  4  0.0030000  0  7G 3G 8G13G19G27G28G10
   9337045.89249   7266570.91346  24563219.1634   24563217.2534
     -3504.0944
  -3064851.16249  -2387489.52448  21659499.2104   21659495.1364
       396.3134
  10378650.48949   8076340.31848  22273515.7184   22273511.5774
     -3678.4374
    205823.22349    159446.12747  23033106.4684   23033100.1904
     -1195.8124
   1247267.20549    968000.61948  21478895.8194   21478891.5584
      -708.1564
  -6443322.45049  -5011731.97647  23135838.6084   23135834.0344
      1378.5474
    351699.56949    273985.82247  24373085.0154   24373081.5424
     -1099.3754
 04  9 17 22  4 15.0030000  0  7G 3G 8G13G19G27G28G10
   9389663.72949   7307571.78646  24573232.1084   24573229.3974
     -3511.3124
  -3070766.45249  -2392098.84148  21658373.8354   21658369.3354
       392.5944
  10433881.06749   8119377.12048  22284025.6874   22284021.4054
     -3685.4224
    223835.26949    173481.48047  23036533.9684   23036527.9994
     -1205.5314
   1257918.50249    976300.32248  21480922.8194   21480918.3274
      -711.7974
  -6463961.76349  -5027814.53447  23131910.9994   23131906.7374
      1373.5944
    368262.98949    286892.37547  24376236.4374   24376233.4914
     -1108.8594
 04  9 17 22  4 30.0030000  0  7G 3G 8G13G19G27G28G10
   9442381.13849   7348650.29046  24583264.4764   24583261.6124
     -3517.9224
  -3076634.04149  -2396670.98148  21657256.9834   21657252.9524
       389.4064
  10489206.47049   8162487.80448  22294554.1474   22294549.7224
     -3691.6414
    241984.56449    187623.78047  23039987.7334   23039981.8544
     -1214.7034
   1268615.43149    984635.59848  21482958.3974   21482953.9404
      -714.7974
  -6484535.35249  -5043845.88747  23127996.0464   23127991.6674
      1369.1884
    384959.24849    299902.43547  24379413.4994   24379410.8974
     -1117.6724
 04  9 17 22  4 45.0030000  0  7G 3G 8G13G19G27G28G10
   9495203.98649   7389810.93146  24593315.8354   24593313.4334
     -3525.3914
  -3082447.44449  -2401200.90348  21656150.7884   21656146.5114
       385.4534
  10544632.63049   8205676.99848  22305101.3434   22305097.2374
     -3698.7194
    260277.24449    201877.81047  23043468.5384   23043462.6324
     -1224.6094
   1279364.15349    993011.21548  21485004.0464   21484999.3084
      -718.6874
  -6505036.94049  -5059821.13147  23124094.7724   23124090.3744
      1364.0944
    401794.49449    313020.80547  24382616.6084   24382614.0894
     -1127.2664
 04  9 17 22  5  0.0030000  0  7G 3G 8G13G19G27G28G10
   9548130.85949   7431052.62147  24603387.7804   24603385.2184
     -3531.6094
  -3088207.76949  -2405689.47148  21655054.5074   21655050.1714
       382.5004
  10600158.35249   8248943.76848  22315667.6084   22315662.2804
     -3704.7814
    278712.29449    216242.79447  23046976.8434   23046971.3824
     -1233.5004
   1290163.75749   1001426.50548  21487058.9054   21487054.7454
      -721.3594
  -6525467.50349  -5075741.01947  23120206.5544   23120202.4484
      1359.9844
    418767.47649    326246.49847  24385847.0304   24385843.6364
     -1135.7814
 04  9 17 22  5 15.0030000  0  7G 3G 8G13G19G27G28G10
   9601160.60449   7472374.44447  24613479.3974   24613476.6754
     -3538.9374
  -3093915.84249  -2410137.32048  21653968.2804   21653964.3124
       378.6254
  10655782.44649   8292287.19948  22326252.2104   22326248.3944
     -3711.7664
    297288.87649    230718.04847  23050511.7724   23050506.2764
     -1243.2814
   1301013.46749   1009880.81148  21489123.3434   21489118.7764
      -725.1094
  -6545827.95649  -5091606.28747  23116332.0854   23116327.8354
      1354.8754
    435877.29049    339578.78847  24389103.2184   24389099.8434
     -1145.3914
 04  9 17 22  5 30.0030000  0  7G 3G 8G13G19G27G28G10
   9654294.66849   7513777.59946  24623588.7964   24623587.5384
     -3545.4534
  -3099569.80449  -2414543.00548  21652892.4604   21652888.2064
       375.5004
  10711506.38549   8335708.43748  22336856.4294   22336852.2144
     -3717.9534
    316008.66849    245304.89847  23054073.7654   23054067.8544
     -1252.4694
   1311914.93849   1018375.47348  21491198.1554   21491193.5694
      -728.2504
  -6566116.47549  -5107415.51147  23112471.0774   23112466.8274
      1350.4694
    453125.38449    353018.89047  24392385.4134   24392381.7924
     -1154.1564
 04  9 17 22  5 45.0030000  0  7G 3G 8G13G19G27G28G10
   9707532.44049   7555261.53246  24633720.4834   24633718.1444
     -3552.7814
  -3105169.89749  -2418906.70248  21651826.8124   21651822.6554
       371.4384
  10767329.81249   8379207.18448  22347479.2104   22347474.9294
     -3725.0164
    334871.45949    260003.17647  23057663.2024   23057657.7414
     -1262.4064
   1322868.25049   1026910.51448  21493282.2024   21493277.7924
      -732.0944
  -6586333.27849  -5123168.83647  23108624.1014   23108620.2844
      1345.2974
    470511.56949    366566.54547  24395694.2264   24395690.3194
     -1163.7664
 04  9 17 22  6  0.0030000  0  7G 3G 8G13G19G27G28G10
   9760873.13949   7596825.69847  24643871.2574   24643868.6594
     -3559.7034
  -3110716.44749  -2423228.69348  21650771.4914   21650766.9254
       367.8134
  10823251.97349   8422782.87048  22358120.6244   22358116.5854
     -3731.6724
    353876.73349    274812.48347  23061280.1324   23061274.3704
     -1271.9534
   1333872.81249   1035485.49348  21495376.5384   21495372.0424
      -735.4844
  -6606478.65749  -5138866.50247  23104790.6714   23104786.3904
      1340.4384
    488035.15349    380221.26647  24399029.1084   24399025.3514
     -1173.0314
 04  9 17 22  6 15.0030000  0  7G 3G 8G13G19G27G28G10
   9814320.76949   7638473.20647  24654042.0464   24654039.7064
     -3566.0624
  -3116205.00049  -2427505.47648  21649726.7964   21649723.4094
       364.6414
  10879276.86149   8466438.61248  22368782.2494   22368777.8944
     -3737.7344
    373028.75149    289736.12847  23064924.5074   23064918.9794
     -1281.0164
   1344933.11349   1044103.90948  21497481.2884   21497476.9174
      -738.5314
  -6626548.35549  -5154505.20947  23100971.7574   23100967.3514
      1336.0784
    505700.55849    393986.50247  24402390.0464   24402387.0384
     -1181.7194
 04  9 17 22  6 30.0030000  0  7G 3G 8G13G19G27G28G10
   9867864.20449   7680195.31046  24664230.8124   24664228.7454
     -3572.7504
  -3121646.50749  -2431745.61748  21648691.4764   21648687.3514
       361.1724
  10935393.53149   8510165.88148  22379460.8904   22379456.1874
     -3744.2194
    392316.68749    304765.68847  23068594.8194   23068589.0074
     -1290.4374
   1356038.44449   1052757.41648  21499594.3584   21499590.0264
      -741.8444
  -6646553.02849  -5170093.24147  23097164.9054   23097160.3864
      1331.4534
    523496.68749    407853.59547  24405776.9134   24405773.2654
     -1190.8444
 04  9 17 22  6 45.0030000  0  7G 3G 8G13G19G27G28G10
   9921508.49649   7721996.01147  24674438.5224   24674436.9484
     -3579.0624
  -3127035.47949  -2435944.81248  21647665.7804   21647662.0894
       358.1414
  10991606.98649   8553968.52848  22390157.7264   22390153.3084
     -3750.1414
    411745.85049    319905.29147  23072291.9684   23072286.3904
     -1299.4224
   1367194.20549   1061450.21548  21501717.2804   21501712.6874
      -744.7814
  -6666487.40449  -5185626.50547  23093371.4444   23093366.9794
      1327.2194
    541428.75749    421826.64247  24409188.5694   24409185.7614
     -1199.3914
 04  9 17 22  7  0.0030000  0  7G 3G 8G13G19G27G28G10
   9975252.70049   7763874.61447  24684666.1714   24684663.8904
     -3586.5314
  -3132372.39349  -2440103.45148  21646650.4294   21646645.8514
       353.7344
  11047916.51949   8597846.07748  22400873.2024   22400868.9094
     -3757.4694
    431315.72749    335154.55247  23076015.9994   23076010.9054
     -1309.5944
   1378399.92249   1070181.93648  21503850.0694   21503845.3824
      -749.0164
  -6686351.91449  -5201105.31747  23089591.2184   23089587.0544
      1321.6724
    559496.03149    435905.04447  24412626.4214   24412623.8124
     -1209.2664
 04  9 17 22  7 15.0030000  0  7G 3G 8G13G19G27G28G10
  10029105.08649   7805837.48247  24694913.7494   24694911.4994
     -3593.4064
  -3137648.51249  -2444214.70548  21645646.0224   21645642.4524
       350.0634
  11104330.31549   8641804.85248  22411608.4134   22411604.1124
     -3763.9844
    451034.74849    350520.01747  23079768.6474   23079762.9174
     -1319.2344
   1389664.19949   1078959.29748  21505993.1794   21505988.6754
      -752.6254
  -6706137.84549  -5216522.90947  23085826.1874   23085821.6594
      1316.7974
    577707.01249    450095.39047  24416092.6944   24416089.5154
     -1218.4844
 04  9 17 22  7 30.0030000  0  7G 3G 8G13G19G27G28G10
  10083058.51749   7847879.10546  24705181.2264   24705178.6594
     -3599.9694
  -3142870.68949  -2448283.93748  21644652.3664   21644648.3354
       346.5784
  11160841.30949   8685839.37748  22422362.0934   22422357.8904
     -3770.3914
    470896.05649    365996.35247  23083548.0854   23083542.5194
     -1328.5944
   1400980.27049   1087777.01048  21508146.4994   21508141.8584
      -755.9534
  -6725852.14549  -5231884.67947  23082074.8904   23082069.9764
      1312.1414
    596054.75149    464392.29747  24419583.8124   24419580.7574
     -1227.4844
 04  9 17 22  7 45.0030000  0  7G 3G 8G13G19G27G28G10
  10137112.16749   7889998.80746  24715467.1714   24715464.6244
     -3607.0004
  -3148039.31249  -2452311.42448  21643669.1714   21643665.3154
       342.7194
  11217448.84749   8729949.12648  22433134.3274   22433130.3354
     -3777.1254
    490899.28049    381583.28547  23087354.4134   23087349.0304
     -1338.3444
   1412347.74149   1096634.77748  21510309.9374   21510305.2374
      -759.6254
  -6745495.19349  -5247190.93547  23078336.3904   23078332.3584
      1307.1564
    614538.64249    478795.33347  24423101.1634   24423097.8084
     -1236.8594
 04  9 17 22  8  0.0030000  0  7G 3G 8G13G19G27G28G10
  10191266.34749   7932196.83546  24725772.0464   24725769.5854
     -3613.6724
  -3153153.63549  -2456296.61948  21642695.6634   21642692.4724
       339.0004
  11274153.28249   8774134.37348  22443924.6244   22443920.2144
     -3783.6874
    511044.88349    397281.15447  23091188.2414   23091182.5854
     -1347.9374
   1423767.24149   1105533.08948  21512482.5694   21512478.3234
      -763.2194
  -6765066.41949  -5262441.22447  23074612.6714   23074608.4834
      1302.1724
    633159.06949    493304.75547  24426644.6404   24426641.5584
     -1246.0474
 04  9 17 22  8 15.0030000  0  7G 3G 8G13G19G27G28G10
  10245520.54349   7974472.78746  24736096.6554   24736093.9444
     -3620.4224
  -3158213.78449  -2460239.60048  21641732.8974   21641728.8434
       335.2664
  11330954.19949   8818394.80048  22454733.5774   22454729.3234
     -3790.2034
    531332.59049    413089.74647  23095048.4214   23095042.6124
     -1357.4844
   1435238.74149   1114471.91048  21514665.7414   21514661.1014
      -766.8124
  -6784565.89049  -5277635.58647  23070901.7724   23070897.2534
      1297.3284
    651915.84249    507920.40047  24430213.6474   24430210.9134
     -1255.2814
 04  9 17 22  8 30.0030000  0  7G 3G 8G13G19G27G28G10
  10299875.20349   8016827.06747  24746439.9684   24746437.6084
     -3626.9224
  -3163219.09749  -2464139.83848  21640780.4444   21640776.1084
       331.8914
  11387852.00449   8862730.73748  22465560.8904   22465556.5344
     -3796.4064
    551763.18249    429009.68447  23098936.5854   23098930.5464
     -1366.7034
   1446762.99149   1123451.84448  21516858.7184   21516854.2224
      -769.9694
  -6803992.75049  -5292773.38047  23067204.6084   23067200.1834
      1292.7194
    670809.50449    522642.73847  24433809.1474   24433806.0264
     -1264.0944
 04  9 17 22  8 45.0030000  0  7G 3G 8G13G19G27G28G10
  10354330.55349   8059259.81446  24756802.7334   24756800.1244
     -3633.6564
  -3168168.71849  -2467996.68048  21639838.5854   21639834.5654
       328.2194
  11444847.12949   8907142.50748  22476406.7334   22476402.4684
     -3802.7664
    572337.36349    445041.52047  23102851.7414   23102845.9404
     -1376.2814
   1458340.77149   1132473.49348  21519062.1714   21519057.3194
      -773.5164
  -6823346.32749  -5307854.06747  23063521.8194   23063517.6164
      1287.8754
    689840.67949    537472.21547  24437431.0384   24437427.5654
     -1273.1874
 04  9 17 22  9  0.0030000  0  7G 3G 8G13G19G27G28G10
  10408885.63949   8101770.22546  24767183.7804   24767181.6014
     -3640.2974
  -3173063.28549  -2471810.62048  21638907.1554   21638903.0384
       324.4534
  11501938.74749   8951629.46447  22487271.1794   22487266.7654
     -3809.3124
    593054.44749    461184.69047  23106793.8274   23106788.3154
     -1385.8594
   1469971.50849   1141536.40348  21521275.1554   21521270.4724
      -777.0624
  -6842627.13549  -5322878.04647  23059853.1944   23059848.4724
      1282.9694
    709008.68649    552408.31747  24441078.4374   24441075.0304
     -1282.4064
 04  9 17 22  9 15.0030000  0  7G 3G 8G13G19G27G28G10
  10463538.94249   8144357.22146  24777583.8974   24777581.9214
     -3647.0944
  -3177903.89349  -2475582.53048  21637985.6554   21637981.1874
       320.6564
  11559125.25549   8996190.34648  22498153.2104   22498148.8474
     -3815.7814
    613912.94049    477438.05347  23110763.3274   23110757.4014
     -1395.5004
   1481654.09849   1150639.71148  21523498.2804   21523493.8824
      -780.8284
  -6861836.49549  -5337846.36647  23056197.4214   23056193.0384
      1278.0164
    728311.93049    567449.79547  24444752.0934   24444748.7104
     -1291.6874
 04  9 17 22  9 30.0030000  0  7G 3G 8G13G19G27G28G10
  10518294.97249   8187024.20446  24788003.9834   24788001.9644
     -3653.7504
  -3182685.59949  -2479308.51648  21637075.9914   21637072.1124
       317.0004
  11616411.29249   9040828.79848  22509054.4604   22509050.2454
     -3822.2504
    634917.71049    493805.41947  23114760.0624   23114754.4724
     -1405.0474
   1493393.29849   1159787.15348  21525731.8664   21525727.8044
      -784.4374
  -6880969.49549  -5352755.17847  23052556.5154   23052551.8044
      1273.1254
    747755.13349    582600.32747  24448451.5694   24448448.2614
     -1300.7194
 04  9 17 22  9 45.0030000  0  7G 3G 8G13G19G27G28G10
  10573149.30449   8229767.82446  24798442.8904   24798440.4334
     -3660.3124
  -3187412.27649  -2482991.65648  21636176.5544   21636171.9254
       313.1724
  11673792.58549   9085541.47148  22519973.4374   22519969.1794
     -3828.6874
    656064.70649    510283.57347  23118784.3194   23118778.4094
     -1414.6874
   1505185.21949   1168975.64948  21527976.4054   21527972.0154
      -788.0004
  -6900030.25849  -5367607.69847  23048929.2964   23048925.0654
      1268.2664
    767334.14449    597856.68247  24452177.2804   24452174.1874
     -1309.8594
 04  9 17 22 10  0.0030000  0  7G 3G 8G13G19G27G28G10
  10628103.53649   8272589.31546  24808899.8274   24808897.8664
     -3666.9064
  -3192082.23649  -2486630.57348  21635287.9214   21635283.7764
       309.4844
  11731270.75249   9130329.63448  22530911.2804   22530907.1754
     -3835.1094
    677355.75449    526874.00647  23122836.1554   23122829.8904
     -1424.2344
   1517031.74249   1178206.70448  21530230.2724   21530226.2144
      -791.6414
  -6919016.75849  -5382402.34747  23045316.6014   23045311.9564
      1263.2504
    787050.57949    613220.12047  24455928.9444   24455926.0654
     -1319.0314
 04  9 17 22 10 15.0030000  0  7G 3G 8G13G19G27G28G10
  10683159.41149   8315489.95546  24819375.1634   24819374.5734
     -3673.5164
  -3196693.12949  -2490223.48148  21634410.3904   21634406.5264
       305.7194
  11788847.74049   9175194.79248  22541868.0154   22541863.6794
     -3841.4534
    698792.95049    543578.31347  23126915.1474   23126909.0894
     -1433.6724
   1528935.15449   1187482.09748  21532495.6554   21532491.2024
      -795.1564
  -6937926.71449  -5397137.36847  23041718.0854   23041713.3394
      1258.4064
    806906.54949    628692.30247  24459707.2804   24459704.4914
     -1328.1094
 04  9 17 22 10 30.0030000  0  7G 3G 8G13G19G27G28G10
  10738309.01649   8358463.64146  24829871.0154   24829868.9014
     -3679.8914
  -3201252.64249  -2493776.34248  21633542.9684   21633538.8154
       302.2034
  11846515.30249   9220130.53948  22552841.5304   22552837.8354
     -3847.6094
    720368.62849    560390.52347  23131020.9524   23131015.1674
     -1443.0624
   1540887.83449   1196795.86848  21534770.1794   21534765.9604
      -798.5004
  -6956767.83249  -5411818.72247  23038132.5224   23038127.6244
      1253.7344
    826894.26549    644267.14147  24463510.8974   24463507.9644
     -1337.0474
 04  9 17 22 10 45.0030000  0  7G 3G 8G13G19G27G28G10
  10793554.73749   8401512.25346  24840384.8434   24840382.0304
     -3685.9844
  -3205757.92349  -2497286.94748  21632685.7654   21632681.3904
       298.7034
  11904276.12649   9265138.95148  22563833.4764   22563829.3004
     -3853.6094
    742085.34949    577312.63347  23135153.8354   23135147.8154
     -1452.2344
   1552892.57049   1206150.20948  21537054.6404   21537050.1834
      -801.8594
  -6975537.38549  -5426444.33947  23034560.5384   23034556.2764
      1249.1254
    847016.16949    659946.50647  24467340.1794   24467337.1714
     -1345.7814
 04  9 17 22 11  0.0030000  0  7G 3G 8G13G19G27G28G10
  10848897.89049   8444636.77346  24850914.8664   24850914.0384
     -3692.5944
  -3210207.16549  -2500753.87948  21631838.9994   21631834.4794
       295.0634
  11962131.63349   9310221.14447  22574842.4054   22574838.8864
     -3859.9224
    763944.78649    594345.95447  23139313.7884   23139307.6124
     -1461.8594
   1564951.22749   1215546.55048  21539349.3124   21539344.6404
      -805.4844
  -6994233.67449  -5441012.86447  23031002.8354   23030998.5264
      1244.2504
    867273.83049    675731.69847  24471195.4294   24471191.9684
     -1354.7034
 04  9 17 22 11 15.0030000  0  7G 3G 8G13G19G27G28G10
  10904335.81749   8487835.11746  24861465.3434   24861463.0544
     -3698.7974
  -3214602.45949  -2504178.78148  21631002.6084   21630998.2414
       291.3914
  12020079.33849   9355375.17248  22585869.8514   22585865.9764
     -3866.0624
    785944.60349    611488.66947  23143499.5694   23143494.1944
     -1471.1564
   1577061.58949   1224983.20948  21541653.9994   21541649.1904
      -808.8754
  -7012858.89149  -5455525.99347  23027458.5854   23027454.5034
      1239.4844
    887664.91049    691620.85947  24475075.7024   24475072.2104
     -1363.6414
 04  9 17 22 11 30.0030000  0  7G 3G 8G13G19G27G28G10
  10959869.63049   8531108.23346  24872032.6474   24872031.0654
     -3705.5784
  -3218942.51749  -2507560.63248  21630176.4294   21630172.6044
       287.3444
  12078120.31749   9400601.89147  22596914.9134   22596910.7144
     -3872.6414
    808086.25849    628741.91147  23147713.7574   23147707.5734
     -1481.0784
   1589224.97649   1234461.16948  21543968.4994   21543963.6754
      -812.8754
  -7031411.59149  -5469982.63047  23023928.1794   23023923.6364
      1234.2194
    908190.63049    707614.88947  24478981.2884   24478978.4444
     -1373.0004
 04  9 17 22 11 45.0030000  0  7G 3G 8G13G19G27G28G10
  11015497.44549   8574454.48146  24882617.5384   24882616.7064
     -3711.1874
  -3223228.88149  -2510900.65948  21629360.7264   21629356.7024
       284.1884
  12136252.72049   9445899.84548  22607976.9834   22607972.9604
     -3878.2344
    830368.05549    646104.34147  23151953.2264   23151947.4684
     -1489.9224
   1601439.98749   1243979.36748  21546292.8974   21546288.3124
      -815.8284
  -7049893.29949  -5484383.92747  23020411.2964   23020406.7614
      1229.9694
    928849.25949    723712.53547  24482912.3124   24482909.1794
     -1381.4224
 04  9 17 22 12  0.0030000  0  7G 3G 8G13G19G27G28G10
  11071219.08349   8617873.94646  24893220.6714   24893219.8044
     -3717.8754
  -3227461.15049  -2514198.53048  21628555.6324   21628551.2294
       280.5314
  12194476.47149   9491268.96647  22619056.8124   22619052.6904
     -3884.4374
    852790.04549    663576.02747  23156220.1014   23156215.0264
     -1499.2814
   1613706.91749   1253538.01548  21548626.9764   21548622.6084
      -819.3284
  -7068303.80649  -5498729.75947  23016907.8124   23016903.3974
      1225.2034
    949640.85749    739913.77147  24486868.9214   24486865.6834
     -1390.3914
 04  9 17 22 12 15.0030000  0  7G 3G 8G13G19G27G28G10
  11127036.24649   8661367.82546  24903843.0774   24903841.1874
     -3724.6254
  -3231637.38249  -2517452.74048  21627760.8044   21627756.2414
       276.1254
  12252793.21349   9536710.57047  22630153.5624   22630149.5424
     -3891.2344
    875354.14949    681158.42847  23160513.8354   23160507.9994
     -1509.3914
   1626027.71449   1263138.62448  21550971.8904   21550967.4954
      -823.5944
  -7086641.15549  -5513018.57747  23013418.6244   23013413.8194
      1219.6564
    970567.12949    756219.90847  24490851.4604   24490848.4484
     -1399.9534
 04  9 17 22 12 30.0030000  0  7G 3G 8G13G19G27G28G10
  11182952.81849   8704939.14046  24914484.6874   24914482.2654
     -3730.9374
  -3235753.11849  -2520659.79848  21626977.6474   21626973.3154
       272.5164
  12311207.12649   9582227.87447  22641269.5154   22641265.8824
     -3897.3444
    898064.60849    698854.88947  23164835.4994   23164829.7534
     -1518.7664
   1638406.79849   1272784.66048  21553327.6244   21553323.2334
      -827.0474
  -7104900.91849  -5527246.94447  23009943.8194   23009939.4134
      1214.8284
    991632.34149    772634.37547  24494859.7654   24494856.3394
     -1408.7974
 04  9 17 22 12 45.0030000  0  7G 3G 8G13G19G27G28G10
  11238954.57849   8748576.86046  24925139.9444   24925139.2334
     -3736.5474
  -3239822.05749  -2523830.39848  21626203.3904   21626199.0544
       269.3444
  12369703.89549   9627809.75047  22652401.3664   22652397.3314
     -3902.8594
    920907.41549    716654.46547  23169182.4834   23169176.4444
     -1527.5624
   1650830.38649   1282465.37248  21555691.3664   21555687.0774
      -830.0784
  -7123096.97749  -5541425.68247  23006481.2574   23006476.5654
      1210.6414
   1012822.39049    789146.07947  24498892.2804   24498888.9134
     -1417.0944
 04  9 17 22 13  0.0030000  0  7G 3G 8G13G19G27G28G10
  11295050.44849   8792287.91146  24935816.2964   24935814.2184
     -3742.8284
  -3243835.14749  -2526957.48548  21625439.8354   21625435.6984
       265.6884
  12428292.66549   9673463.31247  22663550.4914   22663546.6554
     -3908.9694
    943891.82149    734564.39147  23173556.4374   23173550.4604
     -1537.0164
   1663307.73249   1292187.97448  21558065.5694   21558061.3354
      -833.6254
  -7141220.11849  -5555547.58447  23003032.3274   23003027.6904
      1205.8134
   1034146.36649    805762.15747  24502950.4214   24502947.3514
     -1426.0314
 04  9 17 22 13 15.0030000  0  7G 3G 8G13G19G27G28G10
  11351242.67149   8836074.02046  24946508.5544   24946507.1014
     -3749.0624
  -3247789.56149  -2530038.83748  21624687.0384   21624682.8354
       261.7974
  12486975.61149   9719190.25847  22674717.3124   22674713.5894
     -3915.1724
    967020.35149    752586.62047  23177957.6164   23177952.0544
     -1546.5474
   1675841.59649   1301954.61848  21560450.9994   21560446.4874
      -837.2974
  -7159267.58849  -5569610.52247  22999597.6714   22999593.2924
      1200.7664
   1055606.67349    822484.47247  24507034.1474   24507030.6554
     -1435.0944
 04  9 17 22 13 30.0030000  0  7G 3G 8G13G19G27G28G10
  11407527.85149   8879932.57646  24957219.1874   24957217.6714
     -3755.8124
  -3251688.06949  -2533076.62948  21623945.2964   21623941.1714
       257.7664
  12545749.71049   9764988.25247  22685901.3274   22685897.4444
     -3921.6254
    990290.00649    770718.81347  23182385.4914   23182380.0544
     -1556.2974
   1688428.97649   1311762.96148  21562846.5304   21562841.8354
      -841.2974
  -7177242.42049  -5583616.88047  22996177.2494   22996172.6554
      1195.5944
   1077200.18749    839310.55347  24511143.3274   24511139.8434
     -1444.3284
 04  9 17 22 13 45.0030000  0  7G 3G 8G13G19G27G28G10
  11463912.65349   8923868.77246  24967949.3664   24967947.4054
     -3761.9224
  -3255524.04249  -2536065.69548  21623215.1084   21623211.1984
       254.0784
  12604621.35949   9810862.22647  22697104.7024   22697100.8864
     -3927.5314
   1013707.55949    788966.25647  23186841.8744   23186836.0814
     -1565.6414
   1701077.01749   1321618.58348  21565253.2574   21565248.4874
      -844.7974
  -7195137.71649  -5597561.24447  22992772.4524   22992767.8704
      1190.8284
   1098933.70449    856245.76347  24515278.9764   24515275.7764
     -1453.0944
 04  9 17 22 14  0.0030000  0  7G 3G 8G13G19G27G28G10
  11520388.95049   8967876.21846  24978696.2724   24978694.1444
     -3768.3284
  -3259304.82949  -2539011.75748  21622496.1404   21622491.6404
       249.9224
  12663582.54349   9856805.99347  22708324.4914   22708320.5974
     -3934.0314
   1037265.15349    807322.81447  23191324.6014   23191318.6084
     -1575.5624
   1713777.84449   1331515.32848  21567670.1634   21567665.4094
      -848.7664
  -7212961.14249  -5611449.61147  22989380.3744   22989376.2184
      1185.5004
   1120799.19049    873283.78447  24519439.5934   24519436.5734
     -1462.3914
 04  9 17 22 14 15.0030000  0  7G 3G 8G13G19G27G28G10
  11576959.07949   9011956.86546  24989461.2104   24989459.4014
     -3774.1874
  -3263027.88849  -2541912.84048  21621787.0544   21621782.9794
       246.7034
  12722635.73149   9902821.42847  22719562.0304   22719558.3124
     -3939.5314
   1060965.39849    825790.53647  23195834.7654   23195828.4834
     -1584.4064
   1726534.26549   1341455.38848  21570097.1714   21570092.8314
      -851.9374
  -7230710.00249  -5625279.87147  22986002.9604   22985997.8354
      1181.1724
   1142799.19149    890426.63247  24523625.9214   24523623.4644
     -1470.7664
 04  9 17 22 14 30.0030000  0  7G 3G 8G13G19G27G28G10
  11633618.92549   9056107.26946  25000242.5544   25000241.8314
     -3780.3444
  -3266696.81649  -2544771.73948  21621089.2414   21621085.2844
       242.7814
  12781776.81649   9948905.37447  22730816.1794   22730811.9334
     -3945.6564
   1084804.52049    844366.46947  23200371.2264   23200365.6904
     -1593.9534
   1739342.78949   1351436.05948  21572534.6714   21572530.5224
      -855.6414
  -7248387.92449  -5639054.85347  22982638.9764   22982634.1674
      1176.1414
   1164929.84949    907671.27147  24527837.5934   24527834.3234
     -1479.7034
 04  9 17 22 14 45.0030000  0  7G 3G 8G13G19G27G28G10
  11690371.32249   9100329.97946  25011042.8974   25011040.9994
     -3786.6724
  -3270308.21549  -2547585.81948  21620401.6874   21620397.5264
       238.7504
  12841008.84949   9995060.16947  22742087.8044   22742083.5624
     -3951.9534
   1108785.63749    863053.04547  23204934.7334   23204928.5074
     -1603.5944
   1752206.56449   1361459.77148  21574982.5774   21574978.1164
      -859.5314
  -7265991.79049  -5652772.13747  22979289.4054   22979284.5464
      1171.0314
   1187194.11949    925020.04247  24532074.0464   24532070.7454
     -1488.8594
 04  9 17 22 15  0.0030000  0  7G 3G 8G13G19G27G28G10
  11747213.96149   9144622.86946  25021860.4054   25021858.0264
     -3792.4374
  -3273864.26149  -2550356.76248  21619725.1554   21619721.0224
       235.3594
  12900329.50649  10041284.04847  22753376.2104   22753372.1514
     -3957.5474
   1132906.50949    881848.53247  23209524.6554   23209518.5344
     -1612.6414
   1765123.52649   1371524.93648  21577440.7654   21577436.2804
      -862.7814
  -7283523.68349  -5666433.32747  22975952.7334   22975948.0114
      1166.4844
   1209589.76949    942471.17647  24536336.0224   24536333.1204
     -1497.2974
 04  9 17 22 15 15.0030000  0  6G 8G13G19G27G28G10
  -3277363.06749  -2553083.09748  21619059.3044   21619055.0974
       231.3284
  12959740.15649  10087578.03147  22764681.6324   22764677.6164
     -3963.7974
   1157168.83449    900754.23647  23214141.8824   23214136.0504
     -1622.2504
   1778095.46049   1381632.93148  21579909.1324   21579904.7224
      -866.6724
  -7300981.85649  -5680037.08247  22972631.0624   22972626.3904
      1161.4064
   1232118.26049    960025.85147  24540623.3514   24540619.8084
     -1506.4064
 04  9 17 22 15 30.0030000  0  6G 8G13G19G27G28G10
  -3280801.01449  -2555762.01748  21618405.2264   21618400.6044
       227.2974
  13019244.15849  10133944.76447  22776004.8664   22776000.5384
     -3969.9224
   1181576.03849    919772.83147  23218786.2884   23218780.3584
     -1631.7664
   1791126.05249   1391786.64448  21582388.8274   21582384.7804
      -870.4844
  -7318362.68649  -5693580.55747  22969323.2574   22969318.5814
      1156.2344
   1254782.95149    977686.62147  24544936.0934   24544932.4444
     -1515.2974
 04  9 17 22 15 45.0030000  0  6G 8G13G19G27G28G10
  -3284185.42649  -2558399.21948  21617761.2574   21617757.4174
       223.6564
  13078833.84249  10180378.25947  22787344.3974   22787340.5384
     -3975.6564
   1206120.66549    938898.51147  23223456.7884   23223451.1674
     -1641.0624
   1804207.86649   1401980.25248  21584878.5384   21584874.0114
      -873.9844
  -7335673.57149  -5707069.54347  22966029.1714   22966024.3944
      1151.6564
   1277576.40149    995447.72947  24549273.9764   24549270.4794
     -1524.0314
 04  9 17 22 16  0.0030000  0  6G 8G13G19G27G28G10
  -3287512.79449  -2560991.96948  21617127.9054   21617123.6474
       220.2344
  13138512.08549  10226880.76747  22798700.9214   22798697.0304
     -3981.2034
   1230806.03249    958133.87247  23228154.4214   23228148.9484
     -1650.0474
   1817344.45549   1412216.55148  21587378.4684   21587373.5734
      -877.2814
  -7352911.07149  -5720501.33647  22962748.8354   22962744.6674
      1147.0004
   1300501.83049   1013311.69047  24553636.0154   24553632.6834
     -1532.3914
 04  9 17 22 16 15.0030000  0  6G 8G13G19G27G28G10
  -3290781.31849  -2563538.86648  21616506.1014   21616502.0034
       215.8754
  13198280.71149  10273453.68847  22810074.3664   22810070.6594
     -3987.6414
   1255634.06149    977480.38347  23232879.1164   23232873.1984
     -1659.9694
   1830538.05349   1422497.27348  21589889.0304   21589884.3544
      -881.4844
  -7370073.13949  -5733874.35547  22959483.0464   22959477.9794
      1141.5784
   1323561.07549   1031279.90147  24558024.0464   24558020.9214
     -1541.8284
 04  9 17 22 16 30.0030000  0  6G 8G13G19G27G28G10
  -3293991.04149  -2566039.95348  21615895.5464   21615891.3514
       212.1254
  13258139.16849  10320096.62847  22821465.0544   22821461.4174
     -3993.4534
   1280604.32349    996937.72647  23237630.4294   23237625.0894
     -1669.3284
   1843788.24749   1432822.09348  21592410.4834   21592405.5934
      -885.1254
  -7387160.09749  -5747188.85747  22956231.2654   22956226.7494
      1136.7344
   1346753.52049   1049351.91747  24562437.6554   24562433.9054
     -1550.4844
 04  9 17 22 16 45.0030000  0  6G 8G13G19G27G28G10
  -3297141.14549  -2568494.57348  21615295.5544   21615291.3704
       208.0004
  13318088.00649  10366809.97347  22832872.9834   22832869.1444
     -3999.6564
   1305717.57549   1016506.49347  23242409.5624   23242403.5694
     -1679.0004
   1857095.85449   1443191.64948  21594942.4444   21594938.1084
      -889.1414
  -7404171.12649  -5760444.19247  22952994.1874   22952989.8004
      1131.4384
   1370079.88349   1067528.28647  24566876.4914   24566873.0694
     -1559.6094
 04  9 17 22 17  0.0030000  0  6G 8G13G19G27G28G10
  -3300233.75349  -2570904.39248  21614707.4134   21614703.3624
       204.0634
  13378124.61049  10413591.72247  22844297.7574   22844293.5624
     -4005.5944
   1330971.31849   1036184.74247  23247215.1474   23247209.2374
     -1688.5784
   1870458.73249   1453604.28048  21597485.5154   21597481.1944
      -892.9064
  -7421108.42549  -5773642.06247  22949771.1164   22949766.4994
      1126.4694
   1393537.65149   1085807.05247  24571339.9684   24571336.9834
     -1568.4374
 04  9 17 22 17 15.0030000  0  6G 8G13G19G27G28G10
  -3303269.93049  -2573270.23148  21614129.5934   21614125.1514
       200.2664
  13438247.58849  10460440.76747  22855738.7574   22855734.8974
     -4011.2814
   1356364.24349   1055971.43547  23252047.4764   23252041.4604
     -1697.7344
   1883875.75449   1464059.10748  21600038.3194   21600033.6594
      -896.5474
  -7437973.24249  -5786783.44947  22946561.7104   22946556.9014
      1121.6254
   1417125.26549   1104187.01747  24575828.6404   24575825.7374
     -1577.0784
 04  9 17 22 17 30.0030000  0  6G 8G13G19G27G28G10
  -3306246.64149  -2575589.75148  21613562.9214   21613559.2064
       196.3914
  13498459.71249  10507359.28147  22867197.0854   22867192.5814
     -4017.0944
   1381899.55049   1075869.07647  23256906.3274   23256900.2414
     -1707.1254
   1897350.27549   1474558.73048  21602602.4684   21602598.0974
      -900.2194
  -7454762.33749  -5799865.84347  22943366.8584   22943362.3084
      1116.7504
   1440845.83849   1122670.54547  24580342.9684   24580339.1594
     -1585.8124
 04  9 17 22 17 45.0030000  0  6G 8G13G19G27G28G10
  -3309165.32349  -2577864.04548  21613007.7104   21613003.5694
       192.8444
  13558758.95249  10554345.67947  22878671.1634   22878667.3474
     -4022.7344
   1407575.34949   1095876.20047  23261792.2104   23261786.4174
     -1716.1874
   1910880.51049   1485101.76448  21605177.8124   21605172.9794
      -903.6724
  -7471477.39749  -5812890.54247  22940186.2184   22940181.6594
      1112.0474
   1464697.50649   1141256.24247  24584881.6164   24584877.9994
     -1594.2814
 04  9 17 22 18  0.0030000  0  6G 8G13G19G27G28G10
  -3312026.18549  -2580093.28448  21612463.1714   21612459.0624
       189.1254
  13619144.83049  10601399.57447  22890162.4524   22890158.4564
     -4028.2504
   1433391.18049   1115992.43347  23266705.0074   23266698.9724
     -1725.4224
   1924466.27549   1495688.07348  21607762.8354   21607757.9604
      -907.2344
  -7488118.74849  -5825857.81347  22937019.7804   22937015.2024
      1107.3134
   1488679.70449   1159943.63747  24589445.3514   24589442.0304
     -1602.8444
 04  9 17 22 18 15.0030000  0  6G 8G13G19G27G28G10
  -3314836.37849  -2582283.04048  21611928.4834   21611924.3274
       185.3134
  13679609.66849  10648515.02547  22901668.7104   22901664.6634
     -4033.9224
   1459339.64649   1136212.02847  23271642.7574   23271637.0734
     -1734.6874
   1938100.29449   1506311.98348  21610357.1014   21610352.6204
      -910.8284
  -7504693.70449  -5838773.34747  22933865.5544   22933860.7334
      1102.3444
   1512784.90849   1178726.91847  24594032.4524   24594029.0424
     -1611.4844
 04  9 17 22 18 30.0030000  0  6G 8G13G19G27G28G10
  -3317583.78449  -2584423.87048  21611405.5854   21611401.5734
       181.4534
  13740165.22249  10695701.13547  22913191.7104   22913187.5814
     -4039.6564
   1485432.81549   1156544.36547  23276608.2414   23276602.2924
     -1744.0004
   1951794.76649   1516982.98548  21612962.9374   21612958.6164
      -914.5624
  -7521190.20949  -5851627.74647  22930726.3584   22930721.5074
      1097.5164
   1537025.08849   1197615.31947  24598644.8354   24598641.8784
     -1620.1254
 04  9 17 22 18 45.0030000  0  6G 8G13G19G27G28G10
  -3320273.11349  -2586519.45048  21610893.8664   21610890.1124
       177.2344
  13800806.67649  10742954.19247  22924731.5304   22924727.4484
     -4045.7034
   1511665.94549   1176985.77147  23281600.0224   23281594.0424
     -1753.6254
   1965545.12749   1527697.55048  21615579.8514   21615575.4834
      -918.7344
  -7537612.75049  -5864424.51447  22927600.9604   22927596.5894
      1092.2504
   1561395.40049   1216605.18747  24603282.9054   24603279.2144
     -1629.0314
 04  9 17 22 19  0.0030000  0  6G 8G13G19G27G28G10
  -3322903.43249  -2588569.03748  21610393.3974   21610389.7694
       173.4224
  13861534.72449  10790274.71247  22936287.9684   22936283.9294
     -4051.3594
   1538039.77649   1197536.82447  23286618.9294   23286613.6244
     -1762.8914
   1979352.33449   1538456.42648  21618207.3514   21618202.9794
      -922.3914
  -7553960.46549  -5877162.96447  22924490.0154   22924485.0464
      1087.4534
   1585896.47949   1235696.91047  24607944.7334   24607942.1044
     -1637.6724
 04  9 17 22 19 15.0030000  0  6G 8G13G19G27G28G10
  -3325477.57649  -2590574.86648  21609903.4444   21609899.4014
       169.9384
  13922346.06949  10837660.16747  22947859.9994   22947855.9444
     -4056.6094
   1564551.22149   1218195.09047  23291664.2964   23291657.8154
     -1771.7664
   1993213.52549   1549257.33948  21620845.0304   21620840.4994
      -925.6414
  -7570236.36149  -5889845.47547  22921392.9214   22921388.6164
      1082.9224
   1610525.06349   1254888.00247  24612631.6634   24612628.4874
     -1645.9694
 04  9 17 22 19 30.0030000  0  6G 8G13G19G27G28G10
  -3327999.50149  -2592539.99848  21609423.8904   21609419.8274
       166.0474
  13983236.06949  10885106.89247  22959446.6794   22959442.6714
     -4062.3124
   1591196.02349   1238957.28547  23296734.0544   23296728.5154
     -1781.1254
   2007124.52049   1560097.08448  21623492.2024   21623487.3004
      -929.4224
  -7586444.59049  -5902475.24047  22918309.0694   22918304.0194
      1077.9384
   1635276.89849   1274175.13847  24617341.7574   24617338.8584
     -1654.6254
 04  9 17 22 19 45.0030000  0  6G 8G13G19G27G28G10
  -3330460.35549  -2594457.54248  21608955.5384   21608951.3004
       162.1254
  14044213.50649  10932621.75347  22971050.3744   22971046.1554
     -4067.9224
   1617983.10249   1259830.33447  23301831.6404   23301826.4294
     -1790.4224
   2021094.54149   1570982.80748  21626150.4054   21626145.7224
      -933.0784
  -7602576.10549  -5915045.23347  22915238.7494   22915234.0344
      1073.0164
   1660160.83149   1293565.19147  24622077.1324   24622074.1834
     -1663.1874
 04  9 17 22 20  0.0030000  0  6G 8G13G19G27G28G10
  -3332860.69849  -2596327.93048  21608498.5464   21608494.6834
       158.0944
  14105277.39749  10980203.97447  22982670.3664   22982666.2694
     -4073.7344
   1644911.68849   1280813.65047  23306955.9764   23306950.2374
     -1799.8754
   2035122.99549   1581914.06548  21628820.0854   21628815.5074
      -937.1414
  -7618631.45449  -5927555.86947  22912183.8044   22912178.7884
      1067.9224
   1685175.94949   1313057.46047  24626836.8904   24626834.0074
     -1671.9534
 04  9 17 22 20 15.0030000  0  6G 8G13G19G27G28G10
  -3335200.83449  -2598151.42648  21608053.3434   21608048.9174
       154.1254
  14166426.93449  11027852.94347  22994307.2414   22994303.0194
     -4079.2974
   1671981.08649   1301906.69747  23312107.1244   23312101.0344
     -1809.2344
   2049209.26049   1592890.38248  21631500.1794   21631496.0734
      -940.8914
  -7634611.30249  -5940007.67847  22909142.6404   22909137.9174
      1062.9224
   1710321.45149   1332651.35847  24631622.1324   24631619.6754
     -1680.5944
 04  9 17 22 20 30.0030000  0  6G 8G13G19G27G28G10
  -3337488.27949  -2599933.83848  21607617.8974   21607613.9684
       150.5784
  14227654.19249  11075562.46947  23005958.2334   23005954.3974
     -4084.6414
   1699183.54849   1323103.42647  23317283.4914   23317277.5584
     -1818.1254
   2063345.89549   1603905.93648  21634190.5224   21634186.2294
      -944.3124
  -7650523.29349  -5952406.62047  22906115.1084   22906110.2534
      1058.4064
   1735589.55149   1352340.74847  24636430.4834   24636427.3004
     -1688.8284
 04  9 17 22 20 45.0030000  0  6G 8G13G19G27G28G10
  -3339717.49049  -2601670.88948  21607193.8194   21607189.6674
       146.4694
  14288964.39349  11123336.61747  23017624.9054   23017620.9954
     -4090.2974
   1726524.42649   1344408.01247  23322486.4444   23322480.1554
     -1827.5164
   2077538.38849   1614965.02948  21636891.3124   21636886.9254
      -948.2344
  -7666361.84249  -5964748.33247  22903100.9684   22903096.1634
      1053.3444
   1760985.52149   1372129.81147  24641263.4054   24641260.2454
     -1697.4534
 04  9 17 22 21  0.0030000  0  6G 8G13G19G27G28G10
  -3341884.49349  -2603359.45748  21606781.4374   21606777.0304
       142.4534
  14350361.36349  11171178.38747  23029308.4374   23029304.6984
     -4095.9064
   1754007.58049   1365823.45847  23327716.3124   23327710.3084
     -1836.8444
   2091790.93749   1626070.90248  21639603.7574   21639598.9954
      -952.0784
  -7682122.90649  -5977029.66547  22900101.3274   22900096.9914
      1048.2974
   1786513.07349   1392021.37547  24646121.3664   24646118.2184
     -1706.0164
 04  9 17 22 21 15.0030000  0  6G 8G13G19G27G28G10
  -3343991.91249  -2605001.59348  21606380.2264   21606375.7964
       138.2974
  14411842.11549  11219085.45847  23041007.8124   23041004.0114
     -4101.6874
   1781630.26649   1387347.63947  23332972.4374   23332967.0304
     -1846.3754
   2106100.95649   1637221.55848  21642326.4134   21642322.4684
      -956.0784
  -7697809.18849  -5989252.71947  22897116.3274   22897111.7104
      1042.9384
   1812169.49649   1412013.38547  24651003.4134   24651000.7534
     -1714.9694
 04  9 17 22 21 30.0030000  0  6G 8G13G19G27G28G10
  -3346039.35249  -2606596.99848  21605990.6634   21605986.2104
       135.0634
  14473406.44749  11267057.62047  23052723.1244   23052719.3234
     -4106.5624
   1809392.59149   1408980.62147  23338255.5224   23338249.8474
     -1855.0004
   2120468.59249   1648417.12248  21645060.9294   21645056.3944
      -959.2664
  -7713420.47549  -6001417.33547  22894145.7024   22894140.8124
      1038.6724
   1837954.63349   1432105.69447  24655909.7724   24655906.9724
     -1722.7974
 04  9 17 22 21 45.0030000  0  6G 8G13G19G27G28G10
  -3348030.16849  -2608148.28248  21605611.9134   21605607.1714
       130.6094
  14535050.85149  11315092.21147  23064453.4834   23064449.5734
     -4112.5314
   1837291.08949   1430719.71347  23343564.7334   23343558.9134
     -1864.7814
   2134890.55149   1659655.00448  21647805.1084   21647800.2694
      -963.5314
  -7728960.14649  -6013526.15847  22891188.8194   22891183.7924
      1033.3444
   1863864.92049   1452295.48447  24660840.4994   24660837.8474
     -1731.7194
 04  9 17 22 22  0.0030000  0  6G 8G13G19G27G28G10
  -3349961.20749  -2609652.98648  21605244.4994   21605240.0224
       126.6724
  14596777.78749  11363191.08347  23076200.1164   23076196.4914
     -4117.9534
   1865328.37749   1452566.95247  23348899.8434   23348893.6404
     -1873.8754
   2149369.88849   1670937.61248  21650560.3974   21650556.3744
      -967.3124
  -7744425.25149  -6025576.86447  22888245.6714   22888240.9374
      1028.4844
   1889903.07549   1472584.94747  24665796.2654   24665792.5424
     -1740.2344
 04  9 17 22 22 15.0030000  0  6G 8G13G19G27G28G10
  -3351831.82849  -2611110.60148  21604888.5624   21604884.3664
       122.5784
  14658587.41149  11411354.40547  23087962.2104   23087958.3784
     -4123.5314
   1893504.90149   1474522.69147  23354261.4294   23354255.5264
     -1883.1874
   2163907.14149   1682265.34848  21653326.6014   21653322.1444
      -971.2504
  -7759815.27249  -6037569.07047  22885317.0624   22885312.2494
      1023.3594
   1916069.44749   1492974.31847  24670774.8664   24670772.1674
     -1748.8594
 04  9 17 22 22 30.0030000  0  6G 8G13G19G27G28G10
  -3353640.70349  -2612520.12748  21604544.2804   21604540.0814
       118.7194
  14720481.16449  11459583.26847  23099740.3744   23099736.3864
     -4128.7814
   1921822.20249   1496588.12847  23359650.1554   23359644.5934
     -1892.2974
   2178504.07349   1693639.57148  21656104.3824   21656099.9374
      -974.9534
  -7775128.65149  -6049501.56347  22882403.2414   22882398.5694
      1018.6094
   1942365.36249   1513464.61547  24675779.1014   24675775.7264
     -1757.1564
 04  9 17 22 22 45.0030000  0  6G 8G13G19G27G28G10
  -3355391.60649  -2613884.44648  21604210.8194   21604206.9444
       114.8284
  14782454.68049  11507874.29547  23111533.4444   23111529.1754
     -4134.1724
   1950276.08949   1518759.99247  23365064.8194   23365059.0544
     -1901.4694
   2193156.62449   1705057.14548  21658892.8124   21658888.4444
      -978.6724
  -7790369.38449  -6061377.43547  22879502.8124   22879497.8194
      1013.6414
   1968786.53549   1534052.52147  24680807.2264   24680803.5894
     -1765.5624
 04  9 17 22 23  0.0030000  0  6G 8G13G19G27G28G10
  -3357084.85549  -2615203.87048  21603888.8124   21603884.3744
       111.2344
  14844507.17249  11556226.86547  23123341.7104   23123337.9604
     -4139.2344
   1978865.94449   1541037.79547  23370505.1874   23370499.5504
     -1910.2664
   2207864.54249   1716517.85648  21661691.8514   21661687.4954
      -982.1724
  -7805537.92849  -6073197.05847  22876616.8124   22876611.6014
      1009.0944
   1995332.29349   1554737.49247  24685858.2884   24685855.4054
     -1773.6254
 04  9 17 22 23 15.0030000  0  6G 8G13G19G27G28G10
  -3358719.62249  -2616477.70948  21603577.8194   21603573.1634
       107.0474
  14906639.15449  11604641.37047  23135165.0774   23135161.2804
     -4144.7344
   2007592.47749   1563422.10847  23375971.5464   23375965.6364
     -1919.6254
   2222628.56949   1728022.29248  21664500.9374   21664496.4724
      -986.1254
  -7820633.43949  -6084959.78547  22873743.5934   22873738.9294
      1003.9384
   2022003.23149   1575520.03947  24690933.6714   24690930.6204
     -1782.1874
 04  9 17 22 23 30.0030000  0  6G 8G13G19G27G28G10
  -3360296.97549  -2617706.81148  21603277.5224   21603273.1904
       103.0004
  14968849.44749  11653116.90347  23147003.0774   23146999.2374
     -4150.1874
   2036454.68649   1585912.14847  23381463.8824   23381458.1754
     -1928.9064
   2237447.92449   1739569.84148  21667321.0694   21667316.6284
      -990.0314
  -7835656.84549  -6096666.31247  22870885.0854   22870879.9834
       998.9694
   2048798.28049   1596399.26647  24696031.9994   24696029.6244
     -1790.6564
 04  9 17 22 23 45.0030000  0  6G 8G13G19G27G28G10
  -3361814.93949  -2618889.63748  21602988.6874   21602984.4094
        99.7194
  15031139.26849  11701654.39747  23158856.3974   23158852.4684
     -4154.8284
   2065453.98849   1608509.00447  23386982.4294   23386976.5894
     -1937.3914
   2252324.30749   1751161.83048  21670152.2334   21670147.2724
      -993.1724
  -7850606.52149  -6108315.39747  22868039.8194   22868035.3124
       994.6884
   2075718.67849   1617376.21147  24701154.8664   24701152.1084
     -1798.3594
 04  9 17 22 24  0.0030000  0  6G 8G13G19G27G28G10
  -3363278.26849  -2620029.89148  21602710.3434   21602705.9954
        95.5004
  15093503.62249  11750249.96647  23170724.0694   23170720.0894
     -4160.3594
   2094585.42349   1631208.83847  23392526.1084   23392520.1014
     -1946.7504
   2267253.03649   1762794.59748  21672993.1944   21672988.5034
      -997.1564
  -7865487.33149  -6119910.81447  22865208.1014   22865203.3044
       989.5474
   2102759.49249   1638446.92547  24706301.2884   24706297.5074
     -1806.9844
 04  9 17 22 24 15.0030000  0  6G 8G13G19G27G28G10
  -3364680.63649  -2621122.64048  21602443.4834   21602439.1474
        91.4694
  15155948.28849  11798908.11947  23182606.9294   23182603.2334
     -4165.6094
   2123855.04549   1654016.33747  23398095.4374   23398090.0074
     -1955.8754
   2282240.20249   1774472.90948  21675845.0384   21675840.9094
     -1001.0624
  -7880293.00249  -6131447.68547  22862390.8664   22862386.3354
       984.5314
   2129926.54749   1659616.06847  24711470.6944   24711467.9794
     -1815.2814
 04  9 17 22 24 30.0030000  0  6G 8G13G19G27G28G10
  -3366022.65549  -2622168.36348  21602188.1244   21602183.4094
        87.7974
  15218472.39149  11847628.17247  23194504.8354   23194501.2454
     -4170.6254
   2153262.08249   1676930.89847  23403692.0854   23403685.9724
     -1964.7504
   2297285.45149   1786196.48748  21678707.9214   21678703.5194
     -1004.5314
  -7895024.19949  -6142926.52347  22859587.6244   22859582.8194
       979.8914
   2157219.06249   1680882.91247  24716664.5694   24716661.0654
     -1823.4064
 04  9 17 22 24 45.0030000  0  6G 8G13G19G27G28G10
  -3367307.60949  -2623169.62948  21601943.5224   21601939.4214
        83.9694
  15281072.21749  11896407.23747  23206417.5934   23206413.7764
     -4175.6874
   2182803.00649   1699949.80947  23409313.1794   23409307.9644
     -1973.6094
   2312385.43249   1797962.69948  21681581.2414   21681576.8314
     -1008.2974
  -7909684.28849  -6154349.94647  22856797.8744   22856792.9954
       975.2344
   2184633.38749   1702244.73247  24721881.1014   24721877.9174
     -1831.5314
 04  9 17 22 25  0.0030000  0  6G 8G13G19G27G28G10
  -3368532.41049  -2624124.01448  21601710.5224   21601705.9484
        79.4844
  15343750.58849  11945247.50047  23218344.4764   23218340.4794
     -4181.3754
   2212480.77449   1723075.34047  23414960.6404   23414954.9564
     -1983.1724
   2327543.16449   1809773.92148  21684465.6714   21684461.4764
     -1012.6254
  -7924270.15049  -6165715.53147  22854022.1474   22854017.2724
       969.7344
   2212172.34449   1723703.63747  24727122.0934   24727118.9404
     -1840.2194
 04  9 17 22 25 15.0030000  0  6G 8G13G19G27G28G10
  -3369696.43349  -2625031.04148  21601488.7654   21601484.6044
        76.0474
  15406507.69749  11994149.11047  23230286.6324   23230283.0894
     -4185.9224
   2242295.65249   1746307.70647  23420633.9214   23420628.4764
     -1991.7344
   2342759.23449   1821630.59648  21687361.4524   21687357.3664
     -1015.8914
  -7938781.43549  -6177023.02447  22851260.7264   22851256.3314
       965.4224
   2239836.18249   1745259.87547  24732385.8744   24732382.9644
     -1847.9374
 04  9 17 22 25 30.0040000  0  6G 8G13G19G27G28G10
  -3370801.63249  -2625892.23448  21601278.6444   21601274.4844
        72.0944
  15469345.66249  12043113.72547  23242244.4884   23242240.9884
     -4191.1414
   2272247.84249   1769647.07847  23426333.7154   23426328.3164
     -2000.8594
   2358033.15349   1833532.35548  21690267.8874   21690263.3554
     -1019.7034
  -7953220.82249  -6188274.47347  22848513.3164   22848508.5784
       960.5314
   2267624.90049   1766913.39947  24737674.3324   24737671.0274
     -1856.1874
 04  9 17 22 25 45.0040000  0  6G 8G13G19G27G28G10
  -3371844.39349  -2626704.77248  21601080.3874   21601075.7424
        67.5314
  15532258.52549  12092136.72047  23254216.4804   23254212.7894
     -4196.7664
   2302336.00349   1793092.38747  23432059.4654   23432054.0354
     -2010.4534
   2373365.60849   1845479.71748  21693185.7384   21693181.1294
     -1024.1094
  -7967583.54849  -6199466.18047  22845779.9264   22845775.1374
       955.1094
   2295537.33249   1788663.33147  24742985.4574   24742982.5354
     -1865.0314
 04  9 17 22 26  0.0040000  0  6G 8G13G19G27G28G10
  -3372825.61249  -2627469.36448  21600893.3554   21600888.6644
        63.3134
  15595249.76549  12141220.76047  23266203.1444   23266199.5664
     -4202.0474
   2332561.46149   1816644.68447  23437811.0664   23437805.7304
     -2019.6724
   2388757.34949   1857473.28248  21696114.4414   21696109.9414
     -1028.1414
  -7981870.98549  -6210599.24148  22843060.9184   22843056.1214
       949.8754
   2323574.67149   1810510.57247  24748320.9414   24748317.6604
     -1873.3754
 04  9 17 22 26 15.0040000  0  6G 8G13G19G27G28G10
  -3373751.19149  -2628190.59348  21600717.5514   21600713.0944
        59.9064
  15658313.12749  12190361.01447  23278203.6294   23278200.3554
     -4206.5004
   2362918.17049   1840299.25947  23443587.7464   23443582.0434
     -2028.0624
   2404202.45049   1869508.42148  21699053.5124   21699049.0864
     -1031.3444
  -7996089.03949  -6221678.22448  22840355.1914   22840350.7894
       945.6564
   2351730.70049   1832450.34247  24753679.2384   24753675.9964
     -1880.8754
 04  9 17 22 26 30.0040000  0  6G 8G13G19G27G28G10
  -3374618.36649  -2628866.30248  21600552.4024   21600547.8054
        55.9064
  15721450.91449  12239559.27247  23290218.3244   23290214.6604
     -4211.6414
   2393408.43449   1864057.90047  23449390.1844   23449384.3554
     -2037.1414
   2419703.59249   1881587.25348  21702003.0274   21701998.8484
     -1035.2504
  -8010235.23549  -6232701.20548  22837663.2694   22837658.8524
       940.7344
   2380007.73249   1854484.37647  24759060.1764   24759057.0744
     -1889.1414
 04  9 17 22 26 45.0040000  0  6G 8G13G19G27G28G10
  -3375423.99349  -2629494.07548  21600398.8944   21600394.2464
        51.7194
  15784665.75349  12288817.56147  23302248.2694   23302244.2694
     -4216.8284
   2424035.15949   1887922.87047  23455217.4884   23455212.5354
     -2046.1254
   2435263.75749   1893712.03148  21704964.5274   21704959.6414
     -1039.2344
  -8024306.62249  -6243665.90148  22834985.7624   22834981.2464
       935.7194
   2408408.31049   1876614.67447  24764463.9964   24764461.2234
     -1897.4224
 04  9 17 22 27  0.0040000  0  6G 8G13G19G27G28G10
  -3376169.65949  -2630075.09948  21600257.3244   21600252.9924
        47.7344
  15847955.76249  12338134.40447  23314291.9884   23314288.1954
     -4221.8444
   2454796.58749   1911892.82247  23461071.9884   23461066.3834
     -2055.2974
   2450881.45949   1905881.67648  21707936.2694   21707931.2934
     -1043.1094
  -8038304.71249  -6254573.49147  22832322.3404   22832317.6604
       930.7344
   2436930.74449   1898839.93447  24769892.1374   24769889.1604
     -1905.5624
 04  9 17 22 27 15.0040000  0  6G 8G13G19G27G28G10
  -3376855.34349  -2630609.40548  21600126.5664   21600122.2074
        43.8754
  15911320.61349  12387509.60647  23326349.6214   23326345.9344
     -4226.6564
   2485692.54849   1935967.57647  23466951.1134   23466945.2274
     -2063.9534
   2466556.79349   1918096.21248  21710919.2854   21710914.4654
     -1046.7504
  -8052229.65349  -6265424.08547  22829672.2464   22829667.3244
       926.0634
   2465574.71849   1921159.88647  24775342.5514   24775339.8554
     -1913.4694
 04  9 17 22 27 30.0040000  0  6G 8G13G19G27G28G10
  -3377482.49149  -2631098.07948  21600007.1604   21600003.1604
        39.5474
  15974758.34949  12436941.55847  23338421.6294   23338418.1374
     -4231.9844
   2516721.21749   1960145.76047  23472855.2624   23472849.5434
     -2073.3124
   2482288.09649   1930354.37748  21713912.6764   21713908.2624
     -1050.9694
  -8066082.95949  -6276218.84248  22827036.0274   22827031.7074
       920.8444
   2494338.39949   1943573.14347  24780816.1054   24780812.8834
     -1921.8444
 04  9 17 22 27 45.0040000  0  6G 8G13G19G27G28G10
  -3378045.93349  -2631537.12548  21599900.0124   21599896.3484
        35.5474
  16038273.88449  12486434.15847  23350508.0194   23350504.3714
     -4236.9064
   2547887.68549   1984431.30847  23478787.3244   23478781.2234
     -2082.2034
   2498080.74749   1942660.32948  21716918.0824   21716913.8594
     -1054.7814
  -8079859.48349  -6286953.78848  22824414.7234   22824410.0554
       915.8914
   2523226.77849   1966083.55047  24786313.7774   24786310.6374
     -1930.0624
 04  9 17 22 28  0.0040000  0  6G 8G13G19G27G28G10
  -3378548.65949  -2631928.85948  21599804.2464   21599800.3594
        31.3444
  16101863.90149  12535984.79047  23362608.6764   23362604.9534
     -4241.9064
   2579188.72249   2008821.71647  23484742.7624   23484736.9924
     -2091.3914
   2513931.81749   1955011.81248  21719934.8484   21719929.8944
     -1058.8594
  -8093562.19449  -6297631.20548  22821807.0124   22821802.2624
       910.9224
   2552236.50749   1988688.50147  24791833.5194   24791830.6294
     -1938.1414
 04  9 17 22 28 15.0040000  0  6G 8G13G19G27G28G10
  -3378991.13549  -2632273.64248  21599720.0274   21599715.7304
        27.5634
  16165527.29449  12585592.58947  23374723.5984   23374719.6764
     -4246.6564
   2610623.50749   2033316.34747  23490724.8874   23490719.3714
     -2100.1094
   2529840.70449   1967408.34448  21722961.7074   21722957.1844
     -1062.5004
  -8107191.97149  -6308251.79248  22819213.1764   22819208.6644
       906.2344
   2581366.75249   2011387.38747  24797376.8094   24797373.5624
     -1946.0314
 04  9 17 22 28 30.0040000  0  6G 8G13G19G27G28G10
  -3379371.66349  -2632570.15048  21599647.4654   21599643.5394
        23.2664
  16229265.31849  12635258.54747  23386852.4964   23386849.0864
     -4251.7974
   2642193.35749   2057916.22747  23496732.8554   23496726.5164
     -2109.1724
   2545808.79949   1979851.01548  21726000.4884   21725996.1604
     -1066.5784
  -8120747.23149  -6318814.31347  22816633.6524   22816628.8944
       901.1414
   2610618.62449   2034181.04347  24802943.4964   24802940.7384
     -1954.1874
 04  9 17 22 28 45.0040000  0  6G 8G13G19G27G28G10
  -3379689.95649  -2632818.16948  21599587.1444   21599582.7974
        19.1254
  16293077.85649  12684982.57747  23398995.7854   23398991.5984
     -4256.5944
   2673898.43949   2082621.46347  23502765.4804   23502760.0514
     -2118.0944
   2561836.59949   1992340.20448  21729050.1994   21729045.3204
     -1070.5164
  -8134227.67749  -6329318.54348  22814068.6054   22814063.3444
       896.2344
   2639992.18849   2057069.51747  24808533.1374   24808530.3164
     -1962.2034
 04  9 17 22 29  0.0040000  0  7G31G 8G13G19G27G28G10
   -140862.43059   -101964.36556  25179799.5514   25179799.5124
      2889.3444
  -3379943.90549  -2633016.04148  21599538.7774   21599534.5944
        14.5164
  16356966.76949  12734766.12047  23411153.4184   23411149.8524
     -4262.0474
   2705740.61749   2107433.54347  23508825.0354   23508819.2734
     -2127.6254
   2577926.20249   2004877.54848  21732112.3554   21732107.8444
     -1074.9534
  -8147631.24849  -6339762.86148  22811517.7304   22811513.4374
       890.7344
   2669489.22349   2080054.18647  24814146.8944   24814143.4344
     -1970.7814
 04  9 17 22 29 15.0040000  0  7G31G 8G13G19G27G28G10
   -184202.60349   -135735.79546  25171552.7234   25171551.6254
      2888.7814
  -3380135.14349  -2633165.05648  21599502.4964   21599497.9844
        10.2974
  16420930.19249  12784607.71347  23423325.2694   23423321.6724
     -4267.0624
   2737718.15249   2132351.09947  23514910.5044   23514904.4924
     -2136.7504
   2594076.20249   2017461.97048  21735185.2074   21735181.0594
     -1079.0624
  -8160959.51149  -6350148.51148  22808981.6054   22808976.6484
       885.6564
   2699107.99449   2103133.75947  24819782.1214   24819779.7544
     -1979.0164
 04  9 17 22 29 30.0040000  0  7G31G 8G13G19G27G28G10
   -227536.68249   -169502.48646  25163306.5194   25163305.5784
      2888.6564
  -3380263.84749  -2633265.33948  21599478.1914   21599474.2234
         6.5164
  16484967.46549  12834506.84747  23435511.1994   23435507.8404
     -4271.6094
   2769830.54149   2157373.72447  23521021.3014   23521015.4924
     -2145.2974
   2610286.25649   2030093.17448  21738270.1134   21738265.7304
     -1082.6564
  -8174212.91449  -6360475.80548  22806459.5744   22806454.7664
       881.0634
   2728847.91149   2126307.66646  24825442.1914   24825439.0744
     -1986.6564
 04  9 17 22 29 45.0040000  0  7G31G 8G13G19G27G28G10
   -270861.66649   -203262.11546  25155061.9024   25155060.6644
      2888.2194
  -3380327.01649  -2633314.56148  21599465.8794   21599461.8914
         2.2034
  16549080.94849  12884465.37647  23447711.6134   23447708.3484
     -4276.6254
   2802080.29449   2182503.38047  23527157.8554   23527152.3324
     -2154.4534
   2626559.11349   2042773.31148  21741366.7544   21741362.2194
     -1086.7974
  -8187388.62649  -6370742.58748  22803952.1844   22803947.6524
       875.9844
   2758711.27349   2149577.83047  24831124.7234   24831121.8634
     -1994.8594
 04  9 17 22 30  0.0040000  0  7G31G 8G13G19G27G28G10
   -314182.95149   -237018.83147  25146817.5984   25146816.7734
      2887.7664
  -3380330.45549  -2633317.23248  21599465.0594   21599460.8404
        -2.0164
  16613264.61949  12934478.59247  23459925.2384   23459922.0944
     -4281.4534
   2834461.58449   2207735.55647  23533319.7854   23533314.2814
     -2163.3444
   2642889.19249   2055498.05548  21744474.4734   21744469.7194
     -1090.9064
  -8200492.35149  -6380953.25348  22801458.4264   22801453.6764
       870.9064
   2788692.25349   2172939.62947  24836829.6214   24836827.2854
     -2002.8754
 04  9 17 22 30 15.0040000  0  7G31G 8G13G19G27G28G10
   -357496.27749   -270769.32447  25138576.1604   25138574.8244
      2887.2034
  -3380270.10049  -2633270.20648  21599476.8244   21599472.8444
        -6.3594
  16677522.15349  12984549.36947  23472153.1604   23472149.7344
     -4286.5164
   2866978.20049   2233073.15747  23539507.5594   23539501.7734
     -2172.4534
   2659280.53949   2068270.51948  21747593.3634   21747588.5514
     -1094.9844
  -8213520.14649  -6391104.77648  22798979.3244   22798974.9654
       865.8444
   2818794.43049   2196395.82847  24842558.0744   24842555.0784
     -2011.0164
 04  9 17 22 30 30.0040000  0  7G31G 8G13G19G27G28G10
   -400801.84049   -304513.77946  25130334.3634   25130333.9064
      2886.9064
  -3380146.24849  -2633173.69548  21599500.5744   21599496.3124
       -10.3124
  16741852.61249  13034676.96447  23484394.9734   23484391.4344
     -4291.0314
   2899629.26849   2258515.53847  23545720.9184   23545714.8554
     -2181.1414
   2675732.80349   2081090.45848  21750724.0044   21750719.8914
     -1098.7664
  -8226472.57549  -6401197.55847  22796514.3164   22796509.8914
       861.0784
   2849017.04549   2219945.90647  24848309.5514   24848306.3634
     -2018.8444
 04  9 17 22 30 45.0040000  0  7G31G 8G13G19G27G28G10
   -444100.58549   -338252.96346  25122095.4494   25122094.0624
      2886.3284
  -3379960.33549  -2633028.82048  21599535.7234   21599531.4654
       -14.4224
  16806254.41149  13084860.16547  23496650.3244   23496646.6844
     -4295.7664
   2932413.40049   2284061.59747  23551959.4574   23551953.7504
     -2189.9844
   2692244.60449   2093956.80048  21753866.3244   21753861.7624
     -1102.7194
  -8239351.09949  -6411232.75547  22794064.0594   22794059.3124
       856.2034
   2879358.56349   2243588.62647  24854083.2234   24854080.4224
     -2026.6414
 04  9 17 22 31  0.0040000  0  7G31G 8G13G19G27G28G10
   -487386.83449   -371982.37046  25113857.4104   25113857.1294
      2885.8594
  -3379706.63749  -2632831.12448  21599584.1214   21599579.7424
       -18.7344
  16870732.77449  13135103.00447  23508920.5354   23508916.5704
     -4300.5944
   2965336.06149   2309715.61047  23558224.5354   23558218.8554
     -2199.0004
   2708821.56549   2106873.91448  21757020.6214   21757016.2194
     -1106.8284
  -8252150.07149  -6421205.96247  22791628.2624   22791623.2734
       851.1254
   2909824.33349   2267328.19647  24859880.0904   24859878.2774
     -2034.6414
 04  9 17 22 31 15.0040000  0  7G31G 8G13G19G27G28G10
   -530666.67849   -405706.82146  25105621.9734   25105621.1334
      2884.6884
  -3379391.66449  -2632585.69448  21599644.1684   21599639.8754
       -23.3594
  16935280.91549  13185400.22647  23521203.6134   23521199.3594
     -4305.8754
   2998390.48949   2335472.29447  23564514.2384   23564508.5944
     -2208.2504
   2725457.37449   2119836.87148  21760186.5984   21760182.2154
     -1111.2814
  -8264876.05349  -6431122.29548  22789206.9104   22789202.3484
       845.6564
   2940407.49549   2291159.20546  24865700.7234   24865697.8284
     -2043.0164
 04  9 17 22 31 30.0040000  0  7G31G 8G13G19G27G28G10
   -573933.53049   -439421.17346  25097387.6444   25097387.7234
      2883.7344
  -3379009.12049  -2632287.59848  21599716.9104   21599712.5084
       -27.9534
  16999904.81849  13235756.48147  23533500.8714   23533497.5124
     -4310.9224
   3031582.90549   2361336.50147  23570830.5824   23570824.9374
     -2217.5314
   2742158.28049   2132850.56448  21763364.6764   21763360.1724
     -1115.7664
  -8277522.67749  -6440976.79048  22786800.0984   22786795.4734
       840.2664
   2971114.14249   2315086.44747  24871543.7384   24871541.0474
     -2051.3444
 04  9 17 22 31 45.0040000  0  7G31G 8G13G19G27G28G10
   -617185.91749   -473124.25546  25089157.1994   25089156.5314
      2883.1094
  -3378557.55649  -2631935.73348  21599802.5354   21599798.5594
       -32.3754
  17064605.36049  13286172.47147  23545812.7624   23545809.0984
     -4315.8284
   3064914.18649   2387308.91147  23577173.7624   23577167.8444
     -2226.6094
   2758925.64449   2145916.03248  21766555.5594   21766550.7544
     -1119.9534
  -8290088.86649  -6450768.61148  22784409.0514   22784404.3124
       835.1254
   3001945.15649   2339110.58347  24877411.0434   24877408.1524
     -2059.3284
 04  9 17 22 32  0.0040000  0  7G31G 8G13G19G27G28G10
   -660426.96849   -506818.42446  25080929.2544   25080928.0984
      2882.9064
  -3378040.19549  -2631532.59348  21599901.0824   21599896.9414
       -36.1564
  17129378.69449  13336645.14847  23558139.1844   23558135.6254
     -4320.1414
   3098380.78349   2413386.76447  23583542.0824   23583536.3794
     -2235.1094
   2775756.13149   2159030.69448  21769757.8324   21769753.4494
     -1123.6874
  -8302578.01349  -6460500.40348  22782032.5434   22782027.4494
       830.4844
   3032896.92449   2363228.84447  24883300.4654   24883297.2664
     -2067.0314
 04  9 17 22 32 15.0040000  0  7G31G 8G13G19G27G28G10
   -703660.05249   -540506.48046  25072702.4734   25072701.0824
      2881.6414
  -3377460.79649  -2631081.10048  21600011.4734   21600006.9654
       -40.9844
  17194220.82549  13387171.45847  23570478.0514   23570474.1954
     -4325.4374
   3131978.72049   2439566.96547  23589935.4884   23589930.5824
     -2244.5784
   2792645.98349   2172191.61648  21772972.1054   21772967.5474
     -1128.2664
  -8314993.88549  -6470175.08548  22779669.6684   22779665.2304
       824.9534
   3063965.26849   2387437.92947  24889212.9344   24889210.0624
     -2075.4534
 04  9 17 22 32 30.0040000  0  7G31G 8G13G19G27G28G10
   -746879.09749   -574183.58347  25064477.2464   25064476.6764
      2880.8594
  -3376813.37949  -2630576.61048  21600134.5124   21600130.4224
       -45.2194
  17259137.33649  13437755.73047  23582831.2694   23582827.7624
     -4330.0314
   3165713.71449   2465853.96747  23596355.3014   23596349.3484
     -2253.3444
   2809601.22049   2185403.48948  21776198.5434   21776194.3634
     -1132.3124
  -8327330.66649  -6479788.14448  22777321.7934   22777317.1844
       819.9844
   3095155.74649   2411742.16847  24895148.4414   24895145.5984
     -2083.2814
 04  9 17 22 32 45.0040000  0  7G31G 8G13G19G27G28G10
   -790089.75449   -607854.12546  25056254.1844   25056253.7854
      2880.4534
  -3376103.99949  -2630023.85148  21600269.5904   21600265.3284
       -49.3124
  17324121.83449  13488392.95647  23595197.5194   23595193.6874
     -4334.5314
   3199579.51249   2492242.89347  23602799.7854   23602793.6214
     -2262.0624
   2826615.75949   2198661.56548  21779436.1444   21779431.9064
     -1136.2034
  -8339594.40649  -6489344.28948  22774988.2154   22774983.5084
       815.2034
   3126462.11449   2436136.71247  24901105.4574   24901102.9344
     -2091.0004
 04  9 17 22 33  0.0040000  0  7G31G 8G13G19G27G28G10
   -833289.70149   -641516.30946  25048034.0984   25048033.5554
      2879.5634
  -3375330.36349  -2629421.01948  21600416.8094   21600412.9144
       -53.8754
  17389176.16549  13539084.61747  23607576.8094   23607573.0394
     -4339.4534
   3233578.00349   2518735.20347  23609269.4264   23609263.8094
     -2271.1414
   2843691.83149   2211967.59548  21782685.6684   21782681.5354
     -1140.5624
  -8351782.94449  -6498841.84648  22772668.8634   22772664.2814
       809.9384
   3157886.19549   2460622.98746  24907085.0594   24907082.8594
     -2098.9694
 04  9 17 22 33 15.0040000  0  7G31G 8G13G19G27G28G10
   -876476.38549   -675168.18146  25039816.5044   25039814.9884
      2878.7344
  -3374490.10749  -2628766.27748  21600576.5124   21600572.3874
       -58.0944
  17454302.06649  13589832.03347  23619969.5824   23619966.3404
     -4343.9374
   3267711.21449   2545332.49847  23615764.6844   23615758.7074
     -2279.9064
   2860831.74849   2225323.37248  21785947.8244   21785943.2694
     -1144.6724
  -8363894.11949  -6508279.10648  22770363.9414   22770359.0824
       805.0004
   3189429.96749   2485202.54447  24913088.0044   24913085.1564
     -2106.6874
 04  9 17 22 33 30.0040000  0  7G31G 8G13G19G27G28G10
   -919647.64249   -708808.03946  25031600.4574   25031600.2664
      2877.5314
  -3373581.60149  -2628058.34048  21600749.6214   21600745.6684
       -62.9064
  17519501.11349  13640636.44847  23632376.8324   23632373.8164
     -4349.0474
   3301980.74449   2572036.01947  23622286.0514   23622280.2154
     -2289.2034
   2878037.33649   2238730.31648  21789221.4264   21789217.1214
     -1149.2664
  -8375926.18249  -6517654.71748  22768074.4344   22768070.0864
       799.5004
   3221094.94549   2509876.54647  24919114.1134   24919111.0084
     -2115.0944
 04  9 17 22 33 45.0040000  0  7G31G 8G13G19G27G28G10
   -962808.97149   -742440.15546  25023386.9964   25023386.4844
      2876.9384
  -3372610.32849  -2627301.51648  21600934.4104   21600930.0514
       -66.9064
  17584767.24649  13691493.14447  23644796.5274   23644793.0784
     -4353.3284
   3336380.76449   2598841.20947  23628832.2304   23628826.4374
     -2297.7664
   2895303.03049   2252184.08248  21792507.0904   21792502.5394
     -1153.0944
  -8387884.79149  -6526973.10648  22765799.0044   22765793.8634
       794.6564
   3252875.03549   2534640.21847  24925161.5824   24925158.6604
     -2122.5624
 04  9 17 22 34  0.0040000  0  7G31G 8G13G19G27G28G10
  -1005958.41249   -776063.03246  25015176.1294   25015175.1484
      2876.2344
  -3371574.85249  -2626494.64448  21601131.5194   21601127.1484
       -71.2344
  17650101.72849  13742403.10447  23657229.0664   23657225.6524
     -4357.9534
   3370912.66649   2625749.17347  23635402.7384   23635397.6524
     -2306.6724
   2912630.45549   2265685.98148  21795804.4884   21795800.0274
     -1157.3444
  -8399768.51449  -6536233.13648  22763537.2624   22763532.1054
       789.6884
   3284771.62649   2559494.69147  24931231.2304   24931227.9844
     -2130.5004
 04  9 17 22 34 15.0040000  0  7G31G 8G13G19G27G28G10
  -1049091.38249   -809673.04447  25006968.4024   25006967.2624
      2874.9224
  -3370470.54249  -2625634.14748  21601341.4654   21601337.3484
       -75.9694
  17715508.44649  13793369.35247  23669676.0594   23669672.2154
     -4362.8754
   3405580.44949   2652763.02547  23642000.0124   23641994.5474
     -2315.8124
   2930023.90549   2279239.31248  21799114.2544   21799109.8944
     -1161.7504
  -8411573.04349  -6545431.45448  22761291.1294   22761286.2544
       784.2974
   3316788.70849   2584443.03447  24937323.5664   24937321.0704
     -2138.4534
 04  9 17 22 34 30.0040000  0  7G31G 8G13G19G27G28G10
  -1092212.86449   -843274.09147  24998762.7304   24998761.0084
      2874.3594
  -3369302.57349  -2624724.03448  21601564.3094   21601559.6524
       -80.1254
  17780982.00549  13844387.66947  23682135.2154   23682132.0314
     -4367.3124
   3440378.66049   2679878.49147  23648622.1844   23648616.7034
     -2324.4534
   2947478.36349   2292840.18748  21802435.7624   21802431.1874
     -1165.8444
  -8423303.61349  -6554572.14048  22759059.0354   22759054.2344
       779.4224
   3348920.72449   2609480.99247  24943437.9964   24943435.7664
     -2146.0474
 04  9 17 22 34 45.0040000  0  7G31G 8G13G19G27G28G10
  -1135317.62449   -876862.11447  24990559.3484   24990558.2854
      2873.5164
  -3368066.01249  -2623760.47248  21601798.9964   21601795.0164
       -84.3594
  17846526.82749  13895461.50247  23694608.1914   23694604.5394
     -4371.6094
   3475312.02849   2707099.29547  23655269.8244   23655264.6134
     -2333.0314
   2964998.67549   2306492.37848  21805769.7234   21805765.0594
     -1169.9224
  -8434955.46749  -6563651.49748  22756841.6764   22756836.7694
       774.5164
   3381172.34649   2634612.10546  24949575.5594   24949572.7624
     -2153.6564
 04  9 17 22 35  0.0040000  0  7G31G 8G13G19G27G28G10
  -1178406.16849   -910437.53946  24982359.7304   24982359.4614
      2872.0004
  -3366761.47949  -2622743.95648  21602047.3874   21602043.3284
       -89.2504
  17912141.90449  13946590.11247  23707094.5594   23707090.6484
     -4376.7194
   3510379.61249   2734424.67147  23661943.0984   23661937.5194
     -2342.3914
   2982584.17449   2320195.35348  21809116.1374   21809111.6334
     -1174.5944
  -8446529.29049  -6572670.03848  22754638.9414   22754634.4774
       768.8914
   3413542.55149   2659835.61847  24955735.4734   24955732.6564
     -2161.9224
 04  9 17 22 35 15.0040000  0  7G31G 8G13G19G27G28G10
  -1221478.86549   -944000.58747  24974163.7854   24974162.7694
      2870.8914
  -3365389.56949  -2621674.92948  21602308.6844   21602304.6604
       -93.8284
  17977826.11049  13997772.58647  23719593.9574   23719589.8094
     -4381.3914
   3545580.48249   2761853.91447  23668641.4574   23668635.6484
     -2351.3594
   3000234.16249   2333948.59648  21812474.6914   21812470.7734
     -1179.0004
  -8458025.79649  -6581628.33548  22752451.7774   22752446.4734
       763.7034
   3446030.21749   2685150.66947  24961917.2854   24961914.9414
     -2169.9844
 04  9 17 22 35 30.0040000  0  7G31G 8G13G19G27G28G10
  -1264530.58749   -977547.30447  24965971.0744   24965969.6644
      2869.6094
  -3363945.32849  -2620549.54348  21602583.4494   21602579.1564
       -98.5944
  18043584.01649  14049012.46847  23732106.7624   23732103.8444
     -4386.1254
   3580919.26649   2789390.61347  23675366.5354   23675360.7774
     -2360.3754
   3017953.63849   2347755.97648  21815846.8014   21815842.7034
     -1183.5004
  -8469440.25249  -6590522.70448  22750279.3324   22750274.4844
       758.4064
   3478639.92549   2710560.80347  24968123.2154   24968120.4304
     -2177.8754
 04  9 17 22 35 45.0040000  0  7G31G 8G13G19G27G28G10
  -1307564.14649  -1011079.83947  24957781.7384   24957781.4184
      2868.8284
  -3362431.90649  -2619370.26048  21602871.4344   21602867.1564
      -102.6414
  18109412.02449  14100306.98147  23744633.5824   23744629.8754
     -4390.2664
   3616392.71649   2817032.24747  23682116.5514   23682110.8444
     -2368.8284
   3035739.54849   2361615.11648  21819231.4804   21819226.9494
     -1187.4064
  -8480775.68649  -6599355.50148  22748121.8794   22748117.2734
       753.6414
   3511368.35049   2736063.44547  24974350.8094   24974348.4614
     -2185.1564
 04  9 17 22 36  0.0040000  0  8G31G 8G13G19G29G27G28G10
  -1350581.70749  -1044599.96347  24949596.4964   24949594.4374
      2867.0004
  -3360851.74149  -2618138.95848  21603172.3164   21603168.1174
      -107.9064
  18175307.48249  14151654.06347  23757173.2854   23757169.4694
     -4395.5314
   3651998.04149   2844776.64947  23688892.3014   23688886.4184
     -2378.4374
   -100696.71559    -66827.74256  25452871.8944   25452868.2544
      2176.2814
   3053589.48349   2375524.15248  21822628.2544   21822623.7464
     -1192.4374
  -8492034.65449  -6608128.70848  22745979.6844   22745974.7504
       747.7034
   3544212.60149   2761656.38547  24980601.6914   24980598.1484
     -2193.9224
 04  9 17 22 36 15.0040000  0  8G31G 8G13G19G29G27G28G10
  -1393581.27749  -1078106.05147  24941413.8404   24941412.5234
      2866.0634
  -3359202.88249  -2616854.13348  21603485.9024   21603481.6134
      -112.2194
  18241271.71449  14203054.72747  23769725.8714   23769721.7274
     -4399.8594
   3687736.74849   2872624.98547  23695692.7464   23695686.9264
     -2386.9844
   -133322.91749    -92250.75946  25446663.3554   25446660.0044
      2173.6884
   3071505.19049   2389484.43648  21826037.4104   21826032.7854
     -1196.5314
  -8503215.63649  -6616841.14848  22743852.0194   22743846.9494
       742.8594
   3577173.95849   2787340.54147  24986873.5904   24986870.8874
     -2201.2194
 04  9 17 22 36 30.0040000  0  8G31G 8G13G19G29G27G28G10
  -1436559.85649  -1111595.77747  24933235.2074   24933233.4774
      2864.9064
  -3357482.71249  -2615513.74148  21603813.0274   21603808.7894
      -116.7504
  18307307.18049  14254510.91547  23782291.3094   23782288.0904
     -4404.4534
   3723611.33249   2900579.18847  23702519.9804   23702514.4964
     -2395.8124
   -165901.85449   -117636.95546  25440462.4964   25440460.7894
      2170.7504
   3089489.42849   2403498.12248  21829459.4804   21829454.8204
     -1200.8444
  -8514315.77549  -6625490.58548  22741739.6994   22741735.1294
       737.6564
   3610254.94549   2813117.88547  24993167.7304   24993165.7074
     -2209.0314
 04  9 17 22 36 45.0040000  0  8G31G 8G13G19G29G27G28G10
  -1479523.63149  -1145073.96747  24925059.4804   24925057.3284
      2863.6724
  -3355697.50249  -2614122.66048  21604152.9734   21604148.3874
      -121.2664
  18373406.98349  14306017.20847  23794869.8944   23794866.5044
     -4408.8754
   3759615.05649   2928634.03947  23709371.3634   23709364.8164
     -2404.6414
   -198439.59549   -142991.02146  25434272.1844   25434268.6874
      2167.8444
   3107535.85349   2417560.26648  21832893.7074   21832889.1954
     -1205.1874
  -8525341.67349  -6634082.17948  22739641.3484   22739636.6094
       732.4844
   3643448.85549   2838983.28547  24999484.7464   24999482.7074
     -2216.7344
 04  9 17 22 37  0.0040000  0  8G31G 8G13G19G29G27G28G10
  -1522468.07549  -1178537.08147  24916887.1444   24916885.8834
      2862.2814
  -3353842.90549  -2612677.52048  21604505.8164   21604501.8054
      -125.9844
  18439574.97349  14357576.65747  23807461.3794   23807457.9614
     -4413.5004
   3795752.00349   2956792.68747  23716247.5044   23716241.4264
     -2413.6094
   -230931.74049   -168309.54146  25428089.1914   25428085.2424
      2164.5314
   3125648.64149   2431674.12648  21836340.3404   21836335.9454
     -1209.7974
  -8536289.19449  -6642612.70648  22737558.4344   22737553.3054
       727.2194
   3676759.54849   2864939.64747  25005823.2934   25005822.0084
     -2224.5004
 04  9 17 22 37 15.0040000  0  8G31G 8G13G19G29G27G28G10
  -1565392.69149  -1211984.77547  24908718.8874   24908717.4144
      2861.1254
  -3351918.95649  -2611178.33948  21604871.7934   21604867.5864
      -130.5314
  18505810.96849  14409189.08347  23820065.2854   23820062.2344
     -4417.9374
   3832021.97349   2985054.99247  23723149.9494   23723143.7814
     -2422.4064
   -263378.08549   -193592.41746  25421914.2384   25421911.4494
      2161.5314
   3143828.04849   2445839.89648  21839799.6374   21839795.4374
     -1214.0944
  -8547158.22149  -6651082.06548  22735489.8714   22735484.9924
       722.0784
   3710186.80849   2890986.86047  25012184.9574   25012182.5314
     -2232.4534
 04  9 17 22 37 30.0040000  0  8G31G 8G13G19G29G27G28G10
  -1608296.76549  -1245416.44347  24900553.9494   24900552.8444
      2859.6094
  -3349925.01949  -2609624.61848  21605251.4184   21605246.8204
      -135.1564
  18572115.11449  14460854.61547  23832683.1374   23832679.6994
     -4422.5474
   3868425.42249   3013421.31047  23730077.2154   23730071.2424
     -2431.2504
   -295777.62449   -218838.78846  25415748.4494   25415746.0194
      2158.5944
   3162074.69749   2460058.06048  21843272.0434   21843267.9374
     -1218.6254
  -8557948.14449  -6659489.77048  22733436.7154   22733431.8984
       716.8134
   3743730.93549   2917125.12847  25018568.1374   25018565.6764
     -2240.0004
 04  9 17 22 37 45.0040000  0  8G31G 8G13G19G29G27G28G10
  -1651181.89749  -1278833.34147  24892393.0194   24892391.5594
      2858.6414
  -3347862.74249  -2608017.64048  21605643.7854   21605639.5004
      -139.6094
  18638485.17949  14512571.51747  23845312.8404   23845309.1604
     -4426.7034
   3904960.12849   3041889.90347  23737029.0904   23737023.9144
     -2439.7504
   -328132.04549   -244050.03346  25409591.6994   25409588.9344
      2155.6254
   3180386.68749   2474327.13948  21846756.5514   21846752.1804
     -1222.7974
  -8568661.00649  -6667837.45048  22731398.3164   22731393.1334
       711.8284
   3777389.66849   2943352.69747  25024973.2624   25024970.7544
     -2247.5474
 04  9 17 22 38  0.0040000  0  8G31G 8G13G19G29G27G28G10
  -1694050.10049  -1312237.03347  24884235.4734   24884234.2584
      2857.4844
  -3345734.31949  -2606359.12848  21606048.8874   21606044.1374
      -144.1254
  18704918.41149  14564337.64347  23857954.7694   23857951.0704
     -4431.0004
   3941623.45149   3070458.70547  23744006.1214   23744000.3244
     -2448.5624
   -360443.48749   -269227.74146  25403443.8404   25403440.0004
      2152.6884
   3198761.80449   2488645.40548  21850253.2304   21850248.8014
     -1227.0944
  -8579299.23649  -6676126.95048  22729373.5434   22729368.5704
       706.7344
   3811160.43849   2969667.53047  25031400.2624   25031397.0124
     -2255.1724
 04  9 17 22 38 15.0040000  0  8G31G 8G13G19G29G27G28G10
  -1736896.37649  -1345623.70247  24876082.2304   24876080.6134
      2855.9534
  -3343535.21349  -2604645.54248  21606467.2304   21606463.0194
      -148.7034
  18771419.27749  14616156.45947  23870609.6374   23870606.2624
     -4435.3284
   3978419.77549   3099131.16947  23751008.3014   23751002.5314
     -2457.2814
   -392706.94949   -294368.11246  25397303.6844   25397300.5784
      2149.5164
   3217204.61449   2503016.43448  21853763.1134   21853758.8554
     -1231.5164
  -8589858.28249  -6684354.77248  22727364.4654   22727359.5004
       701.5164
   3845047.42049   2996072.94747  25037848.2694   25037845.6254
     -2262.7194
 04  9 17 22 38 30.0040000  0  8G31G 8G13G19G29G27G28G10
  -1779723.00349  -1378994.99347  24867932.3014   24867931.2114
      2854.3914
  -3341267.88249  -2602878.78048  21606898.7934   21606894.0194
      -153.4224
  18837984.91349  14668025.75847  23883276.5124   23883273.2424
     -4439.8594
   4015346.56649   3127905.27647  23758035.2234   23758029.3524
     -2466.1414
   -424924.78849   -319472.90846  25391173.9104   25391170.0474
      2146.2664
   3235712.80049   2517438.38748  21857284.8404   21857280.5594
     -1236.0474
  -8600340.58949  -6692522.79248  22725370.0274   22725365.1094
       696.2194
   3879047.92849   3022566.83746  25044318.0594   25044315.2624
     -2270.4534
 04  9 17 22 38 45.0040000  0  8G31G 8G13G19G29G27G28G10
  -1822532.63649  -1412353.07747  24859786.3094   24859784.6524
      2853.5164
  -3338935.22149  -2601061.11548  21607342.4884   21607338.0944
      -157.5474
  18904611.97349  14719942.90747  23895955.7074   23895952.0594
     -4443.7034
   4052400.57449   3156778.52947  23765086.6764   23765080.6174
     -2474.3444
   -457099.59149   -344544.13846  25385050.6214   25385047.2344
      2143.6254
   3254283.49449   2531909.05948  21860818.9494   21860814.3484
     -1239.9694
  -8610749.10749  -6700633.30748  22723389.0044   22723384.1954
       691.5944
   3913158.69449   3049146.65746  25050809.3944   25050806.9224
     -2277.5474
 04  9 17 22 39  0.0040000  0  8G31G 8G13G19G29G27G28G10
  -1865319.97349  -1445693.79947  24851644.2384   24851642.6294
      2851.8134
  -3336531.95349  -2599188.43348  21607799.7774   21607795.3484
      -162.4224
  18971304.99749  14771911.48047  23908646.7854   23908642.9964
     -4448.3444
   4089586.49749   3185754.55947  23772162.4104   23772156.8674
     -2483.3754
   -489226.29449   -369577.96646  25378937.1604   25378933.5984
      2140.2974
   3272921.60749   2546432.25948  21864365.3164   21864361.1134
     -1244.7344
  -8621079.01749  -6708682.57748  22721423.1994   22721417.9264
       686.1094
   3947384.27249   3075815.89547  25057322.0194   25057319.5124
     -2285.4844
 04  9 17 22 39 15.0040000  0  8G31G 8G13G19G29G27G28G10
  -1908088.73149  -1479020.01647  24843505.7694   24843503.5984
      2850.5634
  -3334062.28849  -2597264.02048  21608269.9494   21608265.9064
      -166.9374
  19038059.66349  14823928.05747  23921349.7624   23921345.5514
     -4452.4224
   4126900.04249   3214830.03947  23779263.0904   23779257.3164
     -2491.8754
   -521308.69349   -394577.17646  25372831.4884   25372828.8124
      2137.2344
   3291623.34049   2561005.04048  21867924.0744   21867919.8324
     -1249.0164
  -8631334.25149  -6716673.64848  22719471.7694   22719466.8874
       681.1724
   3981720.38149   3102571.32147  25063856.3324   25063853.6484
     -2292.9064
 04  9 17 22 39 30.0040000  0  8G31G 8G13G19G29G27G28G10
  -1950834.05349  -1512327.98247  24835371.4344   24835369.6444
      2848.6724
  -3331521.43049  -2595284.13048  21608753.5124   21608748.8554
      -171.9064
  19104880.33749  14875996.07547  23934065.4494   23934062.0984
     -4457.0624
   4164345.64049   3244008.42447  23786388.8324   23786383.4414
     -2500.9534
   -553341.75849   -419538.00446  25366735.4104   25366733.4144
      2133.7814
   3310393.13749   2575630.85148  21871495.8634   21871491.6484
     -1253.6874
  -8641510.32249  -6724603.03848  22717535.3484   22717530.3984
       675.6414
   4016171.29949   3129416.11647  25070412.5664   25070409.2234
     -2300.5944
 04  9 17 22 39 45.0040000  0  8G31G 8G13G19G29G27G28G10
  -1993554.48649  -1545616.53047  24827241.1524   24827240.1214
      2847.1724
  -3328908.17549  -2593247.82448  21609250.5044   21609246.4304
      -176.6724
  19171767.71749  14928116.07847  23946793.5904   23946789.5434
     -4461.3914
   4201924.11049   3273290.33847  23793539.5274   23793533.9454
     -2509.7034
   -585324.10749   -444459.25946  25360649.4344   25360647.2344
      2130.5164
   3329232.40549   2590310.79548  21875081.2934   21875076.8054
     -1258.2664
  -8651606.18549  -6732469.94048  22715614.0904   22715609.2774
       670.4064
   4050737.83949   3156351.12047  25076989.2384   25076987.3014
     -2308.2034
 04  9 17 22 40  0.0040000  0  8G31G 8G13G19G29G27G28G10
  -2036251.86449  -1578887.15747  24819115.9344   24819114.8714
      2845.8594
  -3326224.31449  -2591156.50148  21609761.2234   21609756.8914
      -181.2344
  19238719.25849  14980286.07247  23959534.0744   23959530.7154
     -4465.4224
   4239633.11849   3302673.97547  23800715.7854   23800710.0554
     -2518.2034
   -617257.62049   -469342.56846  25354572.0984   25354570.4224
      2127.3134
   3348138.97849   2605043.18948  21878678.8944   21878674.1524
     -1262.5784
  -8661623.95049  -6740275.97248  22713707.7304   22713702.6094
       665.3444
   4085417.52749   3183374.24446  25083589.3554   25083586.9534
     -2315.5784
 04  9 17 22 40 15.0040000  0  8G31G 8G13G19G29G27G28G10
  -2078925.62749  -1612139.38547  24810996.5044   24810994.0554
      2844.2814
  -3323469.65549  -2589010.02948  21610285.4494   21610281.2194
      -185.8444
  19305734.96249  15032506.08747  23972286.9804   23972283.6174
     -4469.6724
   4277472.74349   3332159.39547  23807916.0354   23807910.5394
     -2526.8124
   -649141.96849   -494187.45346  25348506.3324   25348502.6214
      2124.0944
   3367113.17449   2619828.27848  21882289.6294   21882285.2624
     -1267.0474
  -8671563.46349  -6748021.03548  22711816.1524   22711811.1604
       660.1414
   4120210.25049   3210485.40747  25090210.3634   25090207.1484
     -2323.1094
 04  9 17 22 40 30.0040000  0  8G31G 8G13G19G29G27G28G10
  -2121572.41449  -1645370.53547  24802880.1684   24802878.6764
      2842.6094
  -3320641.20749  -2586806.02748  21610823.7234   21610819.1414
      -190.5944
  19372817.67049  15084778.28347  23985052.1604   23985049.1564
     -4474.0624
   4315445.81949   3361748.78247  23815142.4104   23815136.9804
     -2535.5784
   -680973.63349   -518991.37846  25342448.0354   25342444.9924
      2120.7194
   3386158.17549   2634668.53748  21885913.7074   21885908.4494
     -1271.7034
  -8681421.62749  -6755702.70448  22709940.3484   22709935.8404
       654.8754
   4155118.86749   3237686.90147  25096853.0514   25096850.1724
     -2330.6874
 04  9 17 22 40 45.0040000  0  8G31G 8G13G19G29G27G28G10
  -2164196.49549  -1678584.05247  24794768.8164   24794767.4884
      2840.7034
  -3317743.63249  -2584548.17448  21611375.1524   21611370.5434
      -195.6254
  19439962.36749  15137098.79347  23997829.2854   23997826.3794
     -4478.5474
   4353547.49949   3391438.39547  23822392.8634   23822387.1254
     -2544.5944
   -712756.94049   -543757.54646  25336400.2154   25336396.9534
      2117.0784
   3405269.42949   2649560.40748  21889550.5434   21889545.9414
     -1276.4694
  -8691203.03049  -6763324.57148  22708079.2304   22708074.3714
       649.4064
   4190138.40549   3264974.84547  25103516.7074   25103514.3594
     -2338.5474
 04  9 17 22 41  0.0040000  0  8G31G 8G13G19G29G27G28G10
  -2206797.44049  -1711779.50647  24786662.9964   24786660.9654
      2839.3444
  -3314776.65549  -2582236.24648  21611939.5904   21611935.5474
      -200.0164
  19507168.81349  15189467.39947  24010618.0744   24010615.4844
     -4482.5004
   4391777.62449   3421228.09847  23829667.7304   23829662.4374
     -2552.8594
   -744491.63649   -568485.86946  25330361.0194   25330358.2544
      2114.1094
   3424447.11649   2664504.05948  21893199.8164   21893195.7194
     -1280.6724
  -8700907.76849  -6770886.69548  22706232.1444   22706227.5514
       644.5004
   4225268.60749   3292348.99947  25110201.9964   25110199.4844
     -2345.6564
 04  9 17 22 41 15.0040000  0  8G31G 8G13G19G29G27G28G10
  -2249375.00849  -1744956.76847  24778559.6444   24778558.2934
      2837.4694
  -3311739.87749  -2579869.92748  21612517.7624   21612513.0394
      -205.0314
  19574436.50749  15241883.77547  24023419.0434   24023415.4104
     -4486.8124
   4430135.99149   3451117.72047  23836966.8484   23836961.6804
     -2561.6874
   -776177.33549   -593175.98846  25324332.0514   25324328.6764
      2110.5004
   3443691.33249   2679499.55648  21896861.9574   21896857.6294
     -1285.4224
  -8710535.87149  -6778389.09748  22704399.9884   22704394.7544
       639.0944
   4260509.29749   3319809.24247  25116908.0744   25116905.7234
     -2353.2974
 04  9 17 22 41 30.0040000  0  8G31G 8G13G19G29G27G28G10
  -2291928.65349  -1778115.35247  24770462.5274   24770460.8284
      2836.4224
  -3308633.22649  -2577449.15448  21613108.8324   21613104.8594
      -209.0314
  19641765.36249  15294347.76847  24036231.6914   24036227.8794
     -4490.1724
   4468622.53349   3481107.23247  23844291.0274   23844285.0234
     -2569.6254
   -807813.69249   -617827.70146  25318312.0824   25318308.4694
      2107.8444
   3463002.25349   2694547.01248  21900536.5824   21900531.9144
     -1289.2504
  -8720087.17449  -6785831.65748  22702582.3404   22702577.6094
       634.5314
   4295860.23449   3347355.40147  25123634.8404   25123632.5944
     -2359.9694
 04  9 17 22 41 45.0040000  0  8G31G 8G13G19G29G27G28G10
  -2334455.13749  -1811252.79447  24762370.2624   24762368.4024
      2834.3284
  -3305453.67449  -2574971.57748  21613713.8014   21613709.5824
      -214.2194
  19709158.00349  15346861.48447  24049055.5664   24049052.3404
     -4494.8594
   4507239.82949   3511198.61547  23851639.2694   23851633.8594
     -2578.6874
   -839397.51749   -642438.49446  25312301.4264   25312297.7624
      2103.9224
   3482382.85449   2709648.78948  21904224.4964   21904220.1604
     -1294.2194
  -8729558.87849  -6793212.18748  22700780.4804   22700775.2344
       628.9694
   4331323.90249   3374989.43347  25130384.0274   25130381.1724
     -2367.9534
 04  9 17 22 42  0.0040000  0  8G31G 8G13G19G29G27G28G10
  -2376952.11649  -1844367.25847  24754282.7154   24754280.9064
      2832.4844
  -3302198.97849  -2572435.43848  21614333.0514   21614328.7624
      -219.1724
  19776616.22449  15399426.27047  24061891.9184   24061889.4614
     -4499.0784
   4545989.85649   3541393.43747  23859013.6604   23859008.1054
     -2587.4534
   -870926.55049   -667006.52947  25306301.6994   25306298.4574
      2100.4534
   3501835.36349   2724806.57848  21907926.5984   21907921.9694
     -1298.9374
  -8738948.79949  -6800529.00348  22698993.4414   22698988.3164
       623.5634
   4366902.26349   3402712.81047  25137153.0824   25137151.4184
     -2375.5474
 04  9 17 22 42 15.0040000  0  8G31G 8G13G19G29G27G28G10
  -2419422.63149  -1877461.09347  24746200.7854   24746199.3874
      2830.8754
  -3298872.63049  -2569843.48048  21614965.8634   21614962.4494
      -223.8444
  19844136.31849  15452039.30447  24074742.0354   24074738.1914
     -4502.9224
   4584868.93249   3571688.81847  23866411.9184   23866406.3444
     -2595.8124
   -902403.63649   -691534.09746  25300311.8794   25300308.4654
      2097.1254
   3521356.41149   2740017.79648  21911641.0194   21911636.4884
     -1303.2814
  -8748260.42649  -6807784.79548  22697221.2074   22697215.8874
       618.5474
   4402591.50149   3430522.57047  25143945.5434   25143942.7424
     -2382.5944
 04  9 17 22 42 30.0040000  0  8G31G 8G13G19G29G27G28G10
  -2461869.21849  -1910536.27447  24738123.5124   24738121.6604
      2828.6094
  -3295477.07249  -2567197.59848  21615612.3244   21615607.8794
      -229.1094
  19911715.01049  15504697.98747  24087601.0824   24087597.7974
     -4507.5004
   4623873.99349   3602082.35047  23873833.8794   23873828.6874
     -2604.9534
   -933831.56449   -716023.40746  25294331.5824   25294327.8594
      2093.0944
   3540943.36549   2755280.34148  21915368.6914   21915364.0514
     -1308.3594
  -8757496.55649  -6814981.77348  22695463.9024   22695458.6604
       612.8134
   4438388.60349   3458416.38547  25150757.6294   25150754.8014
     -2390.5004
 04  9 17 22 42 45.0040000  0  8G31G 8G13G19G29G27G28G10
  -2504291.13349  -1943592.26147  24730050.7304   24730048.9924
      2827.2974
  -3292011.97949  -2564497.52948  21616271.7624   21616267.5314
      -233.2974
  19979352.47149  15557402.47147  24100471.7304   24100468.9844
     -4511.1254
   4663005.30249   3632574.27147  23881280.6374   23881275.1444
     -2612.9374
   -965209.56249   -740473.75846  25288360.6844   25288357.0314
      2090.1414
   3560596.65849   2770594.58148  21919108.4184   21919103.8914
     -1312.4694
  -8766656.78749  -6822119.60048  22693720.8944   22693715.4494
       608.1724
   4474293.67049   3486394.34647  25157590.7384   25157587.4924
     -2397.2504
 04  9 17 22 43  0.0040000  0  8G31G 8G13G19G29G27G28G10
  -2546686.46549  -1976627.48347  24721982.8164   24721981.1684
      2825.3754
  -3288475.61949  -2561741.91148  21616944.9104   21616940.6644
      -238.3594
  20047049.85649  15610153.62547  24113353.9804   24113351.1294
     -4515.3284
   4702264.08649   3663165.52147  23888750.7934   23888745.8914
     -2621.6874
   -996535.72949   -764883.73346  25282398.9024   25282395.8714
      2086.5004
   3580317.92949   2785961.81748  21922860.9184   21922856.6024
     -1317.2344
  -8775739.60149  -6829197.10648  22691992.0354   22691987.0984
       602.8444
   4510307.78149   3514457.24247  25164443.4964   25164440.9144
     -2404.7344
 04  9 17 22 43 15.0040000  0  8G31G 8G13G19G29G27G28G10
  -2589049.46649  -2009637.56247  24713922.0664   24713919.9884
      2823.0474
  -3284862.66949  -2558926.62548  21617632.2624   21617628.0314
      -243.5004
  20114812.32749  15662955.52547  24126249.9104   24126246.1334
     -4519.7194
   4741655.61549   3693860.19247  23896247.1374   23896241.9654
     -2630.5784
  -1027804.43349   -789248.95147  25276449.1214   25276445.4614
      2082.5944
   3600112.68249   2801386.28948  21926627.9344   21926623.8014
     -1322.1874
  -8784739.65949  -6836210.12948  22690279.1764   22690274.2464
       597.1564
   4546436.06849   3542609.13347  25171318.1374   25171315.5314
     -2412.4374
 04  9 17 22 43 30.0040000  0  8G31G 8G13G19G29G27G28G10
  -2631385.43149  -2042626.52447  24705865.6764   24705863.9104
      2821.1564
  -3281178.33149  -2556055.71948  21618333.4574   21618329.2894
      -248.2974
  20182633.93549  15715803.49847  24139155.0434   24139152.4574
     -4523.7034
   4781174.09349   3724653.81147  23903767.4344   23903761.9304
     -2639.0944
  -1059020.91649   -813573.46646  25270507.9574   25270505.0354
      2079.1094
   3619975.40149   2816863.71648  21930407.3404   21930403.1764
     -1326.7344
  -8793662.55049  -6843163.02348  22688581.4024   22688576.7034
       592.0164
   4582672.68449   3570845.46447  25178213.7304   25178211.1844
     -2419.6874
 04  9 17 22 43 45.0040000  0  8G31G 8G13G19G29G27G28G10
  -2673691.04249  -2075591.86747  24697814.7694   24697812.7384
      2819.2034
  -3277419.60049  -2553126.82748  21619048.4104   21619044.0124
      -253.2504
  20250517.38349  15768699.65547  24152073.2304   24152069.8124
     -4527.7814
   4820822.28949   3755548.49047  23911311.9654   23911306.5354
     -2647.7034
  -1090181.99349   -837854.82246  25264578.2934   25264575.2854
      2075.3134
   3639909.22649   2832396.56348  21934201.0434   21934196.7194
     -1331.4534
  -8802505.39049  -6850053.53448  22686898.8324   22686893.6054
       586.6884
   4619020.34149   3599168.29146  25185130.4344   25185128.8984
     -2426.9694
 04  9 17 22 44  0.0040000  0  8G31G 8G13G19G29G27G28G10
  -2715967.28049  -2108534.31847  24689770.0824   24689768.1874
      2817.6724
  -3273587.79949  -2550141.01148  21619777.7074   21619773.2774
      -257.6094
  20318460.89149  15821642.59747  24165002.4654   24164998.9614
     -4531.2344
   4860598.56649   3786542.98247  23918881.3094   23918875.2774
     -2655.7034
  -1121288.73349   -862093.81147  25258660.0354   25258655.8634
      2072.2344
   3659912.75849   2847983.73748  21938007.5354   21938003.2384
     -1335.6414
  -8811269.54849  -6856882.73048  22685230.7934   22685226.0474
       581.9384
   4655477.34249   3627576.33147  25192067.7934   25192065.7504
     -2433.8594
 04  9 17 22 44 15.0040000  0  8G31G 8G13G19G29G27G28G10
  -2758213.88749  -2141453.67847  24681730.7384   24681729.0194
      2815.2974
  -3269682.82749  -2547098.16548  21620520.6604   21620516.5984
      -262.8444
  20386464.28049  15874632.20447  24177942.2074   24177939.5004
     -4535.5784
   4900502.71049   3817637.11747  23926474.6994   23926469.1844
     -2664.6414
  -1152340.78149   -886290.21147  25252749.8554   25252747.1134
      2068.2194
   3679986.18649   2863625.36348  21941827.3714   21941822.5164
     -1340.6724
  -8819954.94849  -6863650.55248  22683578.3794   22683573.2544
       576.3134
   4692043.36449   3656069.26646  25199026.4024   25199023.9224
     -2441.4694
 04  9 17 22 44 30.0040000  0  8G31G 8G13G19G29G27G28G10
  -2800429.98149  -2174349.25347  24673697.0354   24673695.4304
      2813.5164
  -3265704.01149  -2543997.78748  21621277.8944   21621273.3324
      -267.5474
  20454527.64749  15927668.57347  24190895.0594   24190892.0164
     -4539.3594
   4940534.88449   3848831.00647  23934092.9264   23934087.4844
     -2672.9064
  -1183337.44949   -910443.42447  25246851.6524   25246848.4774
      2064.7504
   3700130.01849   2879321.85148  21945660.2384   21945656.1954
     -1345.1254
  -8828561.22849  -6870356.73548  22681940.4884   22681935.6604
       571.2194
   4728718.48449   3684647.27046  25206005.7234   25206002.9224
     -2448.4694
 04  9 17 22 44 45.0040000  0  8G31G 8G13G19G29G27G28G10
  -2842613.28749  -2207219.29947  24665670.2624   24665667.5084
      2811.0944
  -3261649.23449  -2540838.22548  21622049.3794   21622045.0554
      -272.7974
  20522652.64449  15980752.95347  24203858.2934   24203855.3204
     -4543.6414
   4980696.88449   3880126.06047  23941735.3874   23941729.7584
     -2681.8284
  -1214276.36049   -934551.65647  25240963.7854   25240960.8914
      2060.7194
   3720346.35549   2895074.83048  21949507.6844   21949503.4304
     -1350.2344
  -8837086.40649  -6876999.72348  22680318.3094   22680313.1844
       565.5944
   4765504.49849   3713311.68046  25213005.7774   25213003.3284
     -2456.1414
 04  9 17 22 45  0.0040000  0  8G31G 8G13G19G29G27G28G10
  -2884761.82349  -2240062.23547  24657648.5594   24657647.1444
      2808.6094
  -3257516.76149  -2537618.11848  21622835.8404   21622831.6564
      -278.1874
  20590840.57249  16033886.36447  24216834.4494   24216831.1524
     -4548.0164
   5020990.19849   3911523.42947  23949402.8794   23949397.8284
     -2690.7194
  -1245155.66749   -958613.46247  25235088.3244   25235084.7504
      2056.6564
   3740636.84749   2910885.59348  21953368.7624   21953364.3364
     -1355.2194
  -8845528.86149  -6883578.24548  22678711.4964   22678706.5744
       560.0004
   4802402.65949   3742063.46446  25220027.0354   25220024.4184
     -2463.6724
 04  9 17 22 45 15.0040000  0  8G31G 8G13G19G29G27G28G10
  -2926882.61049  -2272883.54947  24649633.7934   24649631.7734
      2807.1724
  -3253313.82349  -2534343.10048  21623635.8554   21623631.5234
      -282.4064
  20659083.86449  16087062.89247  24229821.1844   24229817.8674
     -4551.2194
   5061407.24649   3943017.21547  23957094.0744   23957088.5234
     -2698.4534
  -1275982.35849   -982634.24347  25229222.1844   25229219.1724
      2053.5164
   3760994.48649   2926748.68448  21957242.7464   21957238.2464
     -1359.2664
  -8853895.89849  -6890098.00148  22677119.2694   22677113.9734
       555.3914
   4839405.46249   3770896.79547  25227068.9104   25227065.7544
     -2470.2344
 04  9 17 22 45 30.0040000  0  8G31G 8G13G19G29G27G28G10
  -2968965.88349  -2305675.61847  24641625.7934   24641623.2774
      2804.6724
  -3249031.07149  -2531005.88748  21624450.6374   21624446.6294
      -287.8444
  20727391.43049  16140289.53247  24242819.3874   24242816.6604
     -4555.5004
   5101957.11649   3974614.51247  23964810.3244   23964805.0434
     -2707.3594
  -1306746.82649  -1006606.52447  25223367.9804   25223364.0824
      2049.2504
   3781428.61849   2942671.39148  21961131.4104   21961126.9494
     -1364.3594
  -8862178.21349  -6896551.73348  22675543.2694   22675538.3364
       549.7664
   4876521.86049   3799818.62247  25234132.1294   25234129.3444
     -2477.7344
 04  9 17 22 45 45.0040000  0  8G31G 8G13G19G29G27G28G10
  -3011019.14649  -2338444.32647  24633623.2234   24633620.7774
      2802.4844
  -3244676.02249  -2527612.34548  21625279.3484   21625275.2694
      -292.7974
  20795755.25249  16193560.00247  24255828.2304   24255825.5274
     -4559.5784
   5142631.77049   4006309.03047  23972550.3554   23972544.6134
     -2715.8124
  -1337456.53449  -1030536.17347  25217523.7624   25217520.0704
      2045.4224
   3801931.54949   2958647.68548  21965032.9344   21965028.2854
     -1369.2194
  -8870383.60049  -6902945.52748  22673981.6054   22673976.8714
       544.4534
   4913743.72249   3828822.67447  25241214.6914   25241211.9414
     -2485.0314
 04  9 17 22 46  0.0040000  0  8G31G 8G13G19G29G27G28G10
  -3053040.60249  -2371188.25447  24625626.6994   24625624.5664
      2800.3594
  -3240247.14349  -2524161.27248  21626122.0354   21626117.5984
      -297.7664
  20864176.36549  16246875.10947  24268848.7384   24268845.8204
     -4563.3444
   5183432.46949   4038101.77447  23980314.9024   23980309.2034
     -2724.2344
  -1368109.90049  -1054421.90147  25211690.4414   25211687.2894
      2041.7034
   3822504.68949   2974678.69248  21968947.9494   21968943.8444
     -1373.9224
  -8878510.71849  -6909278.33848  22672435.2074   22672430.0314
       539.2814
   4951072.25149   3857909.78946  25248318.3554   25248315.8914
     -2492.0784
 04  9 17 22 46 15.0040000  0  8G31G 8G13G19G29G27G28G10
  -3095030.84149  -2403907.85747  24617636.2464   24617634.2154
      2798.0784
  -3235745.05449  -2520653.14648  21626979.0044   21626974.5124
      -302.7664
  20932653.61049  16300233.96747  24281879.6524   24281876.9024
     -4567.2344
   5224358.11349   4069991.86047  23988103.0904   23988097.1724
     -2732.7344
  -1398707.26249  -1078263.95147  25205867.7304   25205865.1604
      2037.6564
   3843147.39649   2990763.91548  21972875.8094   21972871.7774
     -1378.7034
  -8886560.48749  -6915550.87848  22670903.4494   22670898.4654
       533.8444
   4988506.18349   3887079.08446  25255441.8324   25255439.1914
     -2499.4534
 04  9 17 22 46 30.0040000  0  8G31G 8G13G19G29G27G28G10
  -3136987.73449  -2436601.47047  24609651.8944   24609649.8714
      2795.7814
  -3231168.11249  -2517086.69448  21627849.6134   21627845.4104
      -307.8444
  21001188.55549  16353637.78847  24294921.7304   24294918.4224
     -4571.1564
   5265410.18149   4101980.47947  23995914.5664   23995909.4344
     -2741.2034
  -1429246.68249  -1102060.91247  25200056.9964   25200053.3944
      2033.8134
   3863861.49449   3006904.77248  21976817.3484   21976813.5514
     -1383.5474
  -8894531.08649  -6921761.70948  22669386.7854   22669381.8484
       528.5314
   5026046.93249   3916331.60046  25262585.1524   25262582.8124
     -2506.4844
 04  9 17 22 46 45.0040000  0  8G31G 8G13G19G29G27G28G10
  -3178908.67249  -2469267.04547  24601674.2464   24601672.4184
      2793.3914
  -3226514.03149  -2513460.14748  21628735.1844   21628730.8554
      -313.0314
  21069783.04249  16407087.98047  24307974.8404   24307971.5124
     -4575.0944
   5306590.80449   4134069.26747  24003750.4654   24003745.4964
     -2749.9064
  -1459725.59749  -1125810.67747  25194256.3164   25194253.4144
      2029.7344
   3884649.31249   3023103.07448  21980773.3164   21980768.9884
     -1388.5474
  -8902420.29949  -6927909.13348  22667885.2074   22667880.0744
       523.0944
   5063696.58349   3945668.94047  25269748.8404   25269747.3714
     -2513.8594
 04  9 17 22 47  0.0040000  0  8G31G 8G13G19G29G27G28G10
  -3220794.90749  -2501905.60747  24593703.9414   24593701.7114
      2790.9534
  -3221784.14449  -2509774.51648  21629635.3324   21629631.1334
      -318.0944
  21138435.11849  16460583.07947  24321038.5434   24321035.6334
     -4578.9844
   5347898.07349   4166256.73947  24011611.5904   24011605.6414
     -2758.2814
  -1490145.25549  -1149514.30547  25188468.0434   25188464.4734
      2025.6724
   3905509.29449   3039357.58448  21984742.9574   21984738.6644
     -1393.3914
  -8910229.79449  -6933994.44548  22666399.2384   22666394.4104
       517.7194
   5101453.20749   3975089.70947  25276934.9884   25276932.0194
     -2520.9844
 04  9 17 22 47 15.0040000  0  8G31G 8G13G19G29G27G28G10
  -3262641.88249  -2534513.52747  24585740.4264   24585738.1024
      2788.9844
  -3216974.20649  -2506026.51948  21630550.9024   21630546.4614
      -322.8594
  21207148.84049  16514126.21247  24334114.5744   24334110.8364
     -4582.4844
   5389335.99049   4198546.00447  24019497.1994   24019491.0234
     -2766.3594
  -1520501.23649  -1173168.27447  25182692.1294   25182688.1254
      2022.1564
   3926445.90449   3055671.82848  21988727.3164   21988722.5044
     -1397.7974
  -8917955.26349  -6940014.28348  22664929.1764   22664924.0124
       512.7194
   5139320.77149   4004596.81747  25284140.5984   25284138.1484
     -2527.6724
 04  9 17 22 47 30.0040000  0  8G31G 8G13G19G29G27G28G10
  -3304456.56149  -2567096.36747  24577783.2774   24577781.0624
      2786.6724
  -3212091.33949  -2502221.67748  21631479.9184   21631475.7504
      -327.7974
  21275916.33249  16567711.20847  24347200.1914   24347196.9694
     -4586.1254
   5430896.99749   4230931.19847  24027405.9734   24027400.3834
     -2774.6564
  -1550800.62449  -1196778.21147  25176925.3554   25176922.4414
      2018.2194
   3947451.80649   3072040.04548  21992724.1764   21992719.8444
     -1402.5624
  -8925604.23749  -6945974.50648  22663473.4884   22663468.6764
       507.5474
   5177291.55149   4034184.44747  25291366.1764   25291363.8404
     -2534.7344
 04  9 17 22 47 45.0040000  0  8G31G 8G13G19G29G27G28G10
  -3346239.33849  -2599654.28547  24569832.2544   24569829.8444
      2784.0004
  -3207135.79649  -2498360.21848  21632423.1914   21632418.7894
      -333.3284
  21344736.72349  16621337.47547  24360296.9414   24360293.4224
     -4590.2814
   5472580.15549   4263411.56747  24035337.8404   24035332.0744
     -2783.4224
  -1581043.64449  -1220344.15847  25171170.4654   25171167.1054
      2013.8284
   3968526.44449   3088461.84848  21996734.6444   21996730.4144
     -1407.7504
  -8933177.24049  -6951875.53848  22662032.6054   22662027.5434
       501.8754
   5215364.61349   4063851.70747  25298611.1684   25298609.1054
     -2542.1094
 04  9 17 22 48  0.0040000  0  8G31G 8G13G19G29G27G28G10
  -3387987.42849  -2632185.21147  24561888.0354   24561885.0434
      2781.8594
  -3202105.55849  -2494440.55548  21633380.1844   21633376.0354
      -338.0314
  21413612.11849  16675006.57147  24373402.8244   24373399.6954
     -4593.7344
   5514387.73649   4295988.87847  24043293.5664   24043288.0474
     -2791.5004
  -1611227.67849  -1243864.17347  25165426.9104   25165423.3284
      2010.2814
   3989672.33549   3104939.14648  22000759.0274   22000754.6954
     -1412.2814
  -8940671.93949  -6957715.55048  22660606.1294   22660601.2384
       496.8754
   5253541.98549   4093600.26947  25305876.4884   25305873.7584
     -2548.8444
 04  9 17 22 48 15.0040000  0  8G31G 8G13G19G29G27G28G10
  -3429700.23949  -2664688.61347  24553950.5984   24553947.5664
      2779.5784
  -3196999.98749  -2490462.18648  21634351.8324   21634347.3484
      -343.0004
  21482542.41549  16728718.43247  24386520.1524   24386517.0514
     -4597.2974
   5556319.66149   4328663.10647  24051272.8714   24051267.2934
     -2799.7344
  -1641352.09349  -1267337.72847  25159694.7384   25159690.5234
      2006.2034
   4010889.87649   3121472.30248  22004796.1604   22004792.1684
     -1416.9844
  -8948088.12849  -6963494.38248  22659194.8094   22659189.9694
       491.6564
   5291823.49649   4123430.01546  25313161.4184   25313158.4104
     -2555.7344
 04  9 17 22 48 30.0040000  0  8G31G 8G13G19G29G27G28G10
  -3471378.06749  -2697164.78047  24546018.8554   24546016.9454
      2777.1094
  -3191819.65949  -2486425.56948  21635337.6604   21635333.3914
      -348.1254
  21551526.63549  16782472.32147  24399647.1994   24399644.5044
     -4600.9844
   5598374.93149   4361433.43247  24059275.2694   24059269.8284
     -2808.0944
  -1671417.22549  -1290765.07547  25153973.0824   25153969.9344
      2002.0944
   4032178.34649   3138060.71148  22008847.3714   22008842.9224
     -1421.8754
  -8955426.55949  -6969212.63048  22657798.4654   22657793.3984
       486.3594
   5330208.18449   4153340.16046  25320465.4804   25320462.7344
     -2562.7974
 04  9 17 22 48 45.0040000  0  8G31G 8G13G19G29G27G28G10
  -3513019.17149  -2729612.32947  24538094.4494   24538092.6644
      2774.7504
  -3186563.12949  -2482329.56848  21636337.9344   21636333.1414
      -353.0474
  21620565.90149  16836269.10047  24412785.1604   24412782.2274
     -4604.4694
   5640554.87949   4394300.91647  24067302.3014   24067296.5744
     -2816.2344
  -1701421.50149  -1314144.99847  25148262.9414   25148260.2894
      1998.1254
   4053539.38449   3154705.67848  22012912.1844   22012908.0554
     -1426.5784
  -8962685.77949  -6974869.14948  22656417.0274   22656412.1024
       481.2034
   5368697.26549   4183331.60446  25327790.0434   25327787.5784
     -2569.4534
 04  9 17 22 49  0.0040000  0  8G31G 8G13G19G29G27G28G10
  -3554627.18449  -2762034.09347  24530177.1844   24530175.0664
      2772.3284
  -3181234.11349  -2478177.09548  21637351.9264   21637347.5784
      -358.1254
  21689655.96749  16890105.47847  24425931.6054   24425929.4144
     -4608.1414
   5682855.38549   4427262.34047  24075352.1684   24075346.4574
     -2824.4374
  -1731368.52049  -1337480.35647  25142564.7624   25142561.9964
      1994.1094
   4074969.12349   3171404.16848  22016990.3554   22016985.9344
     -1431.3754
  -8969869.77449  -6980467.04948  22655050.1134   22655045.0664
       476.0004
   5407286.44049   4213401.06046  25335132.8094   25335130.2344
     -2576.3754
 04  9 17 22 49 15.0040000  0  8G31G 8G13G19G29G27G28G10
  -3596196.54449  -2794425.73647  24522267.0124   24522264.2544
      2770.0004
  -3175827.47749  -2473964.12948  21638380.7154   21638376.0824
      -363.0314
  21758801.67649  16943985.19147  24439090.0904   24439087.9064
     -4611.5314
   5725281.32849   4460321.49547  24083425.0904   24083419.9654
     -2832.4534
  -1761252.89349  -1360766.85647  25136877.5434   25136874.6294
      1990.2664
   4096472.78449   3188160.25948  22021081.9344   22021077.8914
     -1436.0004
  -8976973.44449  -6986002.36948  22653698.2074   22653693.3874
       470.9844
   5445980.58149   4243552.30447  25342496.4494   25342493.3594
     -2583.1724
 04  9 17 22 49 30.0040000  0  8G31G 8G13G19G29G27G28G10
  -3637730.37749  -2826789.68947  24514363.3244   24514360.9804
      2767.7194
  -3170346.45349  -2469693.19748  21639423.7154   21639419.3164
      -367.9374
  21827999.13849  16997905.23747  24452258.3874   24452255.4064
     -4614.9534
   5767829.03249   4493475.53747  24091521.9804   24091516.3164
     -2840.5944
  -1791077.48349  -1384006.76447  25131202.3554   25131198.9734
      1986.2974
   4118047.05649   3204971.37648  22025187.6524   22025183.3124
     -1440.7344
  -8984000.08049  -6991477.65948  22652361.0514   22652355.8984
       465.8594
   5484775.85449   4273782.39246  25349878.6524   25349876.2584
     -2589.7504
 04  9 17 22 49 45.0040000  0  8G31G 8G13G19G29G27G28G10
  -3679228.78849  -2859126.03947  24506466.2154   24506463.9264
      2765.5784
  -3164791.40549  -2465364.58848  21640481.0744   21640476.6214
      -372.6094
  21897247.59249  17051865.05447  24465436.7854   24465433.0744
     -4618.0784
   5810497.61149   4526723.76147  24099641.4344   24099635.4734
     -2848.3754
  -1820842.73549  -1407200.45247  25125538.4654   25125534.9374
      1982.5784
   4139691.59949   3221837.25548  22029306.3164   22029301.8284
     -1445.0624
  -8990950.38249  -6996893.45948  22651038.8874   22651033.6994
       461.0634
   5523671.45049   4304090.58846  25357280.2464   25357277.9454
     -2596.1874
 04  9 17 22 50  0.0040000  0  8G31G 8G13G19G29G27G28G10
  -3720692.14249  -2891435.09347  24498576.3874   24498573.5664
      2763.3284
  -3159162.93349  -2460978.77748  21641551.7624   21641547.2154
      -377.3914
  21966546.15349  17105863.88147  24478624.0434   24478620.2814
     -4621.2194
   5853286.20049   4560065.50347  24107784.0744   24107777.8674
     -2856.2814
  -1850548.95349  -1430348.17347  25119885.2304   25119881.9184
      1978.7814
   4161405.73049   3238757.34548  22033438.6524   22033434.1644
     -1449.6414
  -8997824.99049  -7002250.29448  22649730.2544   22649725.5164
       456.1254
   5562666.33549   4334476.18546  25364701.3094   25364698.1374
     -2602.7344
 04  9 17 22 50 15.0040000  0  8G31G 8G13G19G29G27G28G10
  -3762119.74149  -2923716.28247  24490692.7464   24490689.8014
      2760.3754
  -3153460.37649  -2456535.21648  21642637.1844   21642632.4924
      -382.8754
  22035894.87149  17159901.80647  24491819.7234   24491816.7774
     -4625.1724
   5896194.96349   4593500.90647  24115948.6844   24115943.2114
     -2864.7664
  -1880195.38249  -1453449.25047  25114244.1684   25114240.3204
      1974.1564
   4183189.99149   3255732.09248  22037584.1374   22037579.8554
     -1454.8754
  -9004623.48849  -7007547.82448  22648436.8794   22648431.5044
       450.4694
   5601760.62949   4364939.28846  25372140.4414   25372137.6954
     -2609.7974
 04  9 17 22 50 30.0040000  0  8G31G 8G13G19G29G27G28G10
  -3803507.94149  -2955966.77047  24482817.0594   24482813.7814
      2758.1094
  -3147680.33249  -2452031.28448  21643736.8714   21643732.6874
      -387.7664
  22105296.67549  17213981.09647  24505026.5274   24505023.7384
     -4628.3594
   5939226.96049   4627032.29947  24124137.4734   24124131.9184
     -2872.6874
  -1909778.62449  -1476501.08847  25108614.1914   25108610.6724
      1970.3284
   4205047.78549   3272764.13148  22041743.2384   22041738.7154
     -1459.4374
  -9011342.66549  -7012783.53248  22647158.0124   22647152.5984
       445.4694
   5640957.37849   4395482.13346  25379599.3404   25379596.0434
     -2616.2814
 04  9 17 22 50 45.0050000  0  8G31G 8G13G19G29G27G28G10
  -3844859.60649  -2988188.77747  24474948.1884   24474944.8494
      2755.4064
  -3141822.84449  -2447467.00648  21644851.7594   21644847.4584
      -392.9534
  22174755.48049  17268104.76847  24518244.7284   24518241.7554
     -4631.9224
   5982384.41849   4660661.48847  24132350.7514   24132344.5204
     -2880.9064
  -1939300.66549  -1499505.28647  25102996.7744   25102992.7514
      1965.9694
   4226980.14649   3289854.27548  22045917.0794   22045912.2674
     -1464.3444
  -9017983.45349  -7017958.16548  22645894.3134   22645889.0094
       440.2034
   5680258.33249   4426106.25646  25387077.0564   25387075.5714
     -2623.1414
 04  9 17 22 51  0.0050000  0  8G31G 8G13G19G29G27G28G10
  -3886171.45049  -3020379.75647  24467085.5244   24467083.0714
      2752.9384
  -3135891.01849  -2442844.82248  21645980.2124   21645975.5134
      -397.8124
  22244259.03549  17322263.34447  24531470.1344   24531467.3134
     -4635.0784
   6025658.75549   4694381.74747  24140585.5484   24140579.4074
     -2888.7814
  -1968759.88549  -1522460.51747  25097390.2674   25097386.5994
      1961.9534
   4248981.68549   3306998.32348  22050103.9464   22050099.2354
     -1468.9534
  -9024547.59149  -7023073.06748  22644645.3374   22644639.9154
       435.2194
   5719655.39549   4456805.24446  25394575.6494   25394572.7204
     -2629.6414
 04  9 17 22 51 15.0050000  0  8G31G 8G13G19G29G27G28G10
  -3927450.44449  -3052545.17347  24459231.2204   24459228.4074
      2750.2344
  -3129888.98149  -2438167.90948  21647122.7904   21647118.1384
      -403.0944
  22313807.15549  17376456.63747  24544704.7514   24544701.7744
     -4638.5624
   6069048.06449   4728191.57147  24148841.9154   24148835.9624
     -2897.0784
  -1998162.43949  -1545371.57047  25091795.2824   25091792.3104
      1957.6884
   4271049.48749   3324193.99748  22054303.1574   22054298.3134
     -1473.9694
  -9031040.05749  -7028132.13048  22643409.6884   22643404.6884
       429.8444
   5759146.36149   4487577.37746  25402089.9464   25402087.5564
     -2636.2974
 04  9 17 22 51 30.0050000  0  8G31G 8G13G19G29G27G28G10
  -3968690.15849  -3084679.92847  24451383.0874   24451380.7704
      2747.8594
  -3123810.62849  -2433431.51548  21648279.3064   21648274.9114
      -407.8594
  22383405.50649  17430689.07047  24557949.3294   24557946.7004
     -4641.6874
   6112558.11149   4762095.49647  24157121.7904   24157115.6424
     -2904.6564
  -2027502.04649  -1568233.57747  25086212.1814   25086208.8724
      1953.8284
   4293189.64949   3341446.08548  22058516.0174   22058511.6884
     -1478.4694
  -9037454.83049  -7033130.63548  22642188.9544   22642183.5754
       424.9844
   5798736.95649   4518427.14646  25409624.0954   25409621.4354
     -2642.7344
 04  9 17 22 51 45.0050000  0  8G31G 8G13G19G29G27G28G10
  -4009892.82449  -3116785.86447  24443542.2044   24443539.5634
      2745.7664
  -3117658.49949  -2428637.65448  21649449.7204   21649445.6424
      -412.5314
  22453051.32249  17484958.48747  24571202.4784   24571199.3804
     -4644.5164
   6156186.08749   4796091.30947  24165424.0714   24165418.2554
     -2912.3754
  -2056780.96249  -1591048.32347  25080640.2674   25080637.2824
      1949.9534
   4315399.68349   3358752.59148  22062742.6574   22062738.3174
     -1482.9374
  -9043794.53249  -7038070.65148  22640982.9234   22640977.5244
       420.2664
   5838424.16749   4549352.22546  25417176.5564   25417173.9704
     -2648.9534
 04  9 17 22 52  0.0050000  0  8G31G 8G13G19G29G27G28G10
  -4051054.17749  -3148859.59147  24435709.9384   24435707.1344
      2742.7504
  -3111428.58549  -2423783.18348  21650635.4544   21650630.9544
      -417.9224
  22522748.25449  17539267.73747  24584464.9704   24584462.6344
     -4648.0944
   6199935.63049   4830181.85347  24173749.2744   24173743.0874
     -2920.6724
  -2085994.92749  -1613812.44547  25075081.3844   25075078.0284
      1945.5164
   4337683.64349   3376116.70848  22066983.0404   22066978.5794
     -1488.0474
  -9050055.34849  -7042949.20748  22639791.3294   22639785.8564
       414.8444
   5878211.68349   4580355.47646  25424747.5714   25424744.9384
     -2655.8444
 04  9 17 22 52 15.0050000  0  8G31G 8G13G19G29G27G28G10
  -4092176.00949  -3180902.51347  24427883.6574   24427881.4854
      2740.4224
  -3105122.52349  -2418869.36148  21651835.4704   21651830.6924
      -422.6874
  22592493.68849  17593614.79147  24597737.4384   24597734.3494
     -4651.0784
   6243804.34349   4864365.26347  24182097.5324   24182091.3374
     -2928.3284
  -2115145.72649  -1636527.31847  25069534.1034   25069530.7514
      1941.5474
   4360039.48849   3393536.83448  22071237.1814   22071232.5914
     -1492.5004
  -9056239.38249  -7047767.92548  22638614.4234   22638608.9974
       409.9844
   5918096.98849   4611434.89546  25432337.5484   25432334.9624
     -2662.0624
 04  9 17 22 52 30.0050000  0  8G31G 8G13G19G29G27G28G10
  -4133260.65249  -3212916.45047  24420066.7124   24420063.3134
      2737.5784
  -3098742.95649  -2413898.26848  21653049.4704   21653044.8534
      -427.9374
  22662284.64949  17647997.32047  24611018.6734   24611015.2824
     -4654.4224
   6287789.48249   4898639.37847  24190466.9234   24190461.5834
     -2936.3914
  -2144235.75449  -1659194.85747  25063998.6574   25063995.1654
      1937.1414
   4382464.58649   3411010.93848  22075504.6264   22075500.3604
     -1497.4694
  -9062349.26149  -7052528.86048  22637451.4784   22637446.1344
       404.6884
   5958077.15849   4642588.25946  25439945.0244   25439943.2984
     -2668.6414
 04  9 17 22 52 45.0050000  0  8G31G 8G13G19G29G27G28G10
  -4174306.25449  -3244899.98147  24412255.5634   24412253.0324
      2734.7504
  -3092288.42349  -2408868.77248  21654277.5404   21654272.9584
      -433.0784
  22732122.18049  17702416.10447  24624308.0094   24624305.0014
     -4657.6564
   6331892.07449   4933005.02047  24198859.5794   24198854.0444
     -2944.3754
  -2173263.43849  -1681813.80547  25058474.3294   25058471.1814
      1932.7504
   4404960.51449   3428540.23248  22079785.5404   22079780.6424
     -1502.3284
  -9068383.72149  -7057231.02848  22636303.5634   22636298.1034
       399.5474
   5998153.20349   4673816.34746  25447571.8064   25447569.2164
     -2675.1874
 04  9 17 22 53  0.0050000  0  8G31G 8G13G19G29G27G28G10
  -4215313.87249  -3276853.92347  24404452.1574   24404449.1574
      2732.5164
  -3085760.12749  -2403781.78548  21655520.1964   21655515.5754
      -437.7504
  22802004.77649  17756870.04547  24637605.2354   24637603.5954
     -4660.4374
   6376110.53049   4967460.92847  24207274.0794   24207268.1034
     -2951.8284
  -2202229.63949  -1704384.87847  25052962.8994   25052959.3724
      1928.9534
   4427526.03749   3446123.74748  22084079.3064   22084075.1104
     -1506.6874
  -9074343.99449  -7061875.39848  22635169.1654   22635163.8174
       394.8134
   6038323.48449   4705117.77346  25455215.2124   25455213.2354
     -2681.1724
 04  9 17 22 53 15.0050000  0  8G31G 8G13G19G29G27G28G10
  -4256284.63249  -3308779.12547  24396655.4934   24396652.4854
      2730.3134
  -3079159.58049  -2398638.49448  21656775.7434   21656771.7824
      -442.2194
  22871930.66749  17811357.71147  24650912.2284   24650910.3724
     -4662.9844
   6420443.18049   5002005.85147  24215710.7434   24215704.7554
     -2959.1414
  -2231135.49749  -1726908.89047  25047461.8994   25047458.7704
      1925.2504
   4450159.91849   3463760.54148  22088386.6814   22088382.6694
     -1510.9694
  -9080231.58749  -7066463.11248  22634048.8764   22634043.1854
       390.2814
   6078586.18949   4736491.25746  25462877.6494   25462875.1304
     -2687.0624
 04  9 17 22 53 30.0050000  0  8G31G 8G13G19G29G27G28G10
  -4297216.11449  -3340673.73847  24388866.5324   24388863.5204
      2727.2504
  -3072484.43049  -2393437.07248  21658046.1814   21658041.9934
      -447.6414
  22941901.54249  17865880.40147  24664228.8454   24664224.9504
     -4666.2814
   6464891.73049   5036641.06747  24224168.6494   24224162.5404
     -2967.1874
  -2259978.73849  -1749384.10447  25041973.2674   25041969.8684
      1920.5784
   4472864.06049   3481452.07148  22092707.0324   22092702.6534
     -1516.1094
  -9086044.53249  -7070992.66648  22632942.7744   22632937.2674
       384.8914
   6118943.11449   4767938.22046  25470557.4934   25470554.5874
     -2693.7344
 04  9 17 22 53 45.0050000  0  8G31G 8G13G19G29G27G28G10
  -4338110.45449  -3372539.39247  24381084.5324   24381081.2044
      2725.1414
  -3065736.98649  -2388179.32848  21659330.0794   21659325.8064
      -452.1094
  23011914.65749  17920436.01647  24677550.5324   24677547.9424
     -4668.9374
   6509453.60549   5071364.58647  24232648.4624   24232642.4504
     -2974.4694
  -2288761.50249  -1771812.26347  25036496.2124   25036492.9934
      1916.9844
   4495636.22249   3499196.60648  22097040.4234   22097036.1184
     -1520.3124
  -9091785.26249  -7075465.96748  22631850.1424   22631844.7744
       380.3444
   6159391.41849   4799456.39046  25478254.5174   25478251.7674
     -2699.5474
 04  9 17 22 54  0.0050000  0  8G31G 8G13G19G29G27G28G10
  -4378967.14249  -3404375.75347  24373309.8844   24373306.4974
      2722.3444
  -3058917.13749  -2382865.16448  21660627.9544   21660623.3604
      -457.2664
  23081969.74849  17975024.38447  24690881.7124   24690879.5954
     -4671.9844
   6554128.58349   5106176.24047  24241149.9154   24241143.7704
     -2982.2974
  -2317483.42249  -1794192.95847  25031030.7284   25031027.2084
      1912.5944
   4518476.61349   3516994.30148  22101386.8604   22101382.5954
     -1525.1254
  -9097453.82049  -7079883.00948  22630771.3924   22630766.2784
       375.2664
   6199930.76249   4831045.37446  25485968.7124   25485966.3564
     -2705.8754
 04  9 17 22 54 15.0050000  0  8G31G 8G13G19G29G27G28G10
  -4419782.97849  -3436180.22747  24365542.4934   24365539.6574
      2719.6414
  -3052021.73049  -2377492.12248  21661940.2434   21661936.1814
      -462.1724
  23152069.38949  18029647.42147  24704221.4704   24704218.7124
     -4674.8444
   6598919.30149   5141078.09547  24249672.5874   24249667.5954
     -2989.9224
  -2346141.21249  -1816523.68647  25025577.3374   25025573.7084
      1908.3754
   4541388.27649   3534847.54848  22105746.9784   22105742.7354
     -1529.7974
  -9103047.29349  -7084241.55948  22629707.4384   22629701.8534
       370.3914
   6240563.81349   4862707.53246  25493701.1034   25493698.9894
     -2711.8444
 04  9 17 22 54 30.0050000  0  8G31G 8G13G19G29G27G28G10
  -4460562.21549  -3467956.22347  24357782.6884   24357779.6734
      2717.3754
  -3045055.33949  -2372063.75848  21663265.8534   21663261.2594
      -466.7974
  23222208.68149  18084301.33947  24717568.8374   24717565.6814
     -4677.2664
   6643820.87749   5176066.31947  24258218.3604   24258211.7394
     -2997.1254
  -2374739.25249  -1838807.85047  25020136.0634   25020131.1774
      1904.5164
   4564366.63349   3552752.75348  22110119.7594   22110114.6534
     -1534.1094
  -9108570.25349  -7088545.15448  22628656.1574   22628650.8494
       365.8754
   6281285.70049   4894438.83246  25501449.9544   25501447.9154
     -2717.7664
 04  9 17 22 54 45.0050000  0  8G31G 8G13G19G29G27G28G10
  -4501301.29049  -3499700.91747  24350030.1884   24350027.5094
      2714.5314
  -3038014.64149  -2366577.49948  21664605.7044   21664601.0674
      -471.9224
  23292390.51549  18138988.44347  24730923.6654   24730921.3104
     -4680.2664
   6688836.40349   5211143.33047  24266783.2434   24266777.8294
     -3004.7974
  -2403273.98349  -1861042.68247  25014704.8844   25014701.3254
      1900.1414
   4587414.91949   3570712.44548  22114505.4624   22114501.2704
     -1538.9224
  -9114019.57349  -7092791.36248  22627618.9544   22627613.7704
       360.8284
   6322099.28749   4926241.60046  25509216.7044   25509214.1184
     -2723.9374
 04  9 17 22 55  0.0050000  0  9G31G 8G13G19G29G27G28G10G 7
  -4542002.72549  -3531416.26447  24342284.6574   24342281.5364
      2712.2974
  -3030902.30449  -2361035.41648  21665959.2354   21665954.5324
      -476.4534
  23362611.76249  18193706.25847  24744285.5094   24744283.8604
     -4682.6254
   6733962.70949   5246306.67447  24275371.2354   24275365.1104
     -3012.0624
  -2431748.00849  -1883230.21747  25009286.6034   25009282.7354
      1896.3284
   4610530.46649   3588724.56348  22118904.1034   22118899.8604
     -1543.1414
  -9119398.07749  -7096982.39648  22626595.7044   22626590.3254
       356.3594
   6363001.48649   4958113.39346  25517000.4934   25516997.9274
     -2729.6414
    -97138.00459    -69654.85856  25352018.8764   25352018.2394
      2451.7814
 04  9 17 22 55 15.0050000  0  9G31G 8G13G19G29G27G28G10G 7
  -4582664.72949  -3563100.88547  24334547.0874   24334543.6424
      2709.5004
  -3023716.90149  -2355436.39748  21667326.3454   21667321.7744
      -481.5314
  23432873.48349  18248455.60647  24757657.2284   24757654.3064
     -4685.3754
   6779200.77249   5281557.10347  24283979.2514   24283973.9234
     -3019.5784
  -2460159.58449  -1905369.08347  25003880.1104   25003876.7004
      1892.0474
   4633714.84549   3606790.30248  22123316.3064   22123311.8534
     -1548.0004
  -9124704.44449  -7101117.21048  22625585.9704   22625580.3494
       351.3594
   6403993.14249   4990054.93246  25524800.1574   25524798.0754
     -2735.8284
   -133904.41049    -98303.86846  25345021.2434   25345022.2554
      2450.7194
 04  9 17 22 55 30.0050000  0  9G31G 8G13G19G29G27G28G10G 7
  -4623284.98249  -3594752.99747  24326817.5954   24326814.3844
      2706.5944
  -3016456.09749  -2349778.63548  21668708.1424   21668703.2704
      -486.5624
  23503177.23649  18303237.69947  24771035.4154   24771032.7284
     -4688.3444
   6824552.54349   5316896.12347  24292610.0404   24292604.1144
     -3027.2504
  -2488506.39549  -1927457.50147  24998486.1424   24998482.2204
      1887.6094
   4656969.99349   3624911.18848  22127741.6814   22127737.1814
     -1552.7194
  -9129936.73649  -7105194.31248  22624590.3534   22624584.9934
       346.2974
   6445076.10249   5022067.59246  25532618.5014   25532616.0444
     -2741.8594
   -170652.84949   -126938.89746  25338029.1654   25338028.6104
      2449.4224
